<?xml version="1.0" encoding="UTF-8" standalone="no" ?>
<gpx xmlns="http://www.topografix.com/GPX/1/1" xmlns:xsi="http://www.w3.org/2001/XMLSchema-instance" xsi:schemaLocation="http://www.topografix.com/GPX/1/1 http://www.topografix.com/GPX/1/1/gpx.xsd" version="1.1" creator="VisuGPX - https://www.visugpx.com">
  <metadata>
    <name>tour lac garardmer</name>
  </metadata>
  <trk>
    <name><![CDATA[tour lac garardmer_1]]></name>
    <trkseg>
      <trkpt lat="48.06902" lon="6.86686">
        <ele>596.8</ele>
        <time>2020-10-24T08:43:41Z</time>
      </trkpt>
      <trkpt lat="48.06902" lon="6.86684">
        <ele>596.8</ele>
        <time>2020-10-24T08:43:42Z</time>
      </trkpt>
      <trkpt lat="48.06902" lon="6.86683">
        <ele>596.6</ele>
        <time>2020-10-24T08:43:43Z</time>
      </trkpt>
      <trkpt lat="48.069" lon="6.86681">
        <ele>596.4</ele>
        <time>2020-10-24T08:43:44Z</time>
      </trkpt>
      <trkpt lat="48.06899" lon="6.86679">
        <ele>596.4</ele>
        <time>2020-10-24T08:43:45Z</time>
      </trkpt>
      <trkpt lat="48.06898" lon="6.86678">
        <ele>596.4</ele>
        <time>2020-10-24T08:43:46Z</time>
      </trkpt>
      <trkpt lat="48.06897" lon="6.86676">
        <ele>595.8</ele>
        <time>2020-10-24T08:43:47Z</time>
      </trkpt>
      <trkpt lat="48.06896" lon="6.86675">
        <ele>595.6</ele>
        <time>2020-10-24T08:43:48Z</time>
      </trkpt>
      <trkpt lat="48.06895" lon="6.86673">
        <ele>595.8</ele>
        <time>2020-10-24T08:43:49Z</time>
      </trkpt>
      <trkpt lat="48.06895" lon="6.86672">
        <ele>596</ele>
        <time>2020-10-24T08:43:50Z</time>
      </trkpt>
      <trkpt lat="48.06894" lon="6.86671">
        <ele>596</ele>
        <time>2020-10-24T08:43:51Z</time>
      </trkpt>
      <trkpt lat="48.06894" lon="6.86669">
        <ele>595.8</ele>
        <time>2020-10-24T08:43:52Z</time>
      </trkpt>
      <trkpt lat="48.06893" lon="6.86667">
        <ele>595.4</ele>
        <time>2020-10-24T08:43:53Z</time>
      </trkpt>
      <trkpt lat="48.06892" lon="6.86665">
        <ele>595.4</ele>
        <time>2020-10-24T08:43:54Z</time>
      </trkpt>
      <trkpt lat="48.06891" lon="6.86663">
        <ele>595.8</ele>
        <time>2020-10-24T08:43:55Z</time>
      </trkpt>
      <trkpt lat="48.0689" lon="6.86662">
        <ele>596</ele>
        <time>2020-10-24T08:43:56Z</time>
      </trkpt>
      <trkpt lat="48.0689" lon="6.86661">
        <ele>596</ele>
        <time>2020-10-24T08:43:57Z</time>
      </trkpt>
      <trkpt lat="48.06889" lon="6.86659">
        <ele>595.8</ele>
        <time>2020-10-24T08:43:58Z</time>
      </trkpt>
      <trkpt lat="48.06889" lon="6.86658">
        <ele>595.8</ele>
        <time>2020-10-24T08:43:59Z</time>
      </trkpt>
      <trkpt lat="48.06891" lon="6.86657">
        <ele>595.6</ele>
        <time>2020-10-24T08:44:00Z</time>
      </trkpt>
      <trkpt lat="48.0689" lon="6.86657">
        <ele>595.4</ele>
        <time>2020-10-24T08:44:01Z</time>
      </trkpt>
      <trkpt lat="48.06891" lon="6.86657">
        <ele>595.2</ele>
        <time>2020-10-24T08:44:02Z</time>
      </trkpt>
      <trkpt lat="48.06889" lon="6.86655">
        <ele>595.2</ele>
        <time>2020-10-24T08:44:03Z</time>
      </trkpt>
      <trkpt lat="48.06889" lon="6.86655">
        <ele>595.4</ele>
        <time>2020-10-24T08:44:04Z</time>
      </trkpt>
      <trkpt lat="48.0689" lon="6.86655">
        <ele>595.4</ele>
        <time>2020-10-24T08:44:05Z</time>
      </trkpt>
      <trkpt lat="48.06888" lon="6.86653">
        <ele>595.4</ele>
        <time>2020-10-24T08:44:06Z</time>
      </trkpt>
      <trkpt lat="48.06889" lon="6.86652">
        <ele>595.2</ele>
        <time>2020-10-24T08:44:07Z</time>
      </trkpt>
      <trkpt lat="48.06888" lon="6.86651">
        <ele>595.2</ele>
        <time>2020-10-24T08:44:08Z</time>
      </trkpt>
      <trkpt lat="48.06889" lon="6.8665">
        <ele>595.2</ele>
        <time>2020-10-24T08:44:09Z</time>
      </trkpt>
      <trkpt lat="48.06889" lon="6.86649">
        <ele>595.4</ele>
        <time>2020-10-24T08:44:10Z</time>
      </trkpt>
      <trkpt lat="48.06889" lon="6.86648">
        <ele>595.4</ele>
        <time>2020-10-24T08:44:11Z</time>
      </trkpt>
      <trkpt lat="48.06889" lon="6.86647">
        <ele>595.4</ele>
        <time>2020-10-24T08:44:12Z</time>
      </trkpt>
      <trkpt lat="48.0689" lon="6.86646">
        <ele>595.4</ele>
        <time>2020-10-24T08:44:13Z</time>
      </trkpt>
      <trkpt lat="48.06889" lon="6.86644">
        <ele>595.4</ele>
        <time>2020-10-24T08:44:14Z</time>
      </trkpt>
      <trkpt lat="48.06889" lon="6.86642">
        <ele>595.2</ele>
        <time>2020-10-24T08:44:15Z</time>
      </trkpt>
      <trkpt lat="48.06887" lon="6.8664">
        <ele>595.2</ele>
        <time>2020-10-24T08:44:16Z</time>
      </trkpt>
      <trkpt lat="48.06885" lon="6.86637">
        <ele>595.4</ele>
        <time>2020-10-24T08:44:17Z</time>
      </trkpt>
      <trkpt lat="48.06886" lon="6.86636">
        <ele>595.2</ele>
        <time>2020-10-24T08:44:18Z</time>
      </trkpt>
      <trkpt lat="48.06886" lon="6.86636">
        <ele>595.2</ele>
        <time>2020-10-24T08:44:19Z</time>
      </trkpt>
      <trkpt lat="48.06886" lon="6.86636">
        <ele>595</ele>
        <time>2020-10-24T08:44:20Z</time>
      </trkpt>
      <trkpt lat="48.0689" lon="6.86632">
        <ele>595</ele>
        <time>2020-10-24T08:44:21Z</time>
      </trkpt>
      <trkpt lat="48.06895" lon="6.86633">
        <ele>594.8</ele>
        <time>2020-10-24T08:44:22Z</time>
      </trkpt>
      <trkpt lat="48.06893" lon="6.86633">
        <ele>595</ele>
        <time>2020-10-24T08:44:23Z</time>
      </trkpt>
      <trkpt lat="48.06893" lon="6.86634">
        <ele>595</ele>
        <time>2020-10-24T08:44:24Z</time>
      </trkpt>
      <trkpt lat="48.06888" lon="6.86631">
        <ele>594.8</ele>
        <time>2020-10-24T08:44:25Z</time>
      </trkpt>
      <trkpt lat="48.06879" lon="6.86635">
        <ele>595.4</ele>
        <time>2020-10-24T08:44:33Z</time>
      </trkpt>
      <trkpt lat="48.06879" lon="6.86635">
        <ele>595.4</ele>
        <time>2020-10-24T08:44:34Z</time>
      </trkpt>
      <trkpt lat="48.06874" lon="6.86634">
        <ele>595.2</ele>
        <time>2020-10-24T08:44:35Z</time>
      </trkpt>
      <trkpt lat="48.06875" lon="6.86633">
        <ele>595.2</ele>
        <time>2020-10-24T08:44:36Z</time>
      </trkpt>
      <trkpt lat="48.06874" lon="6.86632">
        <ele>595.2</ele>
        <time>2020-10-24T08:44:37Z</time>
      </trkpt>
      <trkpt lat="48.06871" lon="6.86631">
        <ele>595.2</ele>
        <time>2020-10-24T08:44:38Z</time>
      </trkpt>
      <trkpt lat="48.06869" lon="6.86631">
        <ele>595.4</ele>
        <time>2020-10-24T08:44:39Z</time>
      </trkpt>
      <trkpt lat="48.06869" lon="6.86632">
        <ele>595.6</ele>
        <time>2020-10-24T08:44:40Z</time>
      </trkpt>
      <trkpt lat="48.0687" lon="6.86632">
        <ele>595.6</ele>
        <time>2020-10-24T08:44:41Z</time>
      </trkpt>
      <trkpt lat="48.06865" lon="6.86631">
        <ele>595.4</ele>
        <time>2020-10-24T08:44:42Z</time>
      </trkpt>
      <trkpt lat="48.06863" lon="6.8663">
        <ele>595.4</ele>
        <time>2020-10-24T08:44:43Z</time>
      </trkpt>
      <trkpt lat="48.06864" lon="6.86629">
        <ele>595.4</ele>
        <time>2020-10-24T08:44:44Z</time>
      </trkpt>
      <trkpt lat="48.06866" lon="6.86631">
        <ele>595.6</ele>
        <time>2020-10-24T08:44:45Z</time>
      </trkpt>
      <trkpt lat="48.06862" lon="6.86629">
        <ele>595.6</ele>
        <time>2020-10-24T08:44:46Z</time>
      </trkpt>
      <trkpt lat="48.06863" lon="6.86629">
        <ele>595.6</ele>
        <time>2020-10-24T08:44:47Z</time>
      </trkpt>
      <trkpt lat="48.06861" lon="6.86628">
        <ele>595.4</ele>
        <time>2020-10-24T08:44:48Z</time>
      </trkpt>
      <trkpt lat="48.06861" lon="6.86628">
        <ele>595.6</ele>
        <time>2020-10-24T08:44:49Z</time>
      </trkpt>
      <trkpt lat="48.06857" lon="6.86628">
        <ele>595.6</ele>
        <time>2020-10-24T08:44:50Z</time>
      </trkpt>
      <trkpt lat="48.06855" lon="6.86627">
        <ele>595.6</ele>
        <time>2020-10-24T08:44:51Z</time>
      </trkpt>
      <trkpt lat="48.06857" lon="6.86627">
        <ele>595.6</ele>
        <time>2020-10-24T08:44:52Z</time>
      </trkpt>
      <trkpt lat="48.06856" lon="6.86627">
        <ele>595.6</ele>
        <time>2020-10-24T08:44:53Z</time>
      </trkpt>
      <trkpt lat="48.06856" lon="6.86627">
        <ele>595.8</ele>
        <time>2020-10-24T08:44:54Z</time>
      </trkpt>
      <trkpt lat="48.06856" lon="6.86627">
        <ele>595.8</ele>
        <time>2020-10-24T08:44:55Z</time>
      </trkpt>
      <trkpt lat="48.0685" lon="6.8662">
        <ele>595.8</ele>
        <time>2020-10-24T08:45:02Z</time>
      </trkpt>
      <trkpt lat="48.06851" lon="6.8662">
        <ele>595.8</ele>
        <time>2020-10-24T08:45:03Z</time>
      </trkpt>
      <trkpt lat="48.06854" lon="6.8662">
        <ele>595.8</ele>
        <time>2020-10-24T08:45:04Z</time>
      </trkpt>
      <trkpt lat="48.06853" lon="6.86619">
        <ele>595.6</ele>
        <time>2020-10-24T08:45:05Z</time>
      </trkpt>
      <trkpt lat="48.0685" lon="6.86617">
        <ele>595.6</ele>
        <time>2020-10-24T08:45:06Z</time>
      </trkpt>
      <trkpt lat="48.06847" lon="6.86614">
        <ele>595.8</ele>
        <time>2020-10-24T08:45:07Z</time>
      </trkpt>
      <trkpt lat="48.06846" lon="6.86613">
        <ele>595.8</ele>
        <time>2020-10-24T08:45:08Z</time>
      </trkpt>
      <trkpt lat="48.06845" lon="6.86613">
        <ele>595.6</ele>
        <time>2020-10-24T08:45:09Z</time>
      </trkpt>
      <trkpt lat="48.06844" lon="6.86615">
        <ele>595.6</ele>
        <time>2020-10-24T08:45:10Z</time>
      </trkpt>
      <trkpt lat="48.06842" lon="6.86614">
        <ele>595.6</ele>
        <time>2020-10-24T08:45:11Z</time>
      </trkpt>
      <trkpt lat="48.06841" lon="6.86614">
        <ele>595.6</ele>
        <time>2020-10-24T08:45:12Z</time>
      </trkpt>
      <trkpt lat="48.0684" lon="6.86614">
        <ele>595.4</ele>
        <time>2020-10-24T08:45:13Z</time>
      </trkpt>
      <trkpt lat="48.06838" lon="6.86614">
        <ele>595.4</ele>
        <time>2020-10-24T08:45:14Z</time>
      </trkpt>
      <trkpt lat="48.06826" lon="6.86613">
        <ele>595.6</ele>
        <time>2020-10-24T08:45:35Z</time>
      </trkpt>
      <trkpt lat="48.06824" lon="6.86612">
        <ele>595.4</ele>
        <time>2020-10-24T08:45:36Z</time>
      </trkpt>
      <trkpt lat="48.06822" lon="6.86611">
        <ele>595.4</ele>
        <time>2020-10-24T08:45:37Z</time>
      </trkpt>
      <trkpt lat="48.06823" lon="6.86611">
        <ele>595.4</ele>
        <time>2020-10-24T08:45:38Z</time>
      </trkpt>
      <trkpt lat="48.06822" lon="6.86609">
        <ele>595.4</ele>
        <time>2020-10-24T08:45:39Z</time>
      </trkpt>
      <trkpt lat="48.06823" lon="6.86608">
        <ele>595.4</ele>
        <time>2020-10-24T08:45:40Z</time>
      </trkpt>
      <trkpt lat="48.0682" lon="6.86608">
        <ele>595.4</ele>
        <time>2020-10-24T08:45:41Z</time>
      </trkpt>
      <trkpt lat="48.06822" lon="6.86607">
        <ele>595.4</ele>
        <time>2020-10-24T08:45:42Z</time>
      </trkpt>
      <trkpt lat="48.06822" lon="6.86606">
        <ele>595.4</ele>
        <time>2020-10-24T08:45:43Z</time>
      </trkpt>
      <trkpt lat="48.0682" lon="6.86605">
        <ele>595.4</ele>
        <time>2020-10-24T08:45:44Z</time>
      </trkpt>
      <trkpt lat="48.06817" lon="6.86604">
        <ele>595.4</ele>
        <time>2020-10-24T08:45:45Z</time>
      </trkpt>
      <trkpt lat="48.06816" lon="6.86603">
        <ele>595.4</ele>
        <time>2020-10-24T08:45:46Z</time>
      </trkpt>
      <trkpt lat="48.06815" lon="6.86602">
        <ele>595.6</ele>
        <time>2020-10-24T08:45:47Z</time>
      </trkpt>
      <trkpt lat="48.06814" lon="6.86601">
        <ele>595.6</ele>
        <time>2020-10-24T08:45:48Z</time>
      </trkpt>
      <trkpt lat="48.06813" lon="6.866">
        <ele>595.6</ele>
        <time>2020-10-24T08:45:49Z</time>
      </trkpt>
      <trkpt lat="48.06812" lon="6.86598">
        <ele>595.6</ele>
        <time>2020-10-24T08:45:50Z</time>
      </trkpt>
      <trkpt lat="48.06811" lon="6.86597">
        <ele>595.4</ele>
        <time>2020-10-24T08:45:51Z</time>
      </trkpt>
      <trkpt lat="48.06811" lon="6.86595">
        <ele>595.4</ele>
        <time>2020-10-24T08:45:52Z</time>
      </trkpt>
      <trkpt lat="48.06807" lon="6.86593">
        <ele>595.6</ele>
        <time>2020-10-24T08:45:53Z</time>
      </trkpt>
      <trkpt lat="48.06806" lon="6.86591">
        <ele>595.6</ele>
        <time>2020-10-24T08:45:54Z</time>
      </trkpt>
      <trkpt lat="48.06807" lon="6.86589">
        <ele>595.6</ele>
        <time>2020-10-24T08:45:55Z</time>
      </trkpt>
      <trkpt lat="48.06804" lon="6.86586">
        <ele>595.4</ele>
        <time>2020-10-24T08:45:56Z</time>
      </trkpt>
      <trkpt lat="48.06805" lon="6.86584">
        <ele>595.4</ele>
        <time>2020-10-24T08:45:57Z</time>
      </trkpt>
      <trkpt lat="48.06804" lon="6.86581">
        <ele>595.4</ele>
        <time>2020-10-24T08:45:58Z</time>
      </trkpt>
      <trkpt lat="48.06804" lon="6.86579">
        <ele>595.4</ele>
        <time>2020-10-24T08:45:59Z</time>
      </trkpt>
      <trkpt lat="48.06802" lon="6.86577">
        <ele>595.4</ele>
        <time>2020-10-24T08:46:00Z</time>
      </trkpt>
      <trkpt lat="48.06803" lon="6.86574">
        <ele>595.4</ele>
        <time>2020-10-24T08:46:01Z</time>
      </trkpt>
      <trkpt lat="48.06799" lon="6.86572">
        <ele>595.2</ele>
        <time>2020-10-24T08:46:02Z</time>
      </trkpt>
      <trkpt lat="48.068" lon="6.86571">
        <ele>595.2</ele>
        <time>2020-10-24T08:46:03Z</time>
      </trkpt>
      <trkpt lat="48.06796" lon="6.86568">
        <ele>595.4</ele>
        <time>2020-10-24T08:46:04Z</time>
      </trkpt>
      <trkpt lat="48.06794" lon="6.86566">
        <ele>595.4</ele>
        <time>2020-10-24T08:46:05Z</time>
      </trkpt>
      <trkpt lat="48.06794" lon="6.86564">
        <ele>595.4</ele>
        <time>2020-10-24T08:46:06Z</time>
      </trkpt>
      <trkpt lat="48.06792" lon="6.86562">
        <ele>595.2</ele>
        <time>2020-10-24T08:46:07Z</time>
      </trkpt>
      <trkpt lat="48.06792" lon="6.86562">
        <ele>595.2</ele>
        <time>2020-10-24T08:46:08Z</time>
      </trkpt>
      <trkpt lat="48.0679" lon="6.86561">
        <ele>595.4</ele>
        <time>2020-10-24T08:46:09Z</time>
      </trkpt>
      <trkpt lat="48.0679" lon="6.8656">
        <ele>595.6</ele>
        <time>2020-10-24T08:46:10Z</time>
      </trkpt>
      <trkpt lat="48.06754" lon="6.86528">
        <ele>595.2</ele>
        <time>2020-10-24T08:47:03Z</time>
      </trkpt>
      <trkpt lat="48.06753" lon="6.86527">
        <ele>595.2</ele>
        <time>2020-10-24T08:47:04Z</time>
      </trkpt>
      <trkpt lat="48.06753" lon="6.86527">
        <ele>595.4</ele>
        <time>2020-10-24T08:47:05Z</time>
      </trkpt>
      <trkpt lat="48.06752" lon="6.86523">
        <ele>595.4</ele>
        <time>2020-10-24T08:47:06Z</time>
      </trkpt>
      <trkpt lat="48.06752" lon="6.86523">
        <ele>595.4</ele>
        <time>2020-10-24T08:47:07Z</time>
      </trkpt>
      <trkpt lat="48.0675" lon="6.86518">
        <ele>595.2</ele>
        <time>2020-10-24T08:47:08Z</time>
      </trkpt>
      <trkpt lat="48.0675" lon="6.86518">
        <ele>595.2</ele>
        <time>2020-10-24T08:47:09Z</time>
      </trkpt>
      <trkpt lat="48.06749" lon="6.86514">
        <ele>595</ele>
        <time>2020-10-24T08:47:10Z</time>
      </trkpt>
      <trkpt lat="48.06749" lon="6.86514">
        <ele>595</ele>
        <time>2020-10-24T08:47:11Z</time>
      </trkpt>
      <trkpt lat="48.06748" lon="6.8651">
        <ele>595.4</ele>
        <time>2020-10-24T08:47:12Z</time>
      </trkpt>
      <trkpt lat="48.06748" lon="6.8651">
        <ele>595.6</ele>
        <time>2020-10-24T08:47:13Z</time>
      </trkpt>
      <trkpt lat="48.06747" lon="6.86507">
        <ele>595.6</ele>
        <time>2020-10-24T08:47:14Z</time>
      </trkpt>
      <trkpt lat="48.06747" lon="6.86507">
        <ele>595.4</ele>
        <time>2020-10-24T08:47:15Z</time>
      </trkpt>
      <trkpt lat="48.06746" lon="6.86504">
        <ele>595.2</ele>
        <time>2020-10-24T08:47:16Z</time>
      </trkpt>
      <trkpt lat="48.06746" lon="6.86504">
        <ele>595.2</ele>
        <time>2020-10-24T08:47:17Z</time>
      </trkpt>
      <trkpt lat="48.06744" lon="6.865">
        <ele>595.2</ele>
        <time>2020-10-24T08:47:18Z</time>
      </trkpt>
      <trkpt lat="48.06744" lon="6.865">
        <ele>595.2</ele>
        <time>2020-10-24T08:47:19Z</time>
      </trkpt>
      <trkpt lat="48.06743" lon="6.86496">
        <ele>595.4</ele>
        <time>2020-10-24T08:47:20Z</time>
      </trkpt>
      <trkpt lat="48.06743" lon="6.86496">
        <ele>595.4</ele>
        <time>2020-10-24T08:47:21Z</time>
      </trkpt>
      <trkpt lat="48.06741" lon="6.86491">
        <ele>595.4</ele>
        <time>2020-10-24T08:47:22Z</time>
      </trkpt>
      <trkpt lat="48.06741" lon="6.86491">
        <ele>595.4</ele>
        <time>2020-10-24T08:47:23Z</time>
      </trkpt>
      <trkpt lat="48.0674" lon="6.86487">
        <ele>595.4</ele>
        <time>2020-10-24T08:47:24Z</time>
      </trkpt>
      <trkpt lat="48.0674" lon="6.86487">
        <ele>595.4</ele>
        <time>2020-10-24T08:47:25Z</time>
      </trkpt>
      <trkpt lat="48.06739" lon="6.86483">
        <ele>595.4</ele>
        <time>2020-10-24T08:47:26Z</time>
      </trkpt>
      <trkpt lat="48.06737" lon="6.86479">
        <ele>595.4</ele>
        <time>2020-10-24T08:47:27Z</time>
      </trkpt>
      <trkpt lat="48.06737" lon="6.86479">
        <ele>595.4</ele>
        <time>2020-10-24T08:47:28Z</time>
      </trkpt>
      <trkpt lat="48.06737" lon="6.86479">
        <ele>595.4</ele>
        <time>2020-10-24T08:47:29Z</time>
      </trkpt>
      <trkpt lat="48.06736" lon="6.86476">
        <ele>595.4</ele>
        <time>2020-10-24T08:47:30Z</time>
      </trkpt>
      <trkpt lat="48.06736" lon="6.86476">
        <ele>595.4</ele>
        <time>2020-10-24T08:47:31Z</time>
      </trkpt>
      <trkpt lat="48.06735" lon="6.86474">
        <ele>595.4</ele>
        <time>2020-10-24T08:47:32Z</time>
      </trkpt>
      <trkpt lat="48.06735" lon="6.86471">
        <ele>595.4</ele>
        <time>2020-10-24T08:47:33Z</time>
      </trkpt>
      <trkpt lat="48.06735" lon="6.86471">
        <ele>595.2</ele>
        <time>2020-10-24T08:47:34Z</time>
      </trkpt>
      <trkpt lat="48.06734" lon="6.86469">
        <ele>595</ele>
        <time>2020-10-24T08:47:35Z</time>
      </trkpt>
      <trkpt lat="48.06734" lon="6.86469">
        <ele>595.2</ele>
        <time>2020-10-24T08:47:36Z</time>
      </trkpt>
      <trkpt lat="48.06733" lon="6.86466">
        <ele>595.2</ele>
        <time>2020-10-24T08:47:37Z</time>
      </trkpt>
      <trkpt lat="48.06733" lon="6.86463">
        <ele>595.2</ele>
        <time>2020-10-24T08:47:38Z</time>
      </trkpt>
      <trkpt lat="48.06732" lon="6.86461">
        <ele>595.2</ele>
        <time>2020-10-24T08:47:39Z</time>
      </trkpt>
      <trkpt lat="48.06732" lon="6.86459">
        <ele>595.2</ele>
        <time>2020-10-24T08:47:40Z</time>
      </trkpt>
      <trkpt lat="48.06731" lon="6.86457">
        <ele>595.2</ele>
        <time>2020-10-24T08:47:41Z</time>
      </trkpt>
      <trkpt lat="48.06731" lon="6.86455">
        <ele>595.4</ele>
        <time>2020-10-24T08:47:42Z</time>
      </trkpt>
      <trkpt lat="48.06731" lon="6.86454">
        <ele>595.4</ele>
        <time>2020-10-24T08:47:43Z</time>
      </trkpt>
      <trkpt lat="48.0673" lon="6.86451">
        <ele>595.2</ele>
        <time>2020-10-24T08:47:44Z</time>
      </trkpt>
      <trkpt lat="48.0673" lon="6.8645">
        <ele>595.2</ele>
        <time>2020-10-24T08:47:45Z</time>
      </trkpt>
      <trkpt lat="48.0673" lon="6.86448">
        <ele>595.2</ele>
        <time>2020-10-24T08:47:46Z</time>
      </trkpt>
      <trkpt lat="48.06729" lon="6.86447">
        <ele>595.2</ele>
        <time>2020-10-24T08:47:47Z</time>
      </trkpt>
      <trkpt lat="48.06728" lon="6.86445">
        <ele>595.2</ele>
        <time>2020-10-24T08:47:48Z</time>
      </trkpt>
      <trkpt lat="48.06728" lon="6.86444">
        <ele>595.2</ele>
        <time>2020-10-24T08:47:49Z</time>
      </trkpt>
      <trkpt lat="48.06727" lon="6.86442">
        <ele>595.2</ele>
        <time>2020-10-24T08:47:50Z</time>
      </trkpt>
      <trkpt lat="48.06727" lon="6.86441">
        <ele>595.2</ele>
        <time>2020-10-24T08:47:51Z</time>
      </trkpt>
      <trkpt lat="48.06727" lon="6.86439">
        <ele>595.2</ele>
        <time>2020-10-24T08:47:52Z</time>
      </trkpt>
      <trkpt lat="48.06727" lon="6.86438">
        <ele>595.2</ele>
        <time>2020-10-24T08:47:53Z</time>
      </trkpt>
      <trkpt lat="48.06726" lon="6.86437">
        <ele>595</ele>
        <time>2020-10-24T08:47:54Z</time>
      </trkpt>
      <trkpt lat="48.06726" lon="6.86436">
        <ele>595</ele>
        <time>2020-10-24T08:47:55Z</time>
      </trkpt>
      <trkpt lat="48.06725" lon="6.86435">
        <ele>595</ele>
        <time>2020-10-24T08:47:56Z</time>
      </trkpt>
      <trkpt lat="48.06725" lon="6.86433">
        <ele>595.2</ele>
        <time>2020-10-24T08:47:57Z</time>
      </trkpt>
      <trkpt lat="48.06725" lon="6.86432">
        <ele>595.4</ele>
        <time>2020-10-24T08:47:58Z</time>
      </trkpt>
      <trkpt lat="48.06725" lon="6.86431">
        <ele>595.4</ele>
        <time>2020-10-24T08:47:59Z</time>
      </trkpt>
      <trkpt lat="48.06724" lon="6.86429">
        <ele>595.4</ele>
        <time>2020-10-24T08:48:00Z</time>
      </trkpt>
      <trkpt lat="48.06724" lon="6.86428">
        <ele>595.2</ele>
        <time>2020-10-24T08:48:01Z</time>
      </trkpt>
      <trkpt lat="48.06724" lon="6.86426">
        <ele>595.2</ele>
        <time>2020-10-24T08:48:02Z</time>
      </trkpt>
      <trkpt lat="48.06723" lon="6.86425">
        <ele>595.4</ele>
        <time>2020-10-24T08:48:03Z</time>
      </trkpt>
      <trkpt lat="48.06723" lon="6.86425">
        <ele>595.6</ele>
        <time>2020-10-24T08:48:04Z</time>
      </trkpt>
      <trkpt lat="48.06722" lon="6.86423">
        <ele>595.6</ele>
        <time>2020-10-24T08:48:05Z</time>
      </trkpt>
      <trkpt lat="48.06722" lon="6.86422">
        <ele>595.4</ele>
        <time>2020-10-24T08:48:06Z</time>
      </trkpt>
      <trkpt lat="48.06722" lon="6.86419">
        <ele>595.4</ele>
        <time>2020-10-24T08:48:07Z</time>
      </trkpt>
      <trkpt lat="48.06722" lon="6.86417">
        <ele>595.2</ele>
        <time>2020-10-24T08:48:08Z</time>
      </trkpt>
      <trkpt lat="48.06721" lon="6.86417">
        <ele>595.2</ele>
        <time>2020-10-24T08:48:09Z</time>
      </trkpt>
      <trkpt lat="48.06721" lon="6.86415">
        <ele>595</ele>
        <time>2020-10-24T08:48:10Z</time>
      </trkpt>
      <trkpt lat="48.06721" lon="6.86413">
        <ele>595</ele>
        <time>2020-10-24T08:48:11Z</time>
      </trkpt>
      <trkpt lat="48.06721" lon="6.86412">
        <ele>595</ele>
        <time>2020-10-24T08:48:12Z</time>
      </trkpt>
      <trkpt lat="48.06721" lon="6.86411">
        <ele>595.2</ele>
        <time>2020-10-24T08:48:13Z</time>
      </trkpt>
      <trkpt lat="48.0672" lon="6.86411">
        <ele>595</ele>
        <time>2020-10-24T08:48:14Z</time>
      </trkpt>
      <trkpt lat="48.0672" lon="6.8641">
        <ele>595</ele>
        <time>2020-10-24T08:48:15Z</time>
      </trkpt>
      <trkpt lat="48.0672" lon="6.86409">
        <ele>595</ele>
        <time>2020-10-24T08:48:16Z</time>
      </trkpt>
      <trkpt lat="48.06719" lon="6.864">
        <ele>595.4</ele>
        <time>2020-10-24T08:48:23Z</time>
      </trkpt>
      <trkpt lat="48.0672" lon="6.86399">
        <ele>595.2</ele>
        <time>2020-10-24T08:48:24Z</time>
      </trkpt>
      <trkpt lat="48.0672" lon="6.86398">
        <ele>595</ele>
        <time>2020-10-24T08:48:25Z</time>
      </trkpt>
      <trkpt lat="48.0672" lon="6.86397">
        <ele>595.2</ele>
        <time>2020-10-24T08:48:26Z</time>
      </trkpt>
      <trkpt lat="48.0672" lon="6.86396">
        <ele>595.2</ele>
        <time>2020-10-24T08:48:27Z</time>
      </trkpt>
      <trkpt lat="48.06719" lon="6.86394">
        <ele>595.2</ele>
        <time>2020-10-24T08:48:28Z</time>
      </trkpt>
      <trkpt lat="48.06719" lon="6.86393">
        <ele>595.2</ele>
        <time>2020-10-24T08:48:29Z</time>
      </trkpt>
      <trkpt lat="48.06719" lon="6.86392">
        <ele>595.2</ele>
        <time>2020-10-24T08:48:30Z</time>
      </trkpt>
      <trkpt lat="48.06718" lon="6.86391">
        <ele>595.4</ele>
        <time>2020-10-24T08:48:31Z</time>
      </trkpt>
      <trkpt lat="48.06718" lon="6.86389">
        <ele>595.2</ele>
        <time>2020-10-24T08:48:32Z</time>
      </trkpt>
      <trkpt lat="48.06718" lon="6.86388">
        <ele>595</ele>
        <time>2020-10-24T08:48:33Z</time>
      </trkpt>
      <trkpt lat="48.06718" lon="6.86387">
        <ele>594.8</ele>
        <time>2020-10-24T08:48:34Z</time>
      </trkpt>
      <trkpt lat="48.06717" lon="6.86385">
        <ele>594.8</ele>
        <time>2020-10-24T08:48:35Z</time>
      </trkpt>
      <trkpt lat="48.06717" lon="6.86384">
        <ele>594.8</ele>
        <time>2020-10-24T08:48:36Z</time>
      </trkpt>
      <trkpt lat="48.06717" lon="6.86383">
        <ele>594.8</ele>
        <time>2020-10-24T08:48:37Z</time>
      </trkpt>
      <trkpt lat="48.06717" lon="6.86381">
        <ele>594.6</ele>
        <time>2020-10-24T08:48:38Z</time>
      </trkpt>
      <trkpt lat="48.06716" lon="6.86379">
        <ele>594.6</ele>
        <time>2020-10-24T08:48:39Z</time>
      </trkpt>
      <trkpt lat="48.06717" lon="6.86378">
        <ele>594.6</ele>
        <time>2020-10-24T08:48:40Z</time>
      </trkpt>
      <trkpt lat="48.06717" lon="6.86376">
        <ele>594.6</ele>
        <time>2020-10-24T08:48:41Z</time>
      </trkpt>
      <trkpt lat="48.06717" lon="6.86375">
        <ele>594.6</ele>
        <time>2020-10-24T08:48:42Z</time>
      </trkpt>
      <trkpt lat="48.06717" lon="6.86374">
        <ele>594.8</ele>
        <time>2020-10-24T08:48:43Z</time>
      </trkpt>
      <trkpt lat="48.06717" lon="6.86372">
        <ele>594.8</ele>
        <time>2020-10-24T08:48:44Z</time>
      </trkpt>
      <trkpt lat="48.06717" lon="6.86371">
        <ele>594.6</ele>
        <time>2020-10-24T08:48:45Z</time>
      </trkpt>
      <trkpt lat="48.06716" lon="6.86369">
        <ele>594.6</ele>
        <time>2020-10-24T08:48:46Z</time>
      </trkpt>
      <trkpt lat="48.06716" lon="6.86368">
        <ele>594.6</ele>
        <time>2020-10-24T08:48:47Z</time>
      </trkpt>
      <trkpt lat="48.06716" lon="6.86366">
        <ele>594.6</ele>
        <time>2020-10-24T08:48:48Z</time>
      </trkpt>
      <trkpt lat="48.06716" lon="6.86364">
        <ele>594.6</ele>
        <time>2020-10-24T08:48:49Z</time>
      </trkpt>
      <trkpt lat="48.06716" lon="6.86362">
        <ele>594.6</ele>
        <time>2020-10-24T08:48:50Z</time>
      </trkpt>
      <trkpt lat="48.06716" lon="6.86361">
        <ele>594.4</ele>
        <time>2020-10-24T08:48:51Z</time>
      </trkpt>
      <trkpt lat="48.06716" lon="6.8636">
        <ele>594.2</ele>
        <time>2020-10-24T08:48:52Z</time>
      </trkpt>
      <trkpt lat="48.06716" lon="6.86358">
        <ele>594.2</ele>
        <time>2020-10-24T08:48:53Z</time>
      </trkpt>
      <trkpt lat="48.06716" lon="6.86357">
        <ele>594.4</ele>
        <time>2020-10-24T08:48:54Z</time>
      </trkpt>
      <trkpt lat="48.06715" lon="6.86355">
        <ele>594.4</ele>
        <time>2020-10-24T08:48:55Z</time>
      </trkpt>
      <trkpt lat="48.06715" lon="6.86353">
        <ele>594.2</ele>
        <time>2020-10-24T08:48:56Z</time>
      </trkpt>
      <trkpt lat="48.06715" lon="6.86351">
        <ele>594.2</ele>
        <time>2020-10-24T08:48:57Z</time>
      </trkpt>
      <trkpt lat="48.06715" lon="6.8635">
        <ele>594.4</ele>
        <time>2020-10-24T08:48:58Z</time>
      </trkpt>
      <trkpt lat="48.06715" lon="6.86348">
        <ele>594.6</ele>
        <time>2020-10-24T08:48:59Z</time>
      </trkpt>
      <trkpt lat="48.06715" lon="6.86347">
        <ele>594.6</ele>
        <time>2020-10-24T08:49:00Z</time>
      </trkpt>
      <trkpt lat="48.06714" lon="6.86346">
        <ele>594.6</ele>
        <time>2020-10-24T08:49:01Z</time>
      </trkpt>
      <trkpt lat="48.06714" lon="6.86344">
        <ele>594.6</ele>
        <time>2020-10-24T08:49:02Z</time>
      </trkpt>
      <trkpt lat="48.06714" lon="6.86342">
        <ele>594.4</ele>
        <time>2020-10-24T08:49:03Z</time>
      </trkpt>
      <trkpt lat="48.06714" lon="6.86341">
        <ele>594.4</ele>
        <time>2020-10-24T08:49:04Z</time>
      </trkpt>
      <trkpt lat="48.06714" lon="6.86339">
        <ele>594.4</ele>
        <time>2020-10-24T08:49:05Z</time>
      </trkpt>
      <trkpt lat="48.06715" lon="6.86338">
        <ele>594.4</ele>
        <time>2020-10-24T08:49:06Z</time>
      </trkpt>
      <trkpt lat="48.06715" lon="6.86336">
        <ele>594.4</ele>
        <time>2020-10-24T08:49:07Z</time>
      </trkpt>
      <trkpt lat="48.06715" lon="6.86335">
        <ele>594.6</ele>
        <time>2020-10-24T08:49:08Z</time>
      </trkpt>
      <trkpt lat="48.06715" lon="6.86333">
        <ele>594.6</ele>
        <time>2020-10-24T08:49:09Z</time>
      </trkpt>
      <trkpt lat="48.06715" lon="6.86331">
        <ele>594.4</ele>
        <time>2020-10-24T08:49:10Z</time>
      </trkpt>
      <trkpt lat="48.06715" lon="6.8633">
        <ele>594</ele>
        <time>2020-10-24T08:49:11Z</time>
      </trkpt>
      <trkpt lat="48.06715" lon="6.86329">
        <ele>594</ele>
        <time>2020-10-24T08:49:12Z</time>
      </trkpt>
      <trkpt lat="48.06715" lon="6.86327">
        <ele>594.2</ele>
        <time>2020-10-24T08:49:13Z</time>
      </trkpt>
      <trkpt lat="48.06715" lon="6.86325">
        <ele>594.2</ele>
        <time>2020-10-24T08:49:14Z</time>
      </trkpt>
      <trkpt lat="48.06716" lon="6.86322">
        <ele>594.2</ele>
        <time>2020-10-24T08:49:15Z</time>
      </trkpt>
      <trkpt lat="48.06716" lon="6.8632">
        <ele>594.4</ele>
        <time>2020-10-24T08:49:16Z</time>
      </trkpt>
      <trkpt lat="48.06716" lon="6.86318">
        <ele>594.4</ele>
        <time>2020-10-24T08:49:17Z</time>
      </trkpt>
      <trkpt lat="48.06715" lon="6.86316">
        <ele>594.4</ele>
        <time>2020-10-24T08:49:18Z</time>
      </trkpt>
      <trkpt lat="48.06715" lon="6.86315">
        <ele>594.4</ele>
        <time>2020-10-24T08:49:19Z</time>
      </trkpt>
      <trkpt lat="48.06715" lon="6.86313">
        <ele>594.4</ele>
        <time>2020-10-24T08:49:20Z</time>
      </trkpt>
      <trkpt lat="48.06715" lon="6.86311">
        <ele>594.4</ele>
        <time>2020-10-24T08:49:21Z</time>
      </trkpt>
      <trkpt lat="48.06715" lon="6.86309">
        <ele>594.4</ele>
        <time>2020-10-24T08:49:22Z</time>
      </trkpt>
      <trkpt lat="48.06715" lon="6.86307">
        <ele>594.4</ele>
        <time>2020-10-24T08:49:23Z</time>
      </trkpt>
      <trkpt lat="48.06714" lon="6.86306">
        <ele>594.6</ele>
        <time>2020-10-24T08:49:24Z</time>
      </trkpt>
      <trkpt lat="48.06714" lon="6.86304">
        <ele>594.6</ele>
        <time>2020-10-24T08:49:25Z</time>
      </trkpt>
      <trkpt lat="48.06714" lon="6.86302">
        <ele>594.4</ele>
        <time>2020-10-24T08:49:26Z</time>
      </trkpt>
      <trkpt lat="48.06714" lon="6.86301">
        <ele>594.4</ele>
        <time>2020-10-24T08:49:27Z</time>
      </trkpt>
      <trkpt lat="48.06714" lon="6.86299">
        <ele>594.6</ele>
        <time>2020-10-24T08:49:28Z</time>
      </trkpt>
      <trkpt lat="48.06714" lon="6.86297">
        <ele>594.4</ele>
        <time>2020-10-24T08:49:29Z</time>
      </trkpt>
      <trkpt lat="48.06714" lon="6.86296">
        <ele>594.4</ele>
        <time>2020-10-24T08:49:30Z</time>
      </trkpt>
      <trkpt lat="48.06713" lon="6.86294">
        <ele>594.2</ele>
        <time>2020-10-24T08:49:31Z</time>
      </trkpt>
      <trkpt lat="48.06713" lon="6.86292">
        <ele>594.2</ele>
        <time>2020-10-24T08:49:32Z</time>
      </trkpt>
      <trkpt lat="48.06713" lon="6.8629">
        <ele>594.2</ele>
        <time>2020-10-24T08:49:33Z</time>
      </trkpt>
      <trkpt lat="48.06712" lon="6.86288">
        <ele>594.2</ele>
        <time>2020-10-24T08:49:34Z</time>
      </trkpt>
      <trkpt lat="48.06712" lon="6.86287">
        <ele>594.2</ele>
        <time>2020-10-24T08:49:35Z</time>
      </trkpt>
      <trkpt lat="48.06713" lon="6.86286">
        <ele>594.2</ele>
        <time>2020-10-24T08:49:36Z</time>
      </trkpt>
      <trkpt lat="48.06713" lon="6.86284">
        <ele>594.2</ele>
        <time>2020-10-24T08:49:37Z</time>
      </trkpt>
      <trkpt lat="48.06713" lon="6.86282">
        <ele>594.2</ele>
        <time>2020-10-24T08:49:38Z</time>
      </trkpt>
      <trkpt lat="48.06713" lon="6.8628">
        <ele>594.2</ele>
        <time>2020-10-24T08:49:39Z</time>
      </trkpt>
      <trkpt lat="48.06712" lon="6.86279">
        <ele>594.4</ele>
        <time>2020-10-24T08:49:40Z</time>
      </trkpt>
      <trkpt lat="48.06712" lon="6.86278">
        <ele>594.4</ele>
        <time>2020-10-24T08:49:41Z</time>
      </trkpt>
      <trkpt lat="48.06712" lon="6.86276">
        <ele>594.2</ele>
        <time>2020-10-24T08:49:42Z</time>
      </trkpt>
      <trkpt lat="48.06712" lon="6.86274">
        <ele>594.2</ele>
        <time>2020-10-24T08:49:43Z</time>
      </trkpt>
      <trkpt lat="48.06712" lon="6.86274">
        <ele>594.2</ele>
        <time>2020-10-24T08:49:44Z</time>
      </trkpt>
      <trkpt lat="48.06712" lon="6.86264">
        <ele>594.2</ele>
        <time>2020-10-24T08:49:52Z</time>
      </trkpt>
      <trkpt lat="48.06712" lon="6.86262">
        <ele>594</ele>
        <time>2020-10-24T08:49:53Z</time>
      </trkpt>
      <trkpt lat="48.06712" lon="6.8626">
        <ele>594</ele>
        <time>2020-10-24T08:49:54Z</time>
      </trkpt>
      <trkpt lat="48.06712" lon="6.86259">
        <ele>594</ele>
        <time>2020-10-24T08:49:55Z</time>
      </trkpt>
      <trkpt lat="48.06713" lon="6.86257">
        <ele>594</ele>
        <time>2020-10-24T08:49:56Z</time>
      </trkpt>
      <trkpt lat="48.06713" lon="6.86255">
        <ele>594.2</ele>
        <time>2020-10-24T08:49:57Z</time>
      </trkpt>
      <trkpt lat="48.06714" lon="6.86254">
        <ele>594</ele>
        <time>2020-10-24T08:49:58Z</time>
      </trkpt>
      <trkpt lat="48.06715" lon="6.86252">
        <ele>594</ele>
        <time>2020-10-24T08:49:59Z</time>
      </trkpt>
      <trkpt lat="48.06716" lon="6.86251">
        <ele>594.2</ele>
        <time>2020-10-24T08:50:00Z</time>
      </trkpt>
      <trkpt lat="48.06717" lon="6.86249">
        <ele>594.2</ele>
        <time>2020-10-24T08:50:01Z</time>
      </trkpt>
      <trkpt lat="48.06717" lon="6.86248">
        <ele>594.2</ele>
        <time>2020-10-24T08:50:02Z</time>
      </trkpt>
      <trkpt lat="48.06718" lon="6.86247">
        <ele>594</ele>
        <time>2020-10-24T08:50:03Z</time>
      </trkpt>
      <trkpt lat="48.06718" lon="6.86246">
        <ele>593.8</ele>
        <time>2020-10-24T08:50:04Z</time>
      </trkpt>
      <trkpt lat="48.0672" lon="6.86246">
        <ele>593.6</ele>
        <time>2020-10-24T08:50:05Z</time>
      </trkpt>
      <trkpt lat="48.06721" lon="6.86245">
        <ele>593.8</ele>
        <time>2020-10-24T08:50:06Z</time>
      </trkpt>
      <trkpt lat="48.06722" lon="6.86245">
        <ele>593.8</ele>
        <time>2020-10-24T08:50:07Z</time>
      </trkpt>
      <trkpt lat="48.06723" lon="6.86245">
        <ele>593.8</ele>
        <time>2020-10-24T08:50:08Z</time>
      </trkpt>
      <trkpt lat="48.06723" lon="6.86242">
        <ele>593.6</ele>
        <time>2020-10-24T08:50:09Z</time>
      </trkpt>
      <trkpt lat="48.06724" lon="6.86241">
        <ele>593.6</ele>
        <time>2020-10-24T08:50:10Z</time>
      </trkpt>
      <trkpt lat="48.06725" lon="6.8624">
        <ele>593.6</ele>
        <time>2020-10-24T08:50:11Z</time>
      </trkpt>
      <trkpt lat="48.06726" lon="6.86237">
        <ele>593.6</ele>
        <time>2020-10-24T08:50:12Z</time>
      </trkpt>
      <trkpt lat="48.06727" lon="6.86235">
        <ele>593.8</ele>
        <time>2020-10-24T08:50:13Z</time>
      </trkpt>
      <trkpt lat="48.06728" lon="6.86234">
        <ele>593.8</ele>
        <time>2020-10-24T08:50:14Z</time>
      </trkpt>
      <trkpt lat="48.06729" lon="6.86232">
        <ele>593.8</ele>
        <time>2020-10-24T08:50:15Z</time>
      </trkpt>
      <trkpt lat="48.0673" lon="6.86231">
        <ele>593.8</ele>
        <time>2020-10-24T08:50:16Z</time>
      </trkpt>
      <trkpt lat="48.06731" lon="6.8623">
        <ele>594</ele>
        <time>2020-10-24T08:50:17Z</time>
      </trkpt>
      <trkpt lat="48.06731" lon="6.86229">
        <ele>594</ele>
        <time>2020-10-24T08:50:18Z</time>
      </trkpt>
      <trkpt lat="48.06733" lon="6.86226">
        <ele>593.8</ele>
        <time>2020-10-24T08:50:19Z</time>
      </trkpt>
      <trkpt lat="48.06734" lon="6.86225">
        <ele>593.6</ele>
        <time>2020-10-24T08:50:20Z</time>
      </trkpt>
      <trkpt lat="48.06735" lon="6.86225">
        <ele>593.6</ele>
        <time>2020-10-24T08:50:21Z</time>
      </trkpt>
      <trkpt lat="48.06736" lon="6.86223">
        <ele>593.8</ele>
        <time>2020-10-24T08:50:22Z</time>
      </trkpt>
      <trkpt lat="48.06737" lon="6.86222">
        <ele>593.8</ele>
        <time>2020-10-24T08:50:23Z</time>
      </trkpt>
      <trkpt lat="48.06738" lon="6.86221">
        <ele>593.8</ele>
        <time>2020-10-24T08:50:24Z</time>
      </trkpt>
      <trkpt lat="48.06739" lon="6.8622">
        <ele>593.8</ele>
        <time>2020-10-24T08:50:25Z</time>
      </trkpt>
      <trkpt lat="48.0674" lon="6.8622">
        <ele>593.8</ele>
        <time>2020-10-24T08:50:26Z</time>
      </trkpt>
      <trkpt lat="48.0674" lon="6.86219">
        <ele>593.8</ele>
        <time>2020-10-24T08:50:27Z</time>
      </trkpt>
      <trkpt lat="48.06741" lon="6.86218">
        <ele>594</ele>
        <time>2020-10-24T08:50:28Z</time>
      </trkpt>
      <trkpt lat="48.06741" lon="6.86216">
        <ele>594</ele>
        <time>2020-10-24T08:50:29Z</time>
      </trkpt>
      <trkpt lat="48.06741" lon="6.86214">
        <ele>593.8</ele>
        <time>2020-10-24T08:50:30Z</time>
      </trkpt>
      <trkpt lat="48.06742" lon="6.86211">
        <ele>593.6</ele>
        <time>2020-10-24T08:50:31Z</time>
      </trkpt>
      <trkpt lat="48.06742" lon="6.86209">
        <ele>593.6</ele>
        <time>2020-10-24T08:50:32Z</time>
      </trkpt>
      <trkpt lat="48.06742" lon="6.86207">
        <ele>593.6</ele>
        <time>2020-10-24T08:50:33Z</time>
      </trkpt>
      <trkpt lat="48.06742" lon="6.86205">
        <ele>593.6</ele>
        <time>2020-10-24T08:50:34Z</time>
      </trkpt>
      <trkpt lat="48.06743" lon="6.86203">
        <ele>593.6</ele>
        <time>2020-10-24T08:50:35Z</time>
      </trkpt>
      <trkpt lat="48.06742" lon="6.86201">
        <ele>593.6</ele>
        <time>2020-10-24T08:50:36Z</time>
      </trkpt>
      <trkpt lat="48.06743" lon="6.862">
        <ele>593.8</ele>
        <time>2020-10-24T08:50:37Z</time>
      </trkpt>
      <trkpt lat="48.06743" lon="6.86198">
        <ele>593.8</ele>
        <time>2020-10-24T08:50:38Z</time>
      </trkpt>
      <trkpt lat="48.06743" lon="6.86197">
        <ele>593.8</ele>
        <time>2020-10-24T08:50:39Z</time>
      </trkpt>
      <trkpt lat="48.06744" lon="6.86195">
        <ele>593.8</ele>
        <time>2020-10-24T08:50:40Z</time>
      </trkpt>
      <trkpt lat="48.06744" lon="6.86194">
        <ele>593.8</ele>
        <time>2020-10-24T08:50:41Z</time>
      </trkpt>
      <trkpt lat="48.06744" lon="6.86192">
        <ele>593.8</ele>
        <time>2020-10-24T08:50:42Z</time>
      </trkpt>
      <trkpt lat="48.06744" lon="6.86191">
        <ele>593.6</ele>
        <time>2020-10-24T08:50:43Z</time>
      </trkpt>
      <trkpt lat="48.06744" lon="6.86188">
        <ele>593.6</ele>
        <time>2020-10-24T08:50:44Z</time>
      </trkpt>
      <trkpt lat="48.06744" lon="6.86186">
        <ele>593.8</ele>
        <time>2020-10-24T08:50:45Z</time>
      </trkpt>
      <trkpt lat="48.06744" lon="6.86182">
        <ele>593.8</ele>
        <time>2020-10-24T08:50:46Z</time>
      </trkpt>
      <trkpt lat="48.06744" lon="6.86181">
        <ele>593.8</ele>
        <time>2020-10-24T08:50:47Z</time>
      </trkpt>
      <trkpt lat="48.06744" lon="6.8618">
        <ele>593.8</ele>
        <time>2020-10-24T08:50:48Z</time>
      </trkpt>
      <trkpt lat="48.06744" lon="6.86179">
        <ele>593.8</ele>
        <time>2020-10-24T08:50:49Z</time>
      </trkpt>
      <trkpt lat="48.06743" lon="6.86178">
        <ele>593.8</ele>
        <time>2020-10-24T08:50:50Z</time>
      </trkpt>
      <trkpt lat="48.06743" lon="6.86177">
        <ele>594</ele>
        <time>2020-10-24T08:50:51Z</time>
      </trkpt>
      <trkpt lat="48.06742" lon="6.86175">
        <ele>594</ele>
        <time>2020-10-24T08:50:52Z</time>
      </trkpt>
      <trkpt lat="48.06742" lon="6.86173">
        <ele>594</ele>
        <time>2020-10-24T08:50:53Z</time>
      </trkpt>
      <trkpt lat="48.06742" lon="6.86172">
        <ele>593.8</ele>
        <time>2020-10-24T08:50:54Z</time>
      </trkpt>
      <trkpt lat="48.06742" lon="6.8617">
        <ele>593.8</ele>
        <time>2020-10-24T08:50:55Z</time>
      </trkpt>
      <trkpt lat="48.06741" lon="6.86168">
        <ele>593.8</ele>
        <time>2020-10-24T08:50:56Z</time>
      </trkpt>
      <trkpt lat="48.0674" lon="6.86165">
        <ele>593.8</ele>
        <time>2020-10-24T08:50:57Z</time>
      </trkpt>
      <trkpt lat="48.06739" lon="6.86163">
        <ele>593.8</ele>
        <time>2020-10-24T08:50:58Z</time>
      </trkpt>
      <trkpt lat="48.06739" lon="6.86161">
        <ele>593.8</ele>
        <time>2020-10-24T08:50:59Z</time>
      </trkpt>
      <trkpt lat="48.06738" lon="6.86161">
        <ele>593.6</ele>
        <time>2020-10-24T08:51:00Z</time>
      </trkpt>
      <trkpt lat="48.06738" lon="6.86159">
        <ele>593.4</ele>
        <time>2020-10-24T08:51:01Z</time>
      </trkpt>
      <trkpt lat="48.06739" lon="6.86158">
        <ele>593.8</ele>
        <time>2020-10-24T08:51:02Z</time>
      </trkpt>
      <trkpt lat="48.06738" lon="6.86157">
        <ele>594</ele>
        <time>2020-10-24T08:51:03Z</time>
      </trkpt>
      <trkpt lat="48.06738" lon="6.86157">
        <ele>593.8</ele>
        <time>2020-10-24T08:51:04Z</time>
      </trkpt>
      <trkpt lat="48.06736" lon="6.86147">
        <ele>593.6</ele>
        <time>2020-10-24T08:51:10Z</time>
      </trkpt>
      <trkpt lat="48.06735" lon="6.86145">
        <ele>593.6</ele>
        <time>2020-10-24T08:51:11Z</time>
      </trkpt>
      <trkpt lat="48.06735" lon="6.86144">
        <ele>593.8</ele>
        <time>2020-10-24T08:51:12Z</time>
      </trkpt>
      <trkpt lat="48.06734" lon="6.86142">
        <ele>593.8</ele>
        <time>2020-10-24T08:51:13Z</time>
      </trkpt>
      <trkpt lat="48.06734" lon="6.86141">
        <ele>593.6</ele>
        <time>2020-10-24T08:51:14Z</time>
      </trkpt>
      <trkpt lat="48.06733" lon="6.86138">
        <ele>593.6</ele>
        <time>2020-10-24T08:51:15Z</time>
      </trkpt>
      <trkpt lat="48.06733" lon="6.86136">
        <ele>593.6</ele>
        <time>2020-10-24T08:51:16Z</time>
      </trkpt>
      <trkpt lat="48.06733" lon="6.86133">
        <ele>593.8</ele>
        <time>2020-10-24T08:51:17Z</time>
      </trkpt>
      <trkpt lat="48.06732" lon="6.86131">
        <ele>593.8</ele>
        <time>2020-10-24T08:51:18Z</time>
      </trkpt>
      <trkpt lat="48.06732" lon="6.86128">
        <ele>593.6</ele>
        <time>2020-10-24T08:51:19Z</time>
      </trkpt>
      <trkpt lat="48.06731" lon="6.86126">
        <ele>593.6</ele>
        <time>2020-10-24T08:51:20Z</time>
      </trkpt>
      <trkpt lat="48.06731" lon="6.86124">
        <ele>593.6</ele>
        <time>2020-10-24T08:51:21Z</time>
      </trkpt>
      <trkpt lat="48.0673" lon="6.86122">
        <ele>593.6</ele>
        <time>2020-10-24T08:51:22Z</time>
      </trkpt>
      <trkpt lat="48.06729" lon="6.86121">
        <ele>593.6</ele>
        <time>2020-10-24T08:51:23Z</time>
      </trkpt>
      <trkpt lat="48.06728" lon="6.86119">
        <ele>593.6</ele>
        <time>2020-10-24T08:51:24Z</time>
      </trkpt>
      <trkpt lat="48.06728" lon="6.86117">
        <ele>593.8</ele>
        <time>2020-10-24T08:51:25Z</time>
      </trkpt>
      <trkpt lat="48.06727" lon="6.86116">
        <ele>593.6</ele>
        <time>2020-10-24T08:51:26Z</time>
      </trkpt>
      <trkpt lat="48.06726" lon="6.86114">
        <ele>593.6</ele>
        <time>2020-10-24T08:51:27Z</time>
      </trkpt>
      <trkpt lat="48.06725" lon="6.86113">
        <ele>593.6</ele>
        <time>2020-10-24T08:51:28Z</time>
      </trkpt>
      <trkpt lat="48.06725" lon="6.86112">
        <ele>593.6</ele>
        <time>2020-10-24T08:51:29Z</time>
      </trkpt>
      <trkpt lat="48.06724" lon="6.86111">
        <ele>593.6</ele>
        <time>2020-10-24T08:51:30Z</time>
      </trkpt>
      <trkpt lat="48.06723" lon="6.86111">
        <ele>593.6</ele>
        <time>2020-10-24T08:51:31Z</time>
      </trkpt>
      <trkpt lat="48.06722" lon="6.8611">
        <ele>593.6</ele>
        <time>2020-10-24T08:51:32Z</time>
      </trkpt>
      <trkpt lat="48.06722" lon="6.86109">
        <ele>593.6</ele>
        <time>2020-10-24T08:51:33Z</time>
      </trkpt>
      <trkpt lat="48.06721" lon="6.86108">
        <ele>593.6</ele>
        <time>2020-10-24T08:51:34Z</time>
      </trkpt>
      <trkpt lat="48.06721" lon="6.86108">
        <ele>593.6</ele>
        <time>2020-10-24T08:51:35Z</time>
      </trkpt>
      <trkpt lat="48.06721" lon="6.86109">
        <ele>593.8</ele>
        <time>2020-10-24T08:51:36Z</time>
      </trkpt>
      <trkpt lat="48.06721" lon="6.86109">
        <ele>593.6</ele>
        <time>2020-10-24T08:51:37Z</time>
      </trkpt>
      <trkpt lat="48.06721" lon="6.86108">
        <ele>593.6</ele>
        <time>2020-10-24T08:51:38Z</time>
      </trkpt>
      <trkpt lat="48.06717" lon="6.86101">
        <ele>593.8</ele>
        <time>2020-10-24T08:51:44Z</time>
      </trkpt>
      <trkpt lat="48.06716" lon="6.86099">
        <ele>593.8</ele>
        <time>2020-10-24T08:51:45Z</time>
      </trkpt>
      <trkpt lat="48.06716" lon="6.86097">
        <ele>593.8</ele>
        <time>2020-10-24T08:51:46Z</time>
      </trkpt>
      <trkpt lat="48.06715" lon="6.86095">
        <ele>593.6</ele>
        <time>2020-10-24T08:51:47Z</time>
      </trkpt>
      <trkpt lat="48.06714" lon="6.86094">
        <ele>593.6</ele>
        <time>2020-10-24T08:51:48Z</time>
      </trkpt>
      <trkpt lat="48.06713" lon="6.86092">
        <ele>593.6</ele>
        <time>2020-10-24T08:51:49Z</time>
      </trkpt>
      <trkpt lat="48.06713" lon="6.8609">
        <ele>593.6</ele>
        <time>2020-10-24T08:51:50Z</time>
      </trkpt>
      <trkpt lat="48.06712" lon="6.86088">
        <ele>593.6</ele>
        <time>2020-10-24T08:51:51Z</time>
      </trkpt>
      <trkpt lat="48.0671" lon="6.86086">
        <ele>593.4</ele>
        <time>2020-10-24T08:51:52Z</time>
      </trkpt>
      <trkpt lat="48.06709" lon="6.86085">
        <ele>593.2</ele>
        <time>2020-10-24T08:51:53Z</time>
      </trkpt>
      <trkpt lat="48.06708" lon="6.86083">
        <ele>593.2</ele>
        <time>2020-10-24T08:51:54Z</time>
      </trkpt>
      <trkpt lat="48.06708" lon="6.86082">
        <ele>593.2</ele>
        <time>2020-10-24T08:51:55Z</time>
      </trkpt>
      <trkpt lat="48.06707" lon="6.86081">
        <ele>593.4</ele>
        <time>2020-10-24T08:51:56Z</time>
      </trkpt>
      <trkpt lat="48.06706" lon="6.86079">
        <ele>593.4</ele>
        <time>2020-10-24T08:51:57Z</time>
      </trkpt>
      <trkpt lat="48.06706" lon="6.86079">
        <ele>593.4</ele>
        <time>2020-10-24T08:51:58Z</time>
      </trkpt>
      <trkpt lat="48.06705" lon="6.86078">
        <ele>593.4</ele>
        <time>2020-10-24T08:51:59Z</time>
      </trkpt>
      <trkpt lat="48.06705" lon="6.86077">
        <ele>593.4</ele>
        <time>2020-10-24T08:52:00Z</time>
      </trkpt>
      <trkpt lat="48.06704" lon="6.86075">
        <ele>593.4</ele>
        <time>2020-10-24T08:52:01Z</time>
      </trkpt>
      <trkpt lat="48.06703" lon="6.86074">
        <ele>593.4</ele>
        <time>2020-10-24T08:52:02Z</time>
      </trkpt>
      <trkpt lat="48.06702" lon="6.86073">
        <ele>593.4</ele>
        <time>2020-10-24T08:52:03Z</time>
      </trkpt>
      <trkpt lat="48.06701" lon="6.86071">
        <ele>593.4</ele>
        <time>2020-10-24T08:52:04Z</time>
      </trkpt>
      <trkpt lat="48.067" lon="6.86071">
        <ele>593.4</ele>
        <time>2020-10-24T08:52:05Z</time>
      </trkpt>
      <trkpt lat="48.06699" lon="6.8607">
        <ele>593.6</ele>
        <time>2020-10-24T08:52:06Z</time>
      </trkpt>
      <trkpt lat="48.06698" lon="6.86068">
        <ele>593.6</ele>
        <time>2020-10-24T08:52:07Z</time>
      </trkpt>
      <trkpt lat="48.06698" lon="6.86067">
        <ele>593.6</ele>
        <time>2020-10-24T08:52:08Z</time>
      </trkpt>
      <trkpt lat="48.06697" lon="6.86066">
        <ele>593.8</ele>
        <time>2020-10-24T08:52:09Z</time>
      </trkpt>
      <trkpt lat="48.06696" lon="6.86064">
        <ele>594</ele>
        <time>2020-10-24T08:52:10Z</time>
      </trkpt>
      <trkpt lat="48.06695" lon="6.86063">
        <ele>593.8</ele>
        <time>2020-10-24T08:52:11Z</time>
      </trkpt>
      <trkpt lat="48.06695" lon="6.86062">
        <ele>593.8</ele>
        <time>2020-10-24T08:52:12Z</time>
      </trkpt>
      <trkpt lat="48.06694" lon="6.86061">
        <ele>594</ele>
        <time>2020-10-24T08:52:13Z</time>
      </trkpt>
      <trkpt lat="48.06692" lon="6.86059">
        <ele>594.2</ele>
        <time>2020-10-24T08:52:14Z</time>
      </trkpt>
      <trkpt lat="48.0669" lon="6.86057">
        <ele>594.4</ele>
        <time>2020-10-24T08:52:15Z</time>
      </trkpt>
      <trkpt lat="48.06689" lon="6.86055">
        <ele>594.4</ele>
        <time>2020-10-24T08:52:16Z</time>
      </trkpt>
      <trkpt lat="48.06689" lon="6.86054">
        <ele>594.4</ele>
        <time>2020-10-24T08:52:17Z</time>
      </trkpt>
      <trkpt lat="48.06687" lon="6.86051">
        <ele>594.6</ele>
        <time>2020-10-24T08:52:18Z</time>
      </trkpt>
      <trkpt lat="48.06686" lon="6.86051">
        <ele>594.8</ele>
        <time>2020-10-24T08:52:19Z</time>
      </trkpt>
      <trkpt lat="48.06685" lon="6.8605">
        <ele>594.8</ele>
        <time>2020-10-24T08:52:20Z</time>
      </trkpt>
      <trkpt lat="48.06684" lon="6.86049">
        <ele>595</ele>
        <time>2020-10-24T08:52:21Z</time>
      </trkpt>
      <trkpt lat="48.06684" lon="6.86048">
        <ele>595.2</ele>
        <time>2020-10-24T08:52:22Z</time>
      </trkpt>
      <trkpt lat="48.06672" lon="6.86012">
        <ele>598</ele>
        <time>2020-10-24T08:53:07Z</time>
      </trkpt>
      <trkpt lat="48.06672" lon="6.86011">
        <ele>598</ele>
        <time>2020-10-24T08:53:08Z</time>
      </trkpt>
      <trkpt lat="48.06672" lon="6.86009">
        <ele>598.2</ele>
        <time>2020-10-24T08:53:09Z</time>
      </trkpt>
      <trkpt lat="48.06671" lon="6.86007">
        <ele>598.2</ele>
        <time>2020-10-24T08:53:10Z</time>
      </trkpt>
      <trkpt lat="48.06671" lon="6.86006">
        <ele>598.2</ele>
        <time>2020-10-24T08:53:11Z</time>
      </trkpt>
      <trkpt lat="48.06671" lon="6.86004">
        <ele>598.2</ele>
        <time>2020-10-24T08:53:12Z</time>
      </trkpt>
      <trkpt lat="48.06671" lon="6.86002">
        <ele>598.4</ele>
        <time>2020-10-24T08:53:13Z</time>
      </trkpt>
      <trkpt lat="48.06671" lon="6.86">
        <ele>598.6</ele>
        <time>2020-10-24T08:53:14Z</time>
      </trkpt>
      <trkpt lat="48.0667" lon="6.85998">
        <ele>598.6</ele>
        <time>2020-10-24T08:53:15Z</time>
      </trkpt>
      <trkpt lat="48.06671" lon="6.85998">
        <ele>598.6</ele>
        <time>2020-10-24T08:53:16Z</time>
      </trkpt>
      <trkpt lat="48.0667" lon="6.85997">
        <ele>598.8</ele>
        <time>2020-10-24T08:53:17Z</time>
      </trkpt>
      <trkpt lat="48.0667" lon="6.85995">
        <ele>599</ele>
        <time>2020-10-24T08:53:18Z</time>
      </trkpt>
      <trkpt lat="48.0667" lon="6.85993">
        <ele>598.8</ele>
        <time>2020-10-24T08:53:19Z</time>
      </trkpt>
      <trkpt lat="48.0667" lon="6.85992">
        <ele>598.6</ele>
        <time>2020-10-24T08:53:20Z</time>
      </trkpt>
      <trkpt lat="48.06669" lon="6.8599">
        <ele>598.8</ele>
        <time>2020-10-24T08:53:21Z</time>
      </trkpt>
      <trkpt lat="48.06669" lon="6.85988">
        <ele>598.8</ele>
        <time>2020-10-24T08:53:22Z</time>
      </trkpt>
      <trkpt lat="48.06669" lon="6.85987">
        <ele>598.8</ele>
        <time>2020-10-24T08:53:23Z</time>
      </trkpt>
      <trkpt lat="48.06668" lon="6.85986">
        <ele>598.8</ele>
        <time>2020-10-24T08:53:24Z</time>
      </trkpt>
      <trkpt lat="48.06668" lon="6.85984">
        <ele>599</ele>
        <time>2020-10-24T08:53:25Z</time>
      </trkpt>
      <trkpt lat="48.06668" lon="6.85983">
        <ele>598.8</ele>
        <time>2020-10-24T08:53:26Z</time>
      </trkpt>
      <trkpt lat="48.06667" lon="6.85982">
        <ele>598.6</ele>
        <time>2020-10-24T08:53:27Z</time>
      </trkpt>
      <trkpt lat="48.06667" lon="6.8598">
        <ele>598.8</ele>
        <time>2020-10-24T08:53:28Z</time>
      </trkpt>
      <trkpt lat="48.06666" lon="6.85979">
        <ele>599</ele>
        <time>2020-10-24T08:53:29Z</time>
      </trkpt>
      <trkpt lat="48.06666" lon="6.85979">
        <ele>599</ele>
        <time>2020-10-24T08:53:30Z</time>
      </trkpt>
      <trkpt lat="48.06666" lon="6.85978">
        <ele>598.8</ele>
        <time>2020-10-24T08:53:31Z</time>
      </trkpt>
      <trkpt lat="48.06665" lon="6.85976">
        <ele>599</ele>
        <time>2020-10-24T08:53:32Z</time>
      </trkpt>
      <trkpt lat="48.06665" lon="6.85975">
        <ele>599</ele>
        <time>2020-10-24T08:53:33Z</time>
      </trkpt>
      <trkpt lat="48.0666" lon="6.85965">
        <ele>598.6</ele>
        <time>2020-10-24T08:53:39Z</time>
      </trkpt>
      <trkpt lat="48.06659" lon="6.85964">
        <ele>598.6</ele>
        <time>2020-10-24T08:53:40Z</time>
      </trkpt>
      <trkpt lat="48.06659" lon="6.85964">
        <ele>598.6</ele>
        <time>2020-10-24T08:53:41Z</time>
      </trkpt>
      <trkpt lat="48.06658" lon="6.85963">
        <ele>598.6</ele>
        <time>2020-10-24T08:53:42Z</time>
      </trkpt>
      <trkpt lat="48.06657" lon="6.85961">
        <ele>598.8</ele>
        <time>2020-10-24T08:53:43Z</time>
      </trkpt>
      <trkpt lat="48.06656" lon="6.8596">
        <ele>599</ele>
        <time>2020-10-24T08:53:44Z</time>
      </trkpt>
      <trkpt lat="48.06656" lon="6.85958">
        <ele>599</ele>
        <time>2020-10-24T08:53:45Z</time>
      </trkpt>
      <trkpt lat="48.06652" lon="6.85951">
        <ele>598.8</ele>
        <time>2020-10-24T08:53:50Z</time>
      </trkpt>
      <trkpt lat="48.06651" lon="6.85951">
        <ele>598.8</ele>
        <time>2020-10-24T08:53:51Z</time>
      </trkpt>
      <trkpt lat="48.0665" lon="6.8595">
        <ele>598.8</ele>
        <time>2020-10-24T08:53:52Z</time>
      </trkpt>
      <trkpt lat="48.06649" lon="6.85947">
        <ele>598.8</ele>
        <time>2020-10-24T08:53:53Z</time>
      </trkpt>
      <trkpt lat="48.06647" lon="6.85946">
        <ele>598.8</ele>
        <time>2020-10-24T08:53:54Z</time>
      </trkpt>
      <trkpt lat="48.06646" lon="6.85945">
        <ele>598.6</ele>
        <time>2020-10-24T08:53:55Z</time>
      </trkpt>
      <trkpt lat="48.06645" lon="6.85944">
        <ele>598.8</ele>
        <time>2020-10-24T08:53:56Z</time>
      </trkpt>
      <trkpt lat="48.06644" lon="6.85943">
        <ele>598.6</ele>
        <time>2020-10-24T08:53:57Z</time>
      </trkpt>
      <trkpt lat="48.06643" lon="6.85942">
        <ele>598.4</ele>
        <time>2020-10-24T08:53:58Z</time>
      </trkpt>
      <trkpt lat="48.06642" lon="6.85941">
        <ele>598.4</ele>
        <time>2020-10-24T08:53:59Z</time>
      </trkpt>
      <trkpt lat="48.06641" lon="6.8594">
        <ele>598.4</ele>
        <time>2020-10-24T08:54:00Z</time>
      </trkpt>
      <trkpt lat="48.0664" lon="6.85939">
        <ele>598.6</ele>
        <time>2020-10-24T08:54:01Z</time>
      </trkpt>
      <trkpt lat="48.06639" lon="6.85939">
        <ele>598.6</ele>
        <time>2020-10-24T08:54:02Z</time>
      </trkpt>
      <trkpt lat="48.06638" lon="6.85939">
        <ele>598.8</ele>
        <time>2020-10-24T08:54:03Z</time>
      </trkpt>
      <trkpt lat="48.06637" lon="6.85937">
        <ele>598.6</ele>
        <time>2020-10-24T08:54:04Z</time>
      </trkpt>
      <trkpt lat="48.06635" lon="6.85936">
        <ele>598.6</ele>
        <time>2020-10-24T08:54:05Z</time>
      </trkpt>
      <trkpt lat="48.06634" lon="6.85936">
        <ele>598.6</ele>
        <time>2020-10-24T08:54:06Z</time>
      </trkpt>
      <trkpt lat="48.06633" lon="6.85935">
        <ele>598.6</ele>
        <time>2020-10-24T08:54:07Z</time>
      </trkpt>
      <trkpt lat="48.06632" lon="6.85934">
        <ele>598.4</ele>
        <time>2020-10-24T08:54:08Z</time>
      </trkpt>
      <trkpt lat="48.06631" lon="6.85933">
        <ele>598.4</ele>
        <time>2020-10-24T08:54:09Z</time>
      </trkpt>
      <trkpt lat="48.06629" lon="6.8593">
        <ele>598.2</ele>
        <time>2020-10-24T08:54:10Z</time>
      </trkpt>
      <trkpt lat="48.06629" lon="6.8593">
        <ele>597.8</ele>
        <time>2020-10-24T08:54:11Z</time>
      </trkpt>
      <trkpt lat="48.06627" lon="6.85928">
        <ele>597.6</ele>
        <time>2020-10-24T08:54:12Z</time>
      </trkpt>
      <trkpt lat="48.06626" lon="6.85927">
        <ele>597.6</ele>
        <time>2020-10-24T08:54:13Z</time>
      </trkpt>
      <trkpt lat="48.06625" lon="6.85926">
        <ele>597.6</ele>
        <time>2020-10-24T08:54:14Z</time>
      </trkpt>
      <trkpt lat="48.06624" lon="6.85925">
        <ele>597.6</ele>
        <time>2020-10-24T08:54:15Z</time>
      </trkpt>
      <trkpt lat="48.06617" lon="6.85914">
        <ele>597</ele>
        <time>2020-10-24T08:54:23Z</time>
      </trkpt>
      <trkpt lat="48.06616" lon="6.85912">
        <ele>596.6</ele>
        <time>2020-10-24T08:54:24Z</time>
      </trkpt>
      <trkpt lat="48.06616" lon="6.8591">
        <ele>596.4</ele>
        <time>2020-10-24T08:54:25Z</time>
      </trkpt>
      <trkpt lat="48.06615" lon="6.85907">
        <ele>596.6</ele>
        <time>2020-10-24T08:54:26Z</time>
      </trkpt>
      <trkpt lat="48.06615" lon="6.85904">
        <ele>596.4</ele>
        <time>2020-10-24T08:54:27Z</time>
      </trkpt>
      <trkpt lat="48.06614" lon="6.85901">
        <ele>596</ele>
        <time>2020-10-24T08:54:28Z</time>
      </trkpt>
      <trkpt lat="48.06613" lon="6.85898">
        <ele>595.6</ele>
        <time>2020-10-24T08:54:29Z</time>
      </trkpt>
      <trkpt lat="48.06613" lon="6.85896">
        <ele>595.2</ele>
        <time>2020-10-24T08:54:30Z</time>
      </trkpt>
      <trkpt lat="48.06612" lon="6.85893">
        <ele>594.8</ele>
        <time>2020-10-24T08:54:31Z</time>
      </trkpt>
      <trkpt lat="48.06612" lon="6.85891">
        <ele>594.6</ele>
        <time>2020-10-24T08:54:32Z</time>
      </trkpt>
      <trkpt lat="48.06611" lon="6.85889">
        <ele>594.2</ele>
        <time>2020-10-24T08:54:33Z</time>
      </trkpt>
      <trkpt lat="48.06611" lon="6.85886">
        <ele>594.2</ele>
        <time>2020-10-24T08:54:34Z</time>
      </trkpt>
      <trkpt lat="48.06611" lon="6.85884">
        <ele>594</ele>
        <time>2020-10-24T08:54:35Z</time>
      </trkpt>
      <trkpt lat="48.06611" lon="6.85881">
        <ele>593.8</ele>
        <time>2020-10-24T08:54:36Z</time>
      </trkpt>
      <trkpt lat="48.0661" lon="6.85879">
        <ele>593.6</ele>
        <time>2020-10-24T08:54:37Z</time>
      </trkpt>
      <trkpt lat="48.0661" lon="6.85876">
        <ele>593.6</ele>
        <time>2020-10-24T08:54:38Z</time>
      </trkpt>
      <trkpt lat="48.06609" lon="6.85873">
        <ele>593.6</ele>
        <time>2020-10-24T08:54:39Z</time>
      </trkpt>
      <trkpt lat="48.06609" lon="6.85871">
        <ele>593.8</ele>
        <time>2020-10-24T08:54:40Z</time>
      </trkpt>
      <trkpt lat="48.06609" lon="6.85869">
        <ele>593.6</ele>
        <time>2020-10-24T08:54:41Z</time>
      </trkpt>
      <trkpt lat="48.06608" lon="6.85867">
        <ele>593.6</ele>
        <time>2020-10-24T08:54:42Z</time>
      </trkpt>
      <trkpt lat="48.06608" lon="6.85865">
        <ele>593.6</ele>
        <time>2020-10-24T08:54:43Z</time>
      </trkpt>
      <trkpt lat="48.06607" lon="6.85863">
        <ele>593.6</ele>
        <time>2020-10-24T08:54:44Z</time>
      </trkpt>
      <trkpt lat="48.06607" lon="6.85861">
        <ele>593.6</ele>
        <time>2020-10-24T08:54:45Z</time>
      </trkpt>
      <trkpt lat="48.06607" lon="6.85859">
        <ele>593.6</ele>
        <time>2020-10-24T08:54:46Z</time>
      </trkpt>
      <trkpt lat="48.06606" lon="6.85858">
        <ele>593.6</ele>
        <time>2020-10-24T08:54:47Z</time>
      </trkpt>
      <trkpt lat="48.06605" lon="6.85855">
        <ele>593.6</ele>
        <time>2020-10-24T08:54:48Z</time>
      </trkpt>
      <trkpt lat="48.06605" lon="6.85854">
        <ele>593.6</ele>
        <time>2020-10-24T08:54:49Z</time>
      </trkpt>
      <trkpt lat="48.06605" lon="6.85852">
        <ele>593.6</ele>
        <time>2020-10-24T08:54:50Z</time>
      </trkpt>
      <trkpt lat="48.06604" lon="6.8585">
        <ele>593.6</ele>
        <time>2020-10-24T08:54:51Z</time>
      </trkpt>
      <trkpt lat="48.06604" lon="6.85848">
        <ele>593.4</ele>
        <time>2020-10-24T08:54:52Z</time>
      </trkpt>
      <trkpt lat="48.06604" lon="6.85847">
        <ele>593.2</ele>
        <time>2020-10-24T08:54:53Z</time>
      </trkpt>
      <trkpt lat="48.06604" lon="6.85846">
        <ele>593</ele>
        <time>2020-10-24T08:54:54Z</time>
      </trkpt>
      <trkpt lat="48.06603" lon="6.85844">
        <ele>593</ele>
        <time>2020-10-24T08:54:55Z</time>
      </trkpt>
      <trkpt lat="48.06603" lon="6.85842">
        <ele>593</ele>
        <time>2020-10-24T08:54:56Z</time>
      </trkpt>
      <trkpt lat="48.06602" lon="6.85839">
        <ele>593.2</ele>
        <time>2020-10-24T08:54:57Z</time>
      </trkpt>
      <trkpt lat="48.06602" lon="6.85837">
        <ele>593.4</ele>
        <time>2020-10-24T08:54:58Z</time>
      </trkpt>
      <trkpt lat="48.06601" lon="6.85835">
        <ele>593.2</ele>
        <time>2020-10-24T08:54:59Z</time>
      </trkpt>
      <trkpt lat="48.066" lon="6.85832">
        <ele>593.2</ele>
        <time>2020-10-24T08:55:00Z</time>
      </trkpt>
      <trkpt lat="48.066" lon="6.8583">
        <ele>593.4</ele>
        <time>2020-10-24T08:55:01Z</time>
      </trkpt>
      <trkpt lat="48.06599" lon="6.85828">
        <ele>593.2</ele>
        <time>2020-10-24T08:55:02Z</time>
      </trkpt>
      <trkpt lat="48.06599" lon="6.85827">
        <ele>593.2</ele>
        <time>2020-10-24T08:55:03Z</time>
      </trkpt>
      <trkpt lat="48.06599" lon="6.85825">
        <ele>593.2</ele>
        <time>2020-10-24T08:55:04Z</time>
      </trkpt>
      <trkpt lat="48.06598" lon="6.85822">
        <ele>593.2</ele>
        <time>2020-10-24T08:55:05Z</time>
      </trkpt>
      <trkpt lat="48.06598" lon="6.8582">
        <ele>593.4</ele>
        <time>2020-10-24T08:55:06Z</time>
      </trkpt>
      <trkpt lat="48.06598" lon="6.85819">
        <ele>593.4</ele>
        <time>2020-10-24T08:55:07Z</time>
      </trkpt>
      <trkpt lat="48.06597" lon="6.85818">
        <ele>593.4</ele>
        <time>2020-10-24T08:55:08Z</time>
      </trkpt>
      <trkpt lat="48.06597" lon="6.85816">
        <ele>593.2</ele>
        <time>2020-10-24T08:55:09Z</time>
      </trkpt>
      <trkpt lat="48.06597" lon="6.85815">
        <ele>593.2</ele>
        <time>2020-10-24T08:55:10Z</time>
      </trkpt>
      <trkpt lat="48.06596" lon="6.85812">
        <ele>593.2</ele>
        <time>2020-10-24T08:55:11Z</time>
      </trkpt>
      <trkpt lat="48.06596" lon="6.8581">
        <ele>593.2</ele>
        <time>2020-10-24T08:55:12Z</time>
      </trkpt>
      <trkpt lat="48.06595" lon="6.85809">
        <ele>593.2</ele>
        <time>2020-10-24T08:55:13Z</time>
      </trkpt>
      <trkpt lat="48.06595" lon="6.85808">
        <ele>593.2</ele>
        <time>2020-10-24T08:55:14Z</time>
      </trkpt>
      <trkpt lat="48.06595" lon="6.85806">
        <ele>593.4</ele>
        <time>2020-10-24T08:55:15Z</time>
      </trkpt>
      <trkpt lat="48.06595" lon="6.85804">
        <ele>593.4</ele>
        <time>2020-10-24T08:55:16Z</time>
      </trkpt>
      <trkpt lat="48.06593" lon="6.85782">
        <ele>593.4</ele>
        <time>2020-10-24T08:55:26Z</time>
      </trkpt>
      <trkpt lat="48.06592" lon="6.8578">
        <ele>593.2</ele>
        <time>2020-10-24T08:55:27Z</time>
      </trkpt>
      <trkpt lat="48.06591" lon="6.85778">
        <ele>593.4</ele>
        <time>2020-10-24T08:55:28Z</time>
      </trkpt>
      <trkpt lat="48.0659" lon="6.85777">
        <ele>593.4</ele>
        <time>2020-10-24T08:55:29Z</time>
      </trkpt>
      <trkpt lat="48.0659" lon="6.85776">
        <ele>593.6</ele>
        <time>2020-10-24T08:55:30Z</time>
      </trkpt>
      <trkpt lat="48.0659" lon="6.85775">
        <ele>593.4</ele>
        <time>2020-10-24T08:55:31Z</time>
      </trkpt>
      <trkpt lat="48.06587" lon="6.85771">
        <ele>592.8</ele>
        <time>2020-10-24T08:55:32Z</time>
      </trkpt>
      <trkpt lat="48.06585" lon="6.85769">
        <ele>587.8</ele>
        <time>2020-10-24T08:55:33Z</time>
      </trkpt>
      <trkpt lat="48.06584" lon="6.85768">
        <ele>584.2</ele>
        <time>2020-10-24T08:55:34Z</time>
      </trkpt>
      <trkpt lat="48.06583" lon="6.85767">
        <ele>586.6</ele>
        <time>2020-10-24T08:55:35Z</time>
      </trkpt>
      <trkpt lat="48.06583" lon="6.85767">
        <ele>591</ele>
        <time>2020-10-24T08:55:36Z</time>
      </trkpt>
      <trkpt lat="48.06583" lon="6.85766">
        <ele>593.8</ele>
        <time>2020-10-24T08:55:37Z</time>
      </trkpt>
      <trkpt lat="48.06583" lon="6.85766">
        <ele>594.8</ele>
        <time>2020-10-24T08:55:38Z</time>
      </trkpt>
      <trkpt lat="48.06582" lon="6.85766">
        <ele>594.4</ele>
        <time>2020-10-24T08:55:39Z</time>
      </trkpt>
      <trkpt lat="48.06582" lon="6.85768">
        <ele>593.8</ele>
        <time>2020-10-24T08:55:40Z</time>
      </trkpt>
      <trkpt lat="48.06583" lon="6.85767">
        <ele>593.6</ele>
        <time>2020-10-24T08:55:41Z</time>
      </trkpt>
      <trkpt lat="48.06583" lon="6.85747">
        <ele>593.8</ele>
        <time>2020-10-24T08:56:49Z</time>
      </trkpt>
      <trkpt lat="48.06583" lon="6.85744">
        <ele>594</ele>
        <time>2020-10-24T08:56:50Z</time>
      </trkpt>
      <trkpt lat="48.06582" lon="6.85742">
        <ele>593.8</ele>
        <time>2020-10-24T08:56:51Z</time>
      </trkpt>
      <trkpt lat="48.06582" lon="6.85741">
        <ele>593.4</ele>
        <time>2020-10-24T08:56:52Z</time>
      </trkpt>
      <trkpt lat="48.06581" lon="6.85739">
        <ele>593.4</ele>
        <time>2020-10-24T08:56:53Z</time>
      </trkpt>
      <trkpt lat="48.0658" lon="6.85738">
        <ele>593.8</ele>
        <time>2020-10-24T08:56:54Z</time>
      </trkpt>
      <trkpt lat="48.06579" lon="6.85737">
        <ele>594</ele>
        <time>2020-10-24T08:56:55Z</time>
      </trkpt>
      <trkpt lat="48.06579" lon="6.85736">
        <ele>593.6</ele>
        <time>2020-10-24T08:56:56Z</time>
      </trkpt>
      <trkpt lat="48.06578" lon="6.85734">
        <ele>593.2</ele>
        <time>2020-10-24T08:56:57Z</time>
      </trkpt>
      <trkpt lat="48.06578" lon="6.85733">
        <ele>593</ele>
        <time>2020-10-24T08:56:58Z</time>
      </trkpt>
      <trkpt lat="48.06577" lon="6.85731">
        <ele>593.4</ele>
        <time>2020-10-24T08:56:59Z</time>
      </trkpt>
      <trkpt lat="48.06577" lon="6.8573">
        <ele>593.6</ele>
        <time>2020-10-24T08:57:00Z</time>
      </trkpt>
      <trkpt lat="48.06576" lon="6.85729">
        <ele>593.4</ele>
        <time>2020-10-24T08:57:01Z</time>
      </trkpt>
      <trkpt lat="48.06576" lon="6.85727">
        <ele>593.4</ele>
        <time>2020-10-24T08:57:02Z</time>
      </trkpt>
      <trkpt lat="48.06575" lon="6.85725">
        <ele>593.2</ele>
        <time>2020-10-24T08:57:03Z</time>
      </trkpt>
      <trkpt lat="48.06575" lon="6.85724">
        <ele>593.4</ele>
        <time>2020-10-24T08:57:04Z</time>
      </trkpt>
      <trkpt lat="48.06574" lon="6.85722">
        <ele>593.4</ele>
        <time>2020-10-24T08:57:05Z</time>
      </trkpt>
      <trkpt lat="48.06574" lon="6.8572">
        <ele>593.4</ele>
        <time>2020-10-24T08:57:06Z</time>
      </trkpt>
      <trkpt lat="48.06573" lon="6.85719">
        <ele>593.2</ele>
        <time>2020-10-24T08:57:07Z</time>
      </trkpt>
      <trkpt lat="48.06573" lon="6.85716">
        <ele>593</ele>
        <time>2020-10-24T08:57:08Z</time>
      </trkpt>
      <trkpt lat="48.06573" lon="6.85714">
        <ele>593</ele>
        <time>2020-10-24T08:57:09Z</time>
      </trkpt>
      <trkpt lat="48.06573" lon="6.85712">
        <ele>593</ele>
        <time>2020-10-24T08:57:10Z</time>
      </trkpt>
      <trkpt lat="48.06572" lon="6.8571">
        <ele>593</ele>
        <time>2020-10-24T08:57:11Z</time>
      </trkpt>
      <trkpt lat="48.06572" lon="6.85709">
        <ele>593.2</ele>
        <time>2020-10-24T08:57:12Z</time>
      </trkpt>
      <trkpt lat="48.06571" lon="6.85707">
        <ele>593</ele>
        <time>2020-10-24T08:57:13Z</time>
      </trkpt>
      <trkpt lat="48.0657" lon="6.85704">
        <ele>593</ele>
        <time>2020-10-24T08:57:14Z</time>
      </trkpt>
      <trkpt lat="48.06569" lon="6.85702">
        <ele>592.8</ele>
        <time>2020-10-24T08:57:15Z</time>
      </trkpt>
      <trkpt lat="48.06569" lon="6.857">
        <ele>592.8</ele>
        <time>2020-10-24T08:57:16Z</time>
      </trkpt>
      <trkpt lat="48.06568" lon="6.85698">
        <ele>592.8</ele>
        <time>2020-10-24T08:57:17Z</time>
      </trkpt>
      <trkpt lat="48.06568" lon="6.85697">
        <ele>592.8</ele>
        <time>2020-10-24T08:57:18Z</time>
      </trkpt>
      <trkpt lat="48.06567" lon="6.85694">
        <ele>593</ele>
        <time>2020-10-24T08:57:19Z</time>
      </trkpt>
      <trkpt lat="48.06566" lon="6.85692">
        <ele>593</ele>
        <time>2020-10-24T08:57:20Z</time>
      </trkpt>
      <trkpt lat="48.06566" lon="6.85691">
        <ele>593.4</ele>
        <time>2020-10-24T08:57:21Z</time>
      </trkpt>
      <trkpt lat="48.06565" lon="6.8569">
        <ele>593.4</ele>
        <time>2020-10-24T08:57:22Z</time>
      </trkpt>
      <trkpt lat="48.06565" lon="6.85689">
        <ele>593.4</ele>
        <time>2020-10-24T08:57:23Z</time>
      </trkpt>
      <trkpt lat="48.06564" lon="6.85689">
        <ele>593.6</ele>
        <time>2020-10-24T08:57:24Z</time>
      </trkpt>
      <trkpt lat="48.06563" lon="6.85687">
        <ele>593.6</ele>
        <time>2020-10-24T08:57:25Z</time>
      </trkpt>
      <trkpt lat="48.06563" lon="6.85686">
        <ele>593.4</ele>
        <time>2020-10-24T08:57:26Z</time>
      </trkpt>
      <trkpt lat="48.06562" lon="6.85684">
        <ele>593.6</ele>
        <time>2020-10-24T08:57:27Z</time>
      </trkpt>
      <trkpt lat="48.06561" lon="6.85682">
        <ele>593.8</ele>
        <time>2020-10-24T08:57:28Z</time>
      </trkpt>
      <trkpt lat="48.06561" lon="6.8568">
        <ele>593.8</ele>
        <time>2020-10-24T08:57:29Z</time>
      </trkpt>
      <trkpt lat="48.06561" lon="6.85679">
        <ele>593.8</ele>
        <time>2020-10-24T08:57:30Z</time>
      </trkpt>
      <trkpt lat="48.0656" lon="6.85678">
        <ele>593.8</ele>
        <time>2020-10-24T08:57:31Z</time>
      </trkpt>
      <trkpt lat="48.0656" lon="6.85676">
        <ele>593.8</ele>
        <time>2020-10-24T08:57:32Z</time>
      </trkpt>
      <trkpt lat="48.06559" lon="6.85674">
        <ele>593.8</ele>
        <time>2020-10-24T08:57:33Z</time>
      </trkpt>
      <trkpt lat="48.06558" lon="6.85671">
        <ele>593.8</ele>
        <time>2020-10-24T08:57:34Z</time>
      </trkpt>
      <trkpt lat="48.06557" lon="6.85669">
        <ele>594</ele>
        <time>2020-10-24T08:57:35Z</time>
      </trkpt>
      <trkpt lat="48.06556" lon="6.85667">
        <ele>594.2</ele>
        <time>2020-10-24T08:57:36Z</time>
      </trkpt>
      <trkpt lat="48.06555" lon="6.85665">
        <ele>594.2</ele>
        <time>2020-10-24T08:57:37Z</time>
      </trkpt>
      <trkpt lat="48.06555" lon="6.85664">
        <ele>594.2</ele>
        <time>2020-10-24T08:57:38Z</time>
      </trkpt>
      <trkpt lat="48.06555" lon="6.85664">
        <ele>594.2</ele>
        <time>2020-10-24T08:57:39Z</time>
      </trkpt>
      <trkpt lat="48.06554" lon="6.85662">
        <ele>594.2</ele>
        <time>2020-10-24T08:57:40Z</time>
      </trkpt>
      <trkpt lat="48.06553" lon="6.8566">
        <ele>594.2</ele>
        <time>2020-10-24T08:57:41Z</time>
      </trkpt>
      <trkpt lat="48.06553" lon="6.8566">
        <ele>594.2</ele>
        <time>2020-10-24T08:57:42Z</time>
      </trkpt>
      <trkpt lat="48.06543" lon="6.85634">
        <ele>594.4</ele>
        <time>2020-10-24T08:57:55Z</time>
      </trkpt>
      <trkpt lat="48.06542" lon="6.85632">
        <ele>594.2</ele>
        <time>2020-10-24T08:57:56Z</time>
      </trkpt>
      <trkpt lat="48.06541" lon="6.8563">
        <ele>594.4</ele>
        <time>2020-10-24T08:57:57Z</time>
      </trkpt>
      <trkpt lat="48.0654" lon="6.85628">
        <ele>594.4</ele>
        <time>2020-10-24T08:57:58Z</time>
      </trkpt>
      <trkpt lat="48.0654" lon="6.85627">
        <ele>594.4</ele>
        <time>2020-10-24T08:57:59Z</time>
      </trkpt>
      <trkpt lat="48.06539" lon="6.85625">
        <ele>594.4</ele>
        <time>2020-10-24T08:58:00Z</time>
      </trkpt>
      <trkpt lat="48.06539" lon="6.85625">
        <ele>594.2</ele>
        <time>2020-10-24T08:58:01Z</time>
      </trkpt>
      <trkpt lat="48.06538" lon="6.85623">
        <ele>594.2</ele>
        <time>2020-10-24T08:58:02Z</time>
      </trkpt>
      <trkpt lat="48.06537" lon="6.85622">
        <ele>594.2</ele>
        <time>2020-10-24T08:58:03Z</time>
      </trkpt>
      <trkpt lat="48.06533" lon="6.85614">
        <ele>594.4</ele>
        <time>2020-10-24T08:58:08Z</time>
      </trkpt>
      <trkpt lat="48.06532" lon="6.8561">
        <ele>594.2</ele>
        <time>2020-10-24T08:58:09Z</time>
      </trkpt>
      <trkpt lat="48.06532" lon="6.85607">
        <ele>594.2</ele>
        <time>2020-10-24T08:58:10Z</time>
      </trkpt>
      <trkpt lat="48.0653" lon="6.85604">
        <ele>594.2</ele>
        <time>2020-10-24T08:58:11Z</time>
      </trkpt>
      <trkpt lat="48.06529" lon="6.85601">
        <ele>594.2</ele>
        <time>2020-10-24T08:58:12Z</time>
      </trkpt>
      <trkpt lat="48.06529" lon="6.85599">
        <ele>594.2</ele>
        <time>2020-10-24T08:58:13Z</time>
      </trkpt>
      <trkpt lat="48.06529" lon="6.85597">
        <ele>594.2</ele>
        <time>2020-10-24T08:58:14Z</time>
      </trkpt>
      <trkpt lat="48.06527" lon="6.85595">
        <ele>594.2</ele>
        <time>2020-10-24T08:58:15Z</time>
      </trkpt>
      <trkpt lat="48.06526" lon="6.85593">
        <ele>594.2</ele>
        <time>2020-10-24T08:58:16Z</time>
      </trkpt>
      <trkpt lat="48.06526" lon="6.85591">
        <ele>594.4</ele>
        <time>2020-10-24T08:58:17Z</time>
      </trkpt>
      <trkpt lat="48.06525" lon="6.85589">
        <ele>594.4</ele>
        <time>2020-10-24T08:58:18Z</time>
      </trkpt>
      <trkpt lat="48.06525" lon="6.85587">
        <ele>594.4</ele>
        <time>2020-10-24T08:58:19Z</time>
      </trkpt>
      <trkpt lat="48.06524" lon="6.85584">
        <ele>594.2</ele>
        <time>2020-10-24T08:58:20Z</time>
      </trkpt>
      <trkpt lat="48.06523" lon="6.85582">
        <ele>594.2</ele>
        <time>2020-10-24T08:58:21Z</time>
      </trkpt>
      <trkpt lat="48.06523" lon="6.85581">
        <ele>594.2</ele>
        <time>2020-10-24T08:58:22Z</time>
      </trkpt>
      <trkpt lat="48.06522" lon="6.85579">
        <ele>594.4</ele>
        <time>2020-10-24T08:58:23Z</time>
      </trkpt>
      <trkpt lat="48.06522" lon="6.85578">
        <ele>594.4</ele>
        <time>2020-10-24T08:58:24Z</time>
      </trkpt>
      <trkpt lat="48.06522" lon="6.85577">
        <ele>594.4</ele>
        <time>2020-10-24T08:58:25Z</time>
      </trkpt>
      <trkpt lat="48.06522" lon="6.85575">
        <ele>594.6</ele>
        <time>2020-10-24T08:58:26Z</time>
      </trkpt>
      <trkpt lat="48.06521" lon="6.85573">
        <ele>594.6</ele>
        <time>2020-10-24T08:58:27Z</time>
      </trkpt>
      <trkpt lat="48.06521" lon="6.85571">
        <ele>594.4</ele>
        <time>2020-10-24T08:58:28Z</time>
      </trkpt>
      <trkpt lat="48.06521" lon="6.85569">
        <ele>594.2</ele>
        <time>2020-10-24T08:58:29Z</time>
      </trkpt>
      <trkpt lat="48.0652" lon="6.85567">
        <ele>594.2</ele>
        <time>2020-10-24T08:58:30Z</time>
      </trkpt>
      <trkpt lat="48.0652" lon="6.85566">
        <ele>594.2</ele>
        <time>2020-10-24T08:58:31Z</time>
      </trkpt>
      <trkpt lat="48.0652" lon="6.85564">
        <ele>594</ele>
        <time>2020-10-24T08:58:32Z</time>
      </trkpt>
      <trkpt lat="48.06519" lon="6.85562">
        <ele>594</ele>
        <time>2020-10-24T08:58:33Z</time>
      </trkpt>
      <trkpt lat="48.06519" lon="6.8556">
        <ele>594.2</ele>
        <time>2020-10-24T08:58:34Z</time>
      </trkpt>
      <trkpt lat="48.06519" lon="6.85559">
        <ele>594.4</ele>
        <time>2020-10-24T08:58:35Z</time>
      </trkpt>
      <trkpt lat="48.06519" lon="6.85558">
        <ele>594.4</ele>
        <time>2020-10-24T08:58:36Z</time>
      </trkpt>
      <trkpt lat="48.06519" lon="6.85557">
        <ele>594.4</ele>
        <time>2020-10-24T08:58:37Z</time>
      </trkpt>
      <trkpt lat="48.06518" lon="6.85556">
        <ele>594.2</ele>
        <time>2020-10-24T08:58:38Z</time>
      </trkpt>
      <trkpt lat="48.06518" lon="6.85555">
        <ele>594.2</ele>
        <time>2020-10-24T08:58:39Z</time>
      </trkpt>
      <trkpt lat="48.06518" lon="6.85553">
        <ele>594.2</ele>
        <time>2020-10-24T08:58:40Z</time>
      </trkpt>
      <trkpt lat="48.06516" lon="6.85529">
        <ele>594.2</ele>
        <time>2020-10-24T08:58:51Z</time>
      </trkpt>
      <trkpt lat="48.06516" lon="6.85527">
        <ele>594.2</ele>
        <time>2020-10-24T08:58:52Z</time>
      </trkpt>
      <trkpt lat="48.06515" lon="6.85526">
        <ele>594.2</ele>
        <time>2020-10-24T08:58:53Z</time>
      </trkpt>
      <trkpt lat="48.06515" lon="6.85524">
        <ele>594.2</ele>
        <time>2020-10-24T08:58:54Z</time>
      </trkpt>
      <trkpt lat="48.06514" lon="6.85522">
        <ele>594.2</ele>
        <time>2020-10-24T08:58:55Z</time>
      </trkpt>
      <trkpt lat="48.06514" lon="6.8552">
        <ele>594.2</ele>
        <time>2020-10-24T08:58:56Z</time>
      </trkpt>
      <trkpt lat="48.06509" lon="6.85503">
        <ele>594</ele>
        <time>2020-10-24T08:59:12Z</time>
      </trkpt>
      <trkpt lat="48.06509" lon="6.85499">
        <ele>594</ele>
        <time>2020-10-24T08:59:13Z</time>
      </trkpt>
      <trkpt lat="48.06508" lon="6.85497">
        <ele>593.8</ele>
        <time>2020-10-24T08:59:14Z</time>
      </trkpt>
      <trkpt lat="48.06507" lon="6.85494">
        <ele>593.8</ele>
        <time>2020-10-24T08:59:15Z</time>
      </trkpt>
      <trkpt lat="48.06506" lon="6.85491">
        <ele>593.8</ele>
        <time>2020-10-24T08:59:16Z</time>
      </trkpt>
      <trkpt lat="48.06506" lon="6.85489">
        <ele>593.8</ele>
        <time>2020-10-24T08:59:17Z</time>
      </trkpt>
      <trkpt lat="48.06505" lon="6.85486">
        <ele>593.8</ele>
        <time>2020-10-24T08:59:18Z</time>
      </trkpt>
      <trkpt lat="48.06505" lon="6.85484">
        <ele>593.8</ele>
        <time>2020-10-24T08:59:19Z</time>
      </trkpt>
      <trkpt lat="48.06504" lon="6.85483">
        <ele>594</ele>
        <time>2020-10-24T08:59:20Z</time>
      </trkpt>
      <trkpt lat="48.06504" lon="6.85481">
        <ele>594.2</ele>
        <time>2020-10-24T08:59:21Z</time>
      </trkpt>
      <trkpt lat="48.06503" lon="6.85478">
        <ele>594</ele>
        <time>2020-10-24T08:59:22Z</time>
      </trkpt>
      <trkpt lat="48.06503" lon="6.85476">
        <ele>594</ele>
        <time>2020-10-24T08:59:23Z</time>
      </trkpt>
      <trkpt lat="48.06503" lon="6.85474">
        <ele>594</ele>
        <time>2020-10-24T08:59:24Z</time>
      </trkpt>
      <trkpt lat="48.06503" lon="6.85473">
        <ele>594</ele>
        <time>2020-10-24T08:59:25Z</time>
      </trkpt>
      <trkpt lat="48.06502" lon="6.8547">
        <ele>594</ele>
        <time>2020-10-24T08:59:26Z</time>
      </trkpt>
      <trkpt lat="48.06502" lon="6.85468">
        <ele>593.8</ele>
        <time>2020-10-24T08:59:27Z</time>
      </trkpt>
      <trkpt lat="48.06502" lon="6.85466">
        <ele>594</ele>
        <time>2020-10-24T08:59:28Z</time>
      </trkpt>
      <trkpt lat="48.06501" lon="6.85465">
        <ele>594</ele>
        <time>2020-10-24T08:59:29Z</time>
      </trkpt>
      <trkpt lat="48.06501" lon="6.85464">
        <ele>594</ele>
        <time>2020-10-24T08:59:30Z</time>
      </trkpt>
      <trkpt lat="48.065" lon="6.85461">
        <ele>594</ele>
        <time>2020-10-24T08:59:31Z</time>
      </trkpt>
      <trkpt lat="48.065" lon="6.85459">
        <ele>593.8</ele>
        <time>2020-10-24T08:59:32Z</time>
      </trkpt>
      <trkpt lat="48.06499" lon="6.85458">
        <ele>593.8</ele>
        <time>2020-10-24T08:59:33Z</time>
      </trkpt>
      <trkpt lat="48.06499" lon="6.85456">
        <ele>594</ele>
        <time>2020-10-24T08:59:34Z</time>
      </trkpt>
      <trkpt lat="48.06498" lon="6.85455">
        <ele>594</ele>
        <time>2020-10-24T08:59:35Z</time>
      </trkpt>
      <trkpt lat="48.06498" lon="6.85453">
        <ele>594</ele>
        <time>2020-10-24T08:59:36Z</time>
      </trkpt>
      <trkpt lat="48.06498" lon="6.85451">
        <ele>594.2</ele>
        <time>2020-10-24T08:59:37Z</time>
      </trkpt>
      <trkpt lat="48.06497" lon="6.8545">
        <ele>594.2</ele>
        <time>2020-10-24T08:59:38Z</time>
      </trkpt>
      <trkpt lat="48.06474" lon="6.8527">
        <ele>593.4</ele>
        <time>2020-10-24T09:01:20Z</time>
      </trkpt>
      <trkpt lat="48.06474" lon="6.85268">
        <ele>593.4</ele>
        <time>2020-10-24T09:01:21Z</time>
      </trkpt>
      <trkpt lat="48.06475" lon="6.85267">
        <ele>593.2</ele>
        <time>2020-10-24T09:01:22Z</time>
      </trkpt>
      <trkpt lat="48.06475" lon="6.85264">
        <ele>593.2</ele>
        <time>2020-10-24T09:01:23Z</time>
      </trkpt>
      <trkpt lat="48.06476" lon="6.85263">
        <ele>593.4</ele>
        <time>2020-10-24T09:01:24Z</time>
      </trkpt>
      <trkpt lat="48.06476" lon="6.85261">
        <ele>593.4</ele>
        <time>2020-10-24T09:01:25Z</time>
      </trkpt>
      <trkpt lat="48.06477" lon="6.85259">
        <ele>593.4</ele>
        <time>2020-10-24T09:01:26Z</time>
      </trkpt>
      <trkpt lat="48.06478" lon="6.8526">
        <ele>593.4</ele>
        <time>2020-10-24T09:01:27Z</time>
      </trkpt>
      <trkpt lat="48.06479" lon="6.85261">
        <ele>593.6</ele>
        <time>2020-10-24T09:01:28Z</time>
      </trkpt>
      <trkpt lat="48.0648" lon="6.8526">
        <ele>593.6</ele>
        <time>2020-10-24T09:01:29Z</time>
      </trkpt>
      <trkpt lat="48.06481" lon="6.85259">
        <ele>593.4</ele>
        <time>2020-10-24T09:01:30Z</time>
      </trkpt>
      <trkpt lat="48.06481" lon="6.85256">
        <ele>593.4</ele>
        <time>2020-10-24T09:01:31Z</time>
      </trkpt>
      <trkpt lat="48.06482" lon="6.85254">
        <ele>593.6</ele>
        <time>2020-10-24T09:01:32Z</time>
      </trkpt>
      <trkpt lat="48.06482" lon="6.85253">
        <ele>593.6</ele>
        <time>2020-10-24T09:01:33Z</time>
      </trkpt>
      <trkpt lat="48.06482" lon="6.85252">
        <ele>593.6</ele>
        <time>2020-10-24T09:01:34Z</time>
      </trkpt>
      <trkpt lat="48.06482" lon="6.85247">
        <ele>593.6</ele>
        <time>2020-10-24T09:01:35Z</time>
      </trkpt>
      <trkpt lat="48.06485" lon="6.85232">
        <ele>593.2</ele>
        <time>2020-10-24T09:01:42Z</time>
      </trkpt>
      <trkpt lat="48.06485" lon="6.85229">
        <ele>593.2</ele>
        <time>2020-10-24T09:01:43Z</time>
      </trkpt>
      <trkpt lat="48.06487" lon="6.85228">
        <ele>593.2</ele>
        <time>2020-10-24T09:01:44Z</time>
      </trkpt>
      <trkpt lat="48.06487" lon="6.85227">
        <ele>593.2</ele>
        <time>2020-10-24T09:01:45Z</time>
      </trkpt>
      <trkpt lat="48.06488" lon="6.85225">
        <ele>593.2</ele>
        <time>2020-10-24T09:01:46Z</time>
      </trkpt>
      <trkpt lat="48.06489" lon="6.85223">
        <ele>593.2</ele>
        <time>2020-10-24T09:01:47Z</time>
      </trkpt>
      <trkpt lat="48.0649" lon="6.85222">
        <ele>593.2</ele>
        <time>2020-10-24T09:01:48Z</time>
      </trkpt>
      <trkpt lat="48.0649" lon="6.85219">
        <ele>593.4</ele>
        <time>2020-10-24T09:01:49Z</time>
      </trkpt>
      <trkpt lat="48.06491" lon="6.85217">
        <ele>593.4</ele>
        <time>2020-10-24T09:01:50Z</time>
      </trkpt>
      <trkpt lat="48.06491" lon="6.85215">
        <ele>593.2</ele>
        <time>2020-10-24T09:01:51Z</time>
      </trkpt>
      <trkpt lat="48.06492" lon="6.85213">
        <ele>593</ele>
        <time>2020-10-24T09:01:52Z</time>
      </trkpt>
      <trkpt lat="48.06492" lon="6.85212">
        <ele>593</ele>
        <time>2020-10-24T09:01:53Z</time>
      </trkpt>
      <trkpt lat="48.06492" lon="6.8521">
        <ele>593.2</ele>
        <time>2020-10-24T09:01:54Z</time>
      </trkpt>
      <trkpt lat="48.06493" lon="6.85209">
        <ele>593.2</ele>
        <time>2020-10-24T09:01:55Z</time>
      </trkpt>
      <trkpt lat="48.06494" lon="6.85207">
        <ele>593.2</ele>
        <time>2020-10-24T09:01:56Z</time>
      </trkpt>
      <trkpt lat="48.06494" lon="6.85206">
        <ele>593.2</ele>
        <time>2020-10-24T09:01:57Z</time>
      </trkpt>
      <trkpt lat="48.06495" lon="6.85204">
        <ele>593.4</ele>
        <time>2020-10-24T09:01:58Z</time>
      </trkpt>
      <trkpt lat="48.06496" lon="6.85202">
        <ele>593.4</ele>
        <time>2020-10-24T09:01:59Z</time>
      </trkpt>
      <trkpt lat="48.06496" lon="6.85201">
        <ele>593.6</ele>
        <time>2020-10-24T09:02:00Z</time>
      </trkpt>
      <trkpt lat="48.06497" lon="6.852">
        <ele>593.6</ele>
        <time>2020-10-24T09:02:01Z</time>
      </trkpt>
      <trkpt lat="48.06498" lon="6.85199">
        <ele>593.4</ele>
        <time>2020-10-24T09:02:02Z</time>
      </trkpt>
      <trkpt lat="48.06499" lon="6.85198">
        <ele>593.4</ele>
        <time>2020-10-24T09:02:03Z</time>
      </trkpt>
      <trkpt lat="48.06499" lon="6.85197">
        <ele>593.4</ele>
        <time>2020-10-24T09:02:04Z</time>
      </trkpt>
      <trkpt lat="48.065" lon="6.85196">
        <ele>593.4</ele>
        <time>2020-10-24T09:02:05Z</time>
      </trkpt>
      <trkpt lat="48.06501" lon="6.85195">
        <ele>593.4</ele>
        <time>2020-10-24T09:02:06Z</time>
      </trkpt>
      <trkpt lat="48.06501" lon="6.85193">
        <ele>593.4</ele>
        <time>2020-10-24T09:02:07Z</time>
      </trkpt>
      <trkpt lat="48.06502" lon="6.85191">
        <ele>593.4</ele>
        <time>2020-10-24T09:02:08Z</time>
      </trkpt>
      <trkpt lat="48.06502" lon="6.8519">
        <ele>593.4</ele>
        <time>2020-10-24T09:02:09Z</time>
      </trkpt>
      <trkpt lat="48.06503" lon="6.85188">
        <ele>593.4</ele>
        <time>2020-10-24T09:02:10Z</time>
      </trkpt>
      <trkpt lat="48.06504" lon="6.85186">
        <ele>593.4</ele>
        <time>2020-10-24T09:02:11Z</time>
      </trkpt>
      <trkpt lat="48.06505" lon="6.85184">
        <ele>593.4</ele>
        <time>2020-10-24T09:02:12Z</time>
      </trkpt>
      <trkpt lat="48.06505" lon="6.85183">
        <ele>593.4</ele>
        <time>2020-10-24T09:02:13Z</time>
      </trkpt>
      <trkpt lat="48.06505" lon="6.85182">
        <ele>593.4</ele>
        <time>2020-10-24T09:02:14Z</time>
      </trkpt>
      <trkpt lat="48.06506" lon="6.85181">
        <ele>593.4</ele>
        <time>2020-10-24T09:02:15Z</time>
      </trkpt>
      <trkpt lat="48.06507" lon="6.8518">
        <ele>593.4</ele>
        <time>2020-10-24T09:02:16Z</time>
      </trkpt>
      <trkpt lat="48.06508" lon="6.85179">
        <ele>593.2</ele>
        <time>2020-10-24T09:02:17Z</time>
      </trkpt>
      <trkpt lat="48.06509" lon="6.85178">
        <ele>593.4</ele>
        <time>2020-10-24T09:02:18Z</time>
      </trkpt>
      <trkpt lat="48.0651" lon="6.85177">
        <ele>593.6</ele>
        <time>2020-10-24T09:02:19Z</time>
      </trkpt>
      <trkpt lat="48.0651" lon="6.85176">
        <ele>593.8</ele>
        <time>2020-10-24T09:02:20Z</time>
      </trkpt>
      <trkpt lat="48.06511" lon="6.85174">
        <ele>593.8</ele>
        <time>2020-10-24T09:02:21Z</time>
      </trkpt>
      <trkpt lat="48.06511" lon="6.85173">
        <ele>593.8</ele>
        <time>2020-10-24T09:02:22Z</time>
      </trkpt>
      <trkpt lat="48.06512" lon="6.85172">
        <ele>593.8</ele>
        <time>2020-10-24T09:02:23Z</time>
      </trkpt>
      <trkpt lat="48.06513" lon="6.85171">
        <ele>593.8</ele>
        <time>2020-10-24T09:02:24Z</time>
      </trkpt>
      <trkpt lat="48.06514" lon="6.8517">
        <ele>593.8</ele>
        <time>2020-10-24T09:02:25Z</time>
      </trkpt>
      <trkpt lat="48.06514" lon="6.85169">
        <ele>593.8</ele>
        <time>2020-10-24T09:02:26Z</time>
      </trkpt>
      <trkpt lat="48.06515" lon="6.85168">
        <ele>593.8</ele>
        <time>2020-10-24T09:02:27Z</time>
      </trkpt>
      <trkpt lat="48.06516" lon="6.85167">
        <ele>593.8</ele>
        <time>2020-10-24T09:02:28Z</time>
      </trkpt>
      <trkpt lat="48.06516" lon="6.85165">
        <ele>593.8</ele>
        <time>2020-10-24T09:02:29Z</time>
      </trkpt>
      <trkpt lat="48.06517" lon="6.85164">
        <ele>593.8</ele>
        <time>2020-10-24T09:02:30Z</time>
      </trkpt>
      <trkpt lat="48.06517" lon="6.85162">
        <ele>593.8</ele>
        <time>2020-10-24T09:02:31Z</time>
      </trkpt>
      <trkpt lat="48.06516" lon="6.8516">
        <ele>593.8</ele>
        <time>2020-10-24T09:02:32Z</time>
      </trkpt>
      <trkpt lat="48.06527" lon="6.85136">
        <ele>593.6</ele>
        <time>2020-10-24T09:02:49Z</time>
      </trkpt>
      <trkpt lat="48.06527" lon="6.85134">
        <ele>593.6</ele>
        <time>2020-10-24T09:02:50Z</time>
      </trkpt>
      <trkpt lat="48.06528" lon="6.85132">
        <ele>593.6</ele>
        <time>2020-10-24T09:02:51Z</time>
      </trkpt>
      <trkpt lat="48.0653" lon="6.8513">
        <ele>593.4</ele>
        <time>2020-10-24T09:02:52Z</time>
      </trkpt>
      <trkpt lat="48.06531" lon="6.85129">
        <ele>593.4</ele>
        <time>2020-10-24T09:02:53Z</time>
      </trkpt>
      <trkpt lat="48.06531" lon="6.85128">
        <ele>593.4</ele>
        <time>2020-10-24T09:02:54Z</time>
      </trkpt>
      <trkpt lat="48.06532" lon="6.85127">
        <ele>593.6</ele>
        <time>2020-10-24T09:02:55Z</time>
      </trkpt>
      <trkpt lat="48.06532" lon="6.85126">
        <ele>593.6</ele>
        <time>2020-10-24T09:02:56Z</time>
      </trkpt>
      <trkpt lat="48.06544" lon="6.85077">
        <ele>592</ele>
        <time>2020-10-24T09:03:23Z</time>
      </trkpt>
      <trkpt lat="48.06544" lon="6.85076">
        <ele>592</ele>
        <time>2020-10-24T09:03:24Z</time>
      </trkpt>
      <trkpt lat="48.06545" lon="6.85074">
        <ele>592.2</ele>
        <time>2020-10-24T09:03:25Z</time>
      </trkpt>
      <trkpt lat="48.06546" lon="6.85072">
        <ele>592.2</ele>
        <time>2020-10-24T09:03:26Z</time>
      </trkpt>
      <trkpt lat="48.06546" lon="6.85071">
        <ele>592.4</ele>
        <time>2020-10-24T09:03:27Z</time>
      </trkpt>
      <trkpt lat="48.06547" lon="6.8507">
        <ele>592.2</ele>
        <time>2020-10-24T09:03:28Z</time>
      </trkpt>
      <trkpt lat="48.06548" lon="6.85069">
        <ele>592</ele>
        <time>2020-10-24T09:03:29Z</time>
      </trkpt>
      <trkpt lat="48.06548" lon="6.85067">
        <ele>592.2</ele>
        <time>2020-10-24T09:03:30Z</time>
      </trkpt>
      <trkpt lat="48.06548" lon="6.85065">
        <ele>592.2</ele>
        <time>2020-10-24T09:03:31Z</time>
      </trkpt>
      <trkpt lat="48.06548" lon="6.85063">
        <ele>592</ele>
        <time>2020-10-24T09:03:32Z</time>
      </trkpt>
      <trkpt lat="48.06548" lon="6.85062">
        <ele>592.2</ele>
        <time>2020-10-24T09:03:33Z</time>
      </trkpt>
      <trkpt lat="48.06549" lon="6.8506">
        <ele>592</ele>
        <time>2020-10-24T09:03:34Z</time>
      </trkpt>
      <trkpt lat="48.0655" lon="6.85059">
        <ele>592</ele>
        <time>2020-10-24T09:03:35Z</time>
      </trkpt>
      <trkpt lat="48.06551" lon="6.85057">
        <ele>592</ele>
        <time>2020-10-24T09:03:36Z</time>
      </trkpt>
      <trkpt lat="48.06552" lon="6.85055">
        <ele>592</ele>
        <time>2020-10-24T09:03:37Z</time>
      </trkpt>
      <trkpt lat="48.06552" lon="6.85054">
        <ele>592</ele>
        <time>2020-10-24T09:03:38Z</time>
      </trkpt>
      <trkpt lat="48.06552" lon="6.85053">
        <ele>592.2</ele>
        <time>2020-10-24T09:03:39Z</time>
      </trkpt>
      <trkpt lat="48.06552" lon="6.8505">
        <ele>592.2</ele>
        <time>2020-10-24T09:03:40Z</time>
      </trkpt>
      <trkpt lat="48.06552" lon="6.85049">
        <ele>592.2</ele>
        <time>2020-10-24T09:03:41Z</time>
      </trkpt>
      <trkpt lat="48.06553" lon="6.85046">
        <ele>592</ele>
        <time>2020-10-24T09:03:42Z</time>
      </trkpt>
      <trkpt lat="48.06553" lon="6.85044">
        <ele>592</ele>
        <time>2020-10-24T09:03:43Z</time>
      </trkpt>
      <trkpt lat="48.06555" lon="6.85044">
        <ele>591.8</ele>
        <time>2020-10-24T09:03:44Z</time>
      </trkpt>
      <trkpt lat="48.06555" lon="6.85042">
        <ele>591.8</ele>
        <time>2020-10-24T09:03:45Z</time>
      </trkpt>
      <trkpt lat="48.06556" lon="6.8504">
        <ele>592</ele>
        <time>2020-10-24T09:03:46Z</time>
      </trkpt>
      <trkpt lat="48.06555" lon="6.85038">
        <ele>592.2</ele>
        <time>2020-10-24T09:03:47Z</time>
      </trkpt>
      <trkpt lat="48.06555" lon="6.85036">
        <ele>592.2</ele>
        <time>2020-10-24T09:03:48Z</time>
      </trkpt>
      <trkpt lat="48.06555" lon="6.85034">
        <ele>592.2</ele>
        <time>2020-10-24T09:03:49Z</time>
      </trkpt>
      <trkpt lat="48.06554" lon="6.85032">
        <ele>592.2</ele>
        <time>2020-10-24T09:03:50Z</time>
      </trkpt>
      <trkpt lat="48.06555" lon="6.8503">
        <ele>592.2</ele>
        <time>2020-10-24T09:03:51Z</time>
      </trkpt>
      <trkpt lat="48.0658" lon="6.84937">
        <ele>593</ele>
        <time>2020-10-24T09:05:06Z</time>
      </trkpt>
      <trkpt lat="48.0658" lon="6.84935">
        <ele>592.8</ele>
        <time>2020-10-24T09:05:07Z</time>
      </trkpt>
      <trkpt lat="48.06581" lon="6.84934">
        <ele>592.6</ele>
        <time>2020-10-24T09:05:08Z</time>
      </trkpt>
      <trkpt lat="48.06582" lon="6.84933">
        <ele>592.6</ele>
        <time>2020-10-24T09:05:09Z</time>
      </trkpt>
      <trkpt lat="48.06582" lon="6.84931">
        <ele>592.6</ele>
        <time>2020-10-24T09:05:10Z</time>
      </trkpt>
      <trkpt lat="48.06582" lon="6.8493">
        <ele>592.4</ele>
        <time>2020-10-24T09:05:11Z</time>
      </trkpt>
      <trkpt lat="48.06582" lon="6.84927">
        <ele>592.2</ele>
        <time>2020-10-24T09:05:12Z</time>
      </trkpt>
      <trkpt lat="48.06583" lon="6.84927">
        <ele>592.4</ele>
        <time>2020-10-24T09:05:13Z</time>
      </trkpt>
      <trkpt lat="48.0675" lon="6.84261">
        <ele>591.6</ele>
        <time>2020-10-24T09:17:02Z</time>
      </trkpt>
      <trkpt lat="48.0675" lon="6.84259">
        <ele>591.6</ele>
        <time>2020-10-24T09:17:03Z</time>
      </trkpt>
      <trkpt lat="48.06749" lon="6.84258">
        <ele>591.6</ele>
        <time>2020-10-24T09:17:04Z</time>
      </trkpt>
      <trkpt lat="48.06749" lon="6.84255">
        <ele>591.4</ele>
        <time>2020-10-24T09:17:05Z</time>
      </trkpt>
      <trkpt lat="48.0675" lon="6.84254">
        <ele>591.4</ele>
        <time>2020-10-24T09:17:06Z</time>
      </trkpt>
      <trkpt lat="48.06752" lon="6.84253">
        <ele>591.6</ele>
        <time>2020-10-24T09:17:07Z</time>
      </trkpt>
      <trkpt lat="48.06748" lon="6.8421">
        <ele>591.8</ele>
        <time>2020-10-24T09:17:32Z</time>
      </trkpt>
      <trkpt lat="48.06748" lon="6.84208">
        <ele>592</ele>
        <time>2020-10-24T09:17:33Z</time>
      </trkpt>
      <trkpt lat="48.06748" lon="6.84206">
        <ele>592</ele>
        <time>2020-10-24T09:17:34Z</time>
      </trkpt>
      <trkpt lat="48.06748" lon="6.84205">
        <ele>591.6</ele>
        <time>2020-10-24T09:17:35Z</time>
      </trkpt>
      <trkpt lat="48.0675" lon="6.84205">
        <ele>591.6</ele>
        <time>2020-10-24T09:17:36Z</time>
      </trkpt>
      <trkpt lat="48.0675" lon="6.84205">
        <ele>591.8</ele>
        <time>2020-10-24T09:17:37Z</time>
      </trkpt>
      <trkpt lat="48.06751" lon="6.84203">
        <ele>592</ele>
        <time>2020-10-24T09:17:38Z</time>
      </trkpt>
      <trkpt lat="48.06752" lon="6.84201">
        <ele>592</ele>
        <time>2020-10-24T09:17:39Z</time>
      </trkpt>
      <trkpt lat="48.06764" lon="6.84193">
        <ele>591.8</ele>
        <time>2020-10-24T09:20:24Z</time>
      </trkpt>
      <trkpt lat="48.06763" lon="6.84191">
        <ele>591.6</ele>
        <time>2020-10-24T09:20:25Z</time>
      </trkpt>
      <trkpt lat="48.06762" lon="6.84189">
        <ele>591.6</ele>
        <time>2020-10-24T09:20:26Z</time>
      </trkpt>
      <trkpt lat="48.06763" lon="6.84188">
        <ele>591.4</ele>
        <time>2020-10-24T09:20:27Z</time>
      </trkpt>
      <trkpt lat="48.06763" lon="6.84188">
        <ele>591.6</ele>
        <time>2020-10-24T09:20:28Z</time>
      </trkpt>
      <trkpt lat="48.06763" lon="6.84187">
        <ele>591.6</ele>
        <time>2020-10-24T09:20:29Z</time>
      </trkpt>
      <trkpt lat="48.06816" lon="6.84164">
        <ele>591.4</ele>
        <time>2020-10-24T09:21:22Z</time>
      </trkpt>
      <trkpt lat="48.06817" lon="6.84163">
        <ele>591.4</ele>
        <time>2020-10-24T09:21:23Z</time>
      </trkpt>
      <trkpt lat="48.06818" lon="6.84163">
        <ele>591.4</ele>
        <time>2020-10-24T09:21:24Z</time>
      </trkpt>
      <trkpt lat="48.06819" lon="6.84162">
        <ele>591.4</ele>
        <time>2020-10-24T09:21:25Z</time>
      </trkpt>
      <trkpt lat="48.0682" lon="6.84161">
        <ele>591.2</ele>
        <time>2020-10-24T09:21:26Z</time>
      </trkpt>
      <trkpt lat="48.06821" lon="6.8416">
        <ele>591.2</ele>
        <time>2020-10-24T09:21:27Z</time>
      </trkpt>
      <trkpt lat="48.06821" lon="6.84159">
        <ele>591.6</ele>
        <time>2020-10-24T09:21:28Z</time>
      </trkpt>
      <trkpt lat="48.06822" lon="6.84159">
        <ele>591.6</ele>
        <time>2020-10-24T09:21:29Z</time>
      </trkpt>
      <trkpt lat="48.06823" lon="6.84158">
        <ele>591.6</ele>
        <time>2020-10-24T09:21:30Z</time>
      </trkpt>
      <trkpt lat="48.06824" lon="6.84157">
        <ele>591.4</ele>
        <time>2020-10-24T09:21:31Z</time>
      </trkpt>
      <trkpt lat="48.06824" lon="6.84157">
        <ele>591.4</ele>
        <time>2020-10-24T09:21:32Z</time>
      </trkpt>
      <trkpt lat="48.06825" lon="6.84156">
        <ele>591.4</ele>
        <time>2020-10-24T09:21:33Z</time>
      </trkpt>
      <trkpt lat="48.06826" lon="6.84155">
        <ele>591.4</ele>
        <time>2020-10-24T09:21:34Z</time>
      </trkpt>
      <trkpt lat="48.06886" lon="6.8406">
        <ele>591.6</ele>
        <time>2020-10-24T09:23:36Z</time>
      </trkpt>
      <trkpt lat="48.06886" lon="6.84059">
        <ele>591.6</ele>
        <time>2020-10-24T09:23:37Z</time>
      </trkpt>
      <trkpt lat="48.06886" lon="6.84059">
        <ele>591.6</ele>
        <time>2020-10-24T09:23:38Z</time>
      </trkpt>
      <trkpt lat="48.06886" lon="6.84058">
        <ele>591.6</ele>
        <time>2020-10-24T09:23:39Z</time>
      </trkpt>
      <trkpt lat="48.06886" lon="6.84057">
        <ele>591.8</ele>
        <time>2020-10-24T09:23:40Z</time>
      </trkpt>
      <trkpt lat="48.06886" lon="6.84056">
        <ele>591.8</ele>
        <time>2020-10-24T09:23:41Z</time>
      </trkpt>
      <trkpt lat="48.06902" lon="6.8403">
        <ele>591.8</ele>
        <time>2020-10-24T09:24:05Z</time>
      </trkpt>
      <trkpt lat="48.06904" lon="6.84029">
        <ele>591.8</ele>
        <time>2020-10-24T09:24:06Z</time>
      </trkpt>
      <trkpt lat="48.06904" lon="6.84029">
        <ele>591.8</ele>
        <time>2020-10-24T09:24:07Z</time>
      </trkpt>
      <trkpt lat="48.06905" lon="6.84026">
        <ele>591.8</ele>
        <time>2020-10-24T09:24:08Z</time>
      </trkpt>
      <trkpt lat="48.06905" lon="6.84026">
        <ele>591.8</ele>
        <time>2020-10-24T09:24:09Z</time>
      </trkpt>
      <trkpt lat="48.06906" lon="6.84022">
        <ele>591.8</ele>
        <time>2020-10-24T09:24:10Z</time>
      </trkpt>
      <trkpt lat="48.06906" lon="6.84022">
        <ele>591.8</ele>
        <time>2020-10-24T09:24:11Z</time>
      </trkpt>
      <trkpt lat="48.06907" lon="6.84019">
        <ele>591.8</ele>
        <time>2020-10-24T09:24:12Z</time>
      </trkpt>
      <trkpt lat="48.06907" lon="6.84019">
        <ele>591.8</ele>
        <time>2020-10-24T09:24:13Z</time>
      </trkpt>
      <trkpt lat="48.06909" lon="6.84016">
        <ele>591.8</ele>
        <time>2020-10-24T09:24:14Z</time>
      </trkpt>
      <trkpt lat="48.06909" lon="6.84016">
        <ele>591.6</ele>
        <time>2020-10-24T09:24:15Z</time>
      </trkpt>
      <trkpt lat="48.06911" lon="6.84013">
        <ele>591.8</ele>
        <time>2020-10-24T09:24:16Z</time>
      </trkpt>
      <trkpt lat="48.06912" lon="6.84011">
        <ele>591.8</ele>
        <time>2020-10-24T09:24:17Z</time>
      </trkpt>
      <trkpt lat="48.06912" lon="6.84009">
        <ele>591.6</ele>
        <time>2020-10-24T09:24:18Z</time>
      </trkpt>
      <trkpt lat="48.06913" lon="6.84008">
        <ele>591.8</ele>
        <time>2020-10-24T09:24:19Z</time>
      </trkpt>
      <trkpt lat="48.06914" lon="6.84006">
        <ele>591.8</ele>
        <time>2020-10-24T09:24:20Z</time>
      </trkpt>
      <trkpt lat="48.06914" lon="6.84005">
        <ele>591.8</ele>
        <time>2020-10-24T09:24:21Z</time>
      </trkpt>
      <trkpt lat="48.06915" lon="6.84003">
        <ele>591.8</ele>
        <time>2020-10-24T09:24:22Z</time>
      </trkpt>
      <trkpt lat="48.06916" lon="6.84002">
        <ele>592</ele>
        <time>2020-10-24T09:24:23Z</time>
      </trkpt>
      <trkpt lat="48.06916" lon="6.84001">
        <ele>592</ele>
        <time>2020-10-24T09:24:24Z</time>
      </trkpt>
      <trkpt lat="48.06917" lon="6.83999">
        <ele>592.2</ele>
        <time>2020-10-24T09:24:25Z</time>
      </trkpt>
      <trkpt lat="48.06918" lon="6.83998">
        <ele>592.2</ele>
        <time>2020-10-24T09:24:26Z</time>
      </trkpt>
      <trkpt lat="48.06919" lon="6.83997">
        <ele>592.2</ele>
        <time>2020-10-24T09:24:27Z</time>
      </trkpt>
      <trkpt lat="48.0692" lon="6.83996">
        <ele>592</ele>
        <time>2020-10-24T09:24:28Z</time>
      </trkpt>
      <trkpt lat="48.0692" lon="6.83995">
        <ele>592</ele>
        <time>2020-10-24T09:24:29Z</time>
      </trkpt>
      <trkpt lat="48.06921" lon="6.83994">
        <ele>592.2</ele>
        <time>2020-10-24T09:24:30Z</time>
      </trkpt>
      <trkpt lat="48.06921" lon="6.83993">
        <ele>592.2</ele>
        <time>2020-10-24T09:24:31Z</time>
      </trkpt>
      <trkpt lat="48.06922" lon="6.83992">
        <ele>592.2</ele>
        <time>2020-10-24T09:24:32Z</time>
      </trkpt>
      <trkpt lat="48.06923" lon="6.83991">
        <ele>592.2</ele>
        <time>2020-10-24T09:24:33Z</time>
      </trkpt>
      <trkpt lat="48.06924" lon="6.8399">
        <ele>592</ele>
        <time>2020-10-24T09:24:34Z</time>
      </trkpt>
      <trkpt lat="48.06925" lon="6.83989">
        <ele>592</ele>
        <time>2020-10-24T09:24:35Z</time>
      </trkpt>
      <trkpt lat="48.06926" lon="6.83989">
        <ele>591.8</ele>
        <time>2020-10-24T09:24:36Z</time>
      </trkpt>
      <trkpt lat="48.06926" lon="6.83988">
        <ele>591.8</ele>
        <time>2020-10-24T09:24:37Z</time>
      </trkpt>
      <trkpt lat="48.06927" lon="6.83987">
        <ele>591.8</ele>
        <time>2020-10-24T09:24:38Z</time>
      </trkpt>
      <trkpt lat="48.06928" lon="6.83987">
        <ele>591.8</ele>
        <time>2020-10-24T09:24:39Z</time>
      </trkpt>
      <trkpt lat="48.06928" lon="6.83986">
        <ele>591.8</ele>
        <time>2020-10-24T09:24:40Z</time>
      </trkpt>
      <trkpt lat="48.06942" lon="6.83976">
        <ele>591.8</ele>
        <time>2020-10-24T09:24:55Z</time>
      </trkpt>
      <trkpt lat="48.06944" lon="6.83975">
        <ele>591.8</ele>
        <time>2020-10-24T09:24:56Z</time>
      </trkpt>
      <trkpt lat="48.06944" lon="6.83975">
        <ele>591.8</ele>
        <time>2020-10-24T09:24:57Z</time>
      </trkpt>
      <trkpt lat="48.06944" lon="6.83975">
        <ele>591.8</ele>
        <time>2020-10-24T09:24:58Z</time>
      </trkpt>
      <trkpt lat="48.06945" lon="6.83974">
        <ele>592</ele>
        <time>2020-10-24T09:24:59Z</time>
      </trkpt>
      <trkpt lat="48.06945" lon="6.83973">
        <ele>592.2</ele>
        <time>2020-10-24T09:25:00Z</time>
      </trkpt>
      <trkpt lat="48.06946" lon="6.83972">
        <ele>592.2</ele>
        <time>2020-10-24T09:25:01Z</time>
      </trkpt>
      <trkpt lat="48.06946" lon="6.83971">
        <ele>592.2</ele>
        <time>2020-10-24T09:25:02Z</time>
      </trkpt>
      <trkpt lat="48.06947" lon="6.8397">
        <ele>592.2</ele>
        <time>2020-10-24T09:25:03Z</time>
      </trkpt>
      <trkpt lat="48.06947" lon="6.8397">
        <ele>592.2</ele>
        <time>2020-10-24T09:25:04Z</time>
      </trkpt>
      <trkpt lat="48.06948" lon="6.8397">
        <ele>592.2</ele>
        <time>2020-10-24T09:25:05Z</time>
      </trkpt>
      <trkpt lat="48.06948" lon="6.83969">
        <ele>592.2</ele>
        <time>2020-10-24T09:25:06Z</time>
      </trkpt>
      <trkpt lat="48.07199" lon="6.8407">
        <ele>591</ele>
        <time>2020-10-24T09:31:34Z</time>
      </trkpt>
      <trkpt lat="48.07198" lon="6.84072">
        <ele>591</ele>
        <time>2020-10-24T09:31:35Z</time>
      </trkpt>
      <trkpt lat="48.07198" lon="6.84073">
        <ele>591</ele>
        <time>2020-10-24T09:31:36Z</time>
      </trkpt>
      <trkpt lat="48.07198" lon="6.84074">
        <ele>591.2</ele>
        <time>2020-10-24T09:31:37Z</time>
      </trkpt>
      <trkpt lat="48.07199" lon="6.84075">
        <ele>591.2</ele>
        <time>2020-10-24T09:31:38Z</time>
      </trkpt>
      <trkpt lat="48.07199" lon="6.84077">
        <ele>591</ele>
        <time>2020-10-24T09:31:40Z</time>
      </trkpt>
      <trkpt lat="48.072" lon="6.84096">
        <ele>591.2</ele>
        <time>2020-10-24T09:31:54Z</time>
      </trkpt>
      <trkpt lat="48.072" lon="6.84097">
        <ele>591.2</ele>
        <time>2020-10-24T09:31:55Z</time>
      </trkpt>
      <trkpt lat="48.072" lon="6.84099">
        <ele>591.2</ele>
        <time>2020-10-24T09:31:56Z</time>
      </trkpt>
      <trkpt lat="48.07201" lon="6.84101">
        <ele>591.2</ele>
        <time>2020-10-24T09:31:57Z</time>
      </trkpt>
      <trkpt lat="48.07201" lon="6.84103">
        <ele>591.2</ele>
        <time>2020-10-24T09:31:58Z</time>
      </trkpt>
      <trkpt lat="48.07201" lon="6.84105">
        <ele>591.2</ele>
        <time>2020-10-24T09:31:59Z</time>
      </trkpt>
      <trkpt lat="48.07201" lon="6.84106">
        <ele>591.2</ele>
        <time>2020-10-24T09:32:00Z</time>
      </trkpt>
      <trkpt lat="48.07201" lon="6.84108">
        <ele>591</ele>
        <time>2020-10-24T09:32:01Z</time>
      </trkpt>
      <trkpt lat="48.07201" lon="6.8411">
        <ele>591</ele>
        <time>2020-10-24T09:32:02Z</time>
      </trkpt>
      <trkpt lat="48.07202" lon="6.84112">
        <ele>591.2</ele>
        <time>2020-10-24T09:32:03Z</time>
      </trkpt>
      <trkpt lat="48.07202" lon="6.84113">
        <ele>591.2</ele>
        <time>2020-10-24T09:32:04Z</time>
      </trkpt>
      <trkpt lat="48.07202" lon="6.84115">
        <ele>591.4</ele>
        <time>2020-10-24T09:32:05Z</time>
      </trkpt>
      <trkpt lat="48.07203" lon="6.84117">
        <ele>591.2</ele>
        <time>2020-10-24T09:32:06Z</time>
      </trkpt>
      <trkpt lat="48.07203" lon="6.84118">
        <ele>591.2</ele>
        <time>2020-10-24T09:32:07Z</time>
      </trkpt>
      <trkpt lat="48.07203" lon="6.8412">
        <ele>591.2</ele>
        <time>2020-10-24T09:32:08Z</time>
      </trkpt>
      <trkpt lat="48.07203" lon="6.84122">
        <ele>591.2</ele>
        <time>2020-10-24T09:32:09Z</time>
      </trkpt>
      <trkpt lat="48.07203" lon="6.84123">
        <ele>591.4</ele>
        <time>2020-10-24T09:32:10Z</time>
      </trkpt>
      <trkpt lat="48.07203" lon="6.84125">
        <ele>591.4</ele>
        <time>2020-10-24T09:32:11Z</time>
      </trkpt>
      <trkpt lat="48.07204" lon="6.84127">
        <ele>591.2</ele>
        <time>2020-10-24T09:32:12Z</time>
      </trkpt>
      <trkpt lat="48.07204" lon="6.84128">
        <ele>591.2</ele>
        <time>2020-10-24T09:32:13Z</time>
      </trkpt>
      <trkpt lat="48.07203" lon="6.8413">
        <ele>591.2</ele>
        <time>2020-10-24T09:32:14Z</time>
      </trkpt>
      <trkpt lat="48.07203" lon="6.84131">
        <ele>591.2</ele>
        <time>2020-10-24T09:32:15Z</time>
      </trkpt>
      <trkpt lat="48.07204" lon="6.84133">
        <ele>591.2</ele>
        <time>2020-10-24T09:32:16Z</time>
      </trkpt>
      <trkpt lat="48.07204" lon="6.84134">
        <ele>591.2</ele>
        <time>2020-10-24T09:32:17Z</time>
      </trkpt>
      <trkpt lat="48.07204" lon="6.84136">
        <ele>591.4</ele>
        <time>2020-10-24T09:32:18Z</time>
      </trkpt>
      <trkpt lat="48.07204" lon="6.84137">
        <ele>591.4</ele>
        <time>2020-10-24T09:32:19Z</time>
      </trkpt>
      <trkpt lat="48.07204" lon="6.84139">
        <ele>591.4</ele>
        <time>2020-10-24T09:32:20Z</time>
      </trkpt>
      <trkpt lat="48.07204" lon="6.8414">
        <ele>591.4</ele>
        <time>2020-10-24T09:32:21Z</time>
      </trkpt>
      <trkpt lat="48.07204" lon="6.84141">
        <ele>591.4</ele>
        <time>2020-10-24T09:32:22Z</time>
      </trkpt>
      <trkpt lat="48.07204" lon="6.84142">
        <ele>591.4</ele>
        <time>2020-10-24T09:32:23Z</time>
      </trkpt>
      <trkpt lat="48.07203" lon="6.84143">
        <ele>591.2</ele>
        <time>2020-10-24T09:32:24Z</time>
      </trkpt>
      <trkpt lat="48.07204" lon="6.84145">
        <ele>591.2</ele>
        <time>2020-10-24T09:32:25Z</time>
      </trkpt>
      <trkpt lat="48.07204" lon="6.84147">
        <ele>591.4</ele>
        <time>2020-10-24T09:32:26Z</time>
      </trkpt>
      <trkpt lat="48.07204" lon="6.84149">
        <ele>591.2</ele>
        <time>2020-10-24T09:32:27Z</time>
      </trkpt>
      <trkpt lat="48.07204" lon="6.8415">
        <ele>591.2</ele>
        <time>2020-10-24T09:32:28Z</time>
      </trkpt>
      <trkpt lat="48.07204" lon="6.84152">
        <ele>591</ele>
        <time>2020-10-24T09:32:29Z</time>
      </trkpt>
      <trkpt lat="48.07205" lon="6.84153">
        <ele>591.2</ele>
        <time>2020-10-24T09:32:30Z</time>
      </trkpt>
      <trkpt lat="48.07205" lon="6.84155">
        <ele>591.4</ele>
        <time>2020-10-24T09:32:31Z</time>
      </trkpt>
      <trkpt lat="48.07205" lon="6.84156">
        <ele>591.4</ele>
        <time>2020-10-24T09:32:32Z</time>
      </trkpt>
      <trkpt lat="48.07206" lon="6.84157">
        <ele>591.2</ele>
        <time>2020-10-24T09:32:33Z</time>
      </trkpt>
      <trkpt lat="48.07206" lon="6.84159">
        <ele>591</ele>
        <time>2020-10-24T09:32:34Z</time>
      </trkpt>
      <trkpt lat="48.07206" lon="6.8416">
        <ele>591</ele>
        <time>2020-10-24T09:32:35Z</time>
      </trkpt>
      <trkpt lat="48.07206" lon="6.84161">
        <ele>591.2</ele>
        <time>2020-10-24T09:32:36Z</time>
      </trkpt>
      <trkpt lat="48.07206" lon="6.84161">
        <ele>591.2</ele>
        <time>2020-10-24T09:32:37Z</time>
      </trkpt>
      <trkpt lat="48.07206" lon="6.84163">
        <ele>591.2</ele>
        <time>2020-10-24T09:32:38Z</time>
      </trkpt>
      <trkpt lat="48.07202" lon="6.84188">
        <ele>591.8</ele>
        <time>2020-10-24T09:32:56Z</time>
      </trkpt>
      <trkpt lat="48.07202" lon="6.84189">
        <ele>591.8</ele>
        <time>2020-10-24T09:32:57Z</time>
      </trkpt>
      <trkpt lat="48.07202" lon="6.84191">
        <ele>591.8</ele>
        <time>2020-10-24T09:32:58Z</time>
      </trkpt>
      <trkpt lat="48.07202" lon="6.84192">
        <ele>591.8</ele>
        <time>2020-10-24T09:32:59Z</time>
      </trkpt>
      <trkpt lat="48.07203" lon="6.84194">
        <ele>591.8</ele>
        <time>2020-10-24T09:33:00Z</time>
      </trkpt>
      <trkpt lat="48.07203" lon="6.84195">
        <ele>591.8</ele>
        <time>2020-10-24T09:33:01Z</time>
      </trkpt>
      <trkpt lat="48.07284" lon="6.84646">
        <ele>592.4</ele>
        <time>2020-10-24T09:40:27Z</time>
      </trkpt>
      <trkpt lat="48.07284" lon="6.84648">
        <ele>592.6</ele>
        <time>2020-10-24T09:40:28Z</time>
      </trkpt>
      <trkpt lat="48.07284" lon="6.84649">
        <ele>592.6</ele>
        <time>2020-10-24T09:40:29Z</time>
      </trkpt>
      <trkpt lat="48.07284" lon="6.84651">
        <ele>592.4</ele>
        <time>2020-10-24T09:40:30Z</time>
      </trkpt>
      <trkpt lat="48.07284" lon="6.84652">
        <ele>592.4</ele>
        <time>2020-10-24T09:40:31Z</time>
      </trkpt>
      <trkpt lat="48.07284" lon="6.84654">
        <ele>592.2</ele>
        <time>2020-10-24T09:40:32Z</time>
      </trkpt>
      <trkpt lat="48.07284" lon="6.84689">
        <ele>592.2</ele>
        <time>2020-10-24T09:40:51Z</time>
      </trkpt>
      <trkpt lat="48.07284" lon="6.84691">
        <ele>592.4</ele>
        <time>2020-10-24T09:40:52Z</time>
      </trkpt>
      <trkpt lat="48.07283" lon="6.84694">
        <ele>592.4</ele>
        <time>2020-10-24T09:40:53Z</time>
      </trkpt>
      <trkpt lat="48.07282" lon="6.84696">
        <ele>592.4</ele>
        <time>2020-10-24T09:40:54Z</time>
      </trkpt>
      <trkpt lat="48.07283" lon="6.84697">
        <ele>592.4</ele>
        <time>2020-10-24T09:40:55Z</time>
      </trkpt>
      <trkpt lat="48.07283" lon="6.84698">
        <ele>592.4</ele>
        <time>2020-10-24T09:40:56Z</time>
      </trkpt>
      <trkpt lat="48.07282" lon="6.847">
        <ele>592.4</ele>
        <time>2020-10-24T09:40:57Z</time>
      </trkpt>
      <trkpt lat="48.07282" lon="6.84702">
        <ele>592.4</ele>
        <time>2020-10-24T09:40:58Z</time>
      </trkpt>
      <trkpt lat="48.07281" lon="6.84703">
        <ele>592.4</ele>
        <time>2020-10-24T09:40:59Z</time>
      </trkpt>
      <trkpt lat="48.0728" lon="6.84704">
        <ele>592.4</ele>
        <time>2020-10-24T09:41:00Z</time>
      </trkpt>
      <trkpt lat="48.07279" lon="6.84705">
        <ele>592.4</ele>
        <time>2020-10-24T09:41:01Z</time>
      </trkpt>
      <trkpt lat="48.07279" lon="6.84707">
        <ele>592.4</ele>
        <time>2020-10-24T09:41:02Z</time>
      </trkpt>
      <trkpt lat="48.07279" lon="6.84709">
        <ele>592.6</ele>
        <time>2020-10-24T09:41:03Z</time>
      </trkpt>
      <trkpt lat="48.0728" lon="6.84711">
        <ele>592.4</ele>
        <time>2020-10-24T09:41:04Z</time>
      </trkpt>
      <trkpt lat="48.07279" lon="6.84712">
        <ele>592.6</ele>
        <time>2020-10-24T09:41:05Z</time>
      </trkpt>
      <trkpt lat="48.07279" lon="6.84713">
        <ele>592.6</ele>
        <time>2020-10-24T09:41:06Z</time>
      </trkpt>
      <trkpt lat="48.07279" lon="6.84716">
        <ele>592.8</ele>
        <time>2020-10-24T09:41:07Z</time>
      </trkpt>
      <trkpt lat="48.07279" lon="6.84718">
        <ele>592.8</ele>
        <time>2020-10-24T09:41:08Z</time>
      </trkpt>
      <trkpt lat="48.0728" lon="6.8472">
        <ele>592.6</ele>
        <time>2020-10-24T09:41:09Z</time>
      </trkpt>
      <trkpt lat="48.0728" lon="6.84722">
        <ele>592.4</ele>
        <time>2020-10-24T09:41:10Z</time>
      </trkpt>
      <trkpt lat="48.0728" lon="6.84724">
        <ele>592.4</ele>
        <time>2020-10-24T09:41:11Z</time>
      </trkpt>
      <trkpt lat="48.0728" lon="6.84725">
        <ele>592.6</ele>
        <time>2020-10-24T09:41:12Z</time>
      </trkpt>
      <trkpt lat="48.0728" lon="6.84729">
        <ele>592.4</ele>
        <time>2020-10-24T09:41:13Z</time>
      </trkpt>
      <trkpt lat="48.0728" lon="6.84731">
        <ele>592.4</ele>
        <time>2020-10-24T09:41:14Z</time>
      </trkpt>
      <trkpt lat="48.07279" lon="6.84732">
        <ele>592.4</ele>
        <time>2020-10-24T09:41:15Z</time>
      </trkpt>
      <trkpt lat="48.07279" lon="6.84733">
        <ele>592.4</ele>
        <time>2020-10-24T09:41:16Z</time>
      </trkpt>
      <trkpt lat="48.07278" lon="6.84735">
        <ele>592.4</ele>
        <time>2020-10-24T09:41:17Z</time>
      </trkpt>
      <trkpt lat="48.07277" lon="6.84738">
        <ele>592.4</ele>
        <time>2020-10-24T09:41:18Z</time>
      </trkpt>
      <trkpt lat="48.07277" lon="6.84739">
        <ele>592.4</ele>
        <time>2020-10-24T09:41:19Z</time>
      </trkpt>
      <trkpt lat="48.07277" lon="6.84741">
        <ele>592.6</ele>
        <time>2020-10-24T09:41:20Z</time>
      </trkpt>
      <trkpt lat="48.07277" lon="6.84742">
        <ele>592.6</ele>
        <time>2020-10-24T09:41:21Z</time>
      </trkpt>
      <trkpt lat="48.07276" lon="6.84743">
        <ele>592.6</ele>
        <time>2020-10-24T09:41:22Z</time>
      </trkpt>
      <trkpt lat="48.07276" lon="6.84745">
        <ele>592.6</ele>
        <time>2020-10-24T09:41:23Z</time>
      </trkpt>
      <trkpt lat="48.07276" lon="6.84747">
        <ele>592.4</ele>
        <time>2020-10-24T09:41:24Z</time>
      </trkpt>
      <trkpt lat="48.07277" lon="6.84757">
        <ele>592.4</ele>
        <time>2020-10-24T09:41:29Z</time>
      </trkpt>
      <trkpt lat="48.07277" lon="6.84758">
        <ele>592.4</ele>
        <time>2020-10-24T09:41:30Z</time>
      </trkpt>
      <trkpt lat="48.07276" lon="6.8476">
        <ele>592.4</ele>
        <time>2020-10-24T09:41:31Z</time>
      </trkpt>
      <trkpt lat="48.07276" lon="6.84763">
        <ele>592.4</ele>
        <time>2020-10-24T09:41:32Z</time>
      </trkpt>
      <trkpt lat="48.07275" lon="6.84763">
        <ele>592.4</ele>
        <time>2020-10-24T09:41:33Z</time>
      </trkpt>
      <trkpt lat="48.07275" lon="6.84766">
        <ele>592.2</ele>
        <time>2020-10-24T09:41:34Z</time>
      </trkpt>
      <trkpt lat="48.07275" lon="6.84767">
        <ele>592.4</ele>
        <time>2020-10-24T09:41:35Z</time>
      </trkpt>
      <trkpt lat="48.07274" lon="6.84768">
        <ele>592.4</ele>
        <time>2020-10-24T09:41:36Z</time>
      </trkpt>
      <trkpt lat="48.07274" lon="6.84768">
        <ele>592.6</ele>
        <time>2020-10-24T09:41:37Z</time>
      </trkpt>
      <trkpt lat="48.07273" lon="6.84768">
        <ele>592.6</ele>
        <time>2020-10-24T09:41:38Z</time>
      </trkpt>
      <trkpt lat="48.07273" lon="6.8477">
        <ele>592.6</ele>
        <time>2020-10-24T09:41:39Z</time>
      </trkpt>
      <trkpt lat="48.07272" lon="6.84795">
        <ele>592.6</ele>
        <time>2020-10-24T09:41:52Z</time>
      </trkpt>
      <trkpt lat="48.07271" lon="6.84797">
        <ele>592.6</ele>
        <time>2020-10-24T09:41:53Z</time>
      </trkpt>
      <trkpt lat="48.07272" lon="6.84798">
        <ele>592.6</ele>
        <time>2020-10-24T09:41:54Z</time>
      </trkpt>
      <trkpt lat="48.07272" lon="6.848">
        <ele>592.8</ele>
        <time>2020-10-24T09:41:55Z</time>
      </trkpt>
      <trkpt lat="48.07272" lon="6.84801">
        <ele>592.8</ele>
        <time>2020-10-24T09:41:56Z</time>
      </trkpt>
      <trkpt lat="48.07271" lon="6.84802">
        <ele>592.8</ele>
        <time>2020-10-24T09:41:57Z</time>
      </trkpt>
      <trkpt lat="48.07271" lon="6.84806">
        <ele>592.8</ele>
        <time>2020-10-24T09:41:58Z</time>
      </trkpt>
      <trkpt lat="48.07271" lon="6.84808">
        <ele>593</ele>
        <time>2020-10-24T09:41:59Z</time>
      </trkpt>
      <trkpt lat="48.07271" lon="6.84809">
        <ele>592.8</ele>
        <time>2020-10-24T09:42:00Z</time>
      </trkpt>
      <trkpt lat="48.0727" lon="6.8481">
        <ele>592.6</ele>
        <time>2020-10-24T09:42:01Z</time>
      </trkpt>
      <trkpt lat="48.0727" lon="6.84812">
        <ele>592.6</ele>
        <time>2020-10-24T09:42:02Z</time>
      </trkpt>
      <trkpt lat="48.0727" lon="6.84814">
        <ele>592.8</ele>
        <time>2020-10-24T09:42:03Z</time>
      </trkpt>
      <trkpt lat="48.07269" lon="6.84817">
        <ele>592.8</ele>
        <time>2020-10-24T09:42:04Z</time>
      </trkpt>
      <trkpt lat="48.07259" lon="6.84853">
        <ele>593</ele>
        <time>2020-10-24T09:42:24Z</time>
      </trkpt>
      <trkpt lat="48.0726" lon="6.84855">
        <ele>593.2</ele>
        <time>2020-10-24T09:42:25Z</time>
      </trkpt>
      <trkpt lat="48.07259" lon="6.84857">
        <ele>593.2</ele>
        <time>2020-10-24T09:42:26Z</time>
      </trkpt>
      <trkpt lat="48.07259" lon="6.84859">
        <ele>593.2</ele>
        <time>2020-10-24T09:42:27Z</time>
      </trkpt>
      <trkpt lat="48.07258" lon="6.84861">
        <ele>593.2</ele>
        <time>2020-10-24T09:42:28Z</time>
      </trkpt>
      <trkpt lat="48.07257" lon="6.84863">
        <ele>593.2</ele>
        <time>2020-10-24T09:42:29Z</time>
      </trkpt>
      <trkpt lat="48.07256" lon="6.84864">
        <ele>593.2</ele>
        <time>2020-10-24T09:42:30Z</time>
      </trkpt>
      <trkpt lat="48.07255" lon="6.84866">
        <ele>593.2</ele>
        <time>2020-10-24T09:42:31Z</time>
      </trkpt>
      <trkpt lat="48.07255" lon="6.84868">
        <ele>593.2</ele>
        <time>2020-10-24T09:42:32Z</time>
      </trkpt>
      <trkpt lat="48.07254" lon="6.8487">
        <ele>593</ele>
        <time>2020-10-24T09:42:33Z</time>
      </trkpt>
      <trkpt lat="48.07254" lon="6.84871">
        <ele>592.8</ele>
        <time>2020-10-24T09:42:34Z</time>
      </trkpt>
      <trkpt lat="48.07254" lon="6.84872">
        <ele>592.8</ele>
        <time>2020-10-24T09:42:35Z</time>
      </trkpt>
      <trkpt lat="48.07254" lon="6.84874">
        <ele>593.2</ele>
        <time>2020-10-24T09:42:36Z</time>
      </trkpt>
      <trkpt lat="48.07253" lon="6.84876">
        <ele>593.2</ele>
        <time>2020-10-24T09:42:37Z</time>
      </trkpt>
      <trkpt lat="48.07253" lon="6.84878">
        <ele>593</ele>
        <time>2020-10-24T09:42:38Z</time>
      </trkpt>
      <trkpt lat="48.07253" lon="6.8488">
        <ele>593</ele>
        <time>2020-10-24T09:42:39Z</time>
      </trkpt>
      <trkpt lat="48.07252" lon="6.84882">
        <ele>593</ele>
        <time>2020-10-24T09:42:40Z</time>
      </trkpt>
      <trkpt lat="48.07252" lon="6.84884">
        <ele>593.2</ele>
        <time>2020-10-24T09:42:41Z</time>
      </trkpt>
      <trkpt lat="48.07252" lon="6.84885">
        <ele>593.2</ele>
        <time>2020-10-24T09:42:42Z</time>
      </trkpt>
      <trkpt lat="48.07252" lon="6.84886">
        <ele>593.2</ele>
        <time>2020-10-24T09:42:43Z</time>
      </trkpt>
      <trkpt lat="48.07252" lon="6.84887">
        <ele>593.2</ele>
        <time>2020-10-24T09:42:44Z</time>
      </trkpt>
      <trkpt lat="48.07252" lon="6.84888">
        <ele>593.2</ele>
        <time>2020-10-24T09:42:45Z</time>
      </trkpt>
      <trkpt lat="48.07252" lon="6.8489">
        <ele>593.2</ele>
        <time>2020-10-24T09:42:46Z</time>
      </trkpt>
      <trkpt lat="48.07245" lon="6.84926">
        <ele>593.2</ele>
        <time>2020-10-24T09:43:15Z</time>
      </trkpt>
      <trkpt lat="48.07245" lon="6.84928">
        <ele>593.2</ele>
        <time>2020-10-24T09:43:16Z</time>
      </trkpt>
      <trkpt lat="48.07246" lon="6.8493">
        <ele>593.2</ele>
        <time>2020-10-24T09:43:17Z</time>
      </trkpt>
      <trkpt lat="48.07246" lon="6.84933">
        <ele>593.2</ele>
        <time>2020-10-24T09:43:18Z</time>
      </trkpt>
      <trkpt lat="48.07246" lon="6.84934">
        <ele>593.2</ele>
        <time>2020-10-24T09:43:19Z</time>
      </trkpt>
      <trkpt lat="48.07246" lon="6.84934">
        <ele>593.2</ele>
        <time>2020-10-24T09:43:20Z</time>
      </trkpt>
      <trkpt lat="48.07246" lon="6.84935">
        <ele>593</ele>
        <time>2020-10-24T09:43:21Z</time>
      </trkpt>
      <trkpt lat="48.07246" lon="6.84936">
        <ele>593</ele>
        <time>2020-10-24T09:43:22Z</time>
      </trkpt>
      <trkpt lat="48.07246" lon="6.84937">
        <ele>593.2</ele>
        <time>2020-10-24T09:43:23Z</time>
      </trkpt>
      <trkpt lat="48.07246" lon="6.84939">
        <ele>593.2</ele>
        <time>2020-10-24T09:43:24Z</time>
      </trkpt>
      <trkpt lat="48.07245" lon="6.84941">
        <ele>593.2</ele>
        <time>2020-10-24T09:43:25Z</time>
      </trkpt>
      <trkpt lat="48.07246" lon="6.84944">
        <ele>593</ele>
        <time>2020-10-24T09:43:26Z</time>
      </trkpt>
      <trkpt lat="48.07246" lon="6.84946">
        <ele>592.8</ele>
        <time>2020-10-24T09:43:27Z</time>
      </trkpt>
      <trkpt lat="48.07246" lon="6.84949">
        <ele>593</ele>
        <time>2020-10-24T09:43:28Z</time>
      </trkpt>
      <trkpt lat="48.07246" lon="6.84951">
        <ele>593.2</ele>
        <time>2020-10-24T09:43:29Z</time>
      </trkpt>
      <trkpt lat="48.07245" lon="6.84952">
        <ele>593.2</ele>
        <time>2020-10-24T09:43:30Z</time>
      </trkpt>
      <trkpt lat="48.07245" lon="6.84954">
        <ele>593.2</ele>
        <time>2020-10-24T09:43:31Z</time>
      </trkpt>
      <trkpt lat="48.07245" lon="6.84955">
        <ele>593</ele>
        <time>2020-10-24T09:43:32Z</time>
      </trkpt>
      <trkpt lat="48.07245" lon="6.84957">
        <ele>592.8</ele>
        <time>2020-10-24T09:43:33Z</time>
      </trkpt>
      <trkpt lat="48.07244" lon="6.84958">
        <ele>592.8</ele>
        <time>2020-10-24T09:43:34Z</time>
      </trkpt>
      <trkpt lat="48.07244" lon="6.84959">
        <ele>592.8</ele>
        <time>2020-10-24T09:43:35Z</time>
      </trkpt>
      <trkpt lat="48.07244" lon="6.84962">
        <ele>593</ele>
        <time>2020-10-24T09:43:36Z</time>
      </trkpt>
      <trkpt lat="48.07244" lon="6.84964">
        <ele>593.2</ele>
        <time>2020-10-24T09:43:37Z</time>
      </trkpt>
      <trkpt lat="48.07244" lon="6.84966">
        <ele>593.2</ele>
        <time>2020-10-24T09:43:38Z</time>
      </trkpt>
      <trkpt lat="48.07244" lon="6.84968">
        <ele>593</ele>
        <time>2020-10-24T09:43:39Z</time>
      </trkpt>
      <trkpt lat="48.07244" lon="6.8497">
        <ele>593</ele>
        <time>2020-10-24T09:43:40Z</time>
      </trkpt>
      <trkpt lat="48.07244" lon="6.84972">
        <ele>593</ele>
        <time>2020-10-24T09:43:41Z</time>
      </trkpt>
      <trkpt lat="48.07244" lon="6.84974">
        <ele>593</ele>
        <time>2020-10-24T09:43:42Z</time>
      </trkpt>
      <trkpt lat="48.07244" lon="6.84975">
        <ele>593</ele>
        <time>2020-10-24T09:43:43Z</time>
      </trkpt>
      <trkpt lat="48.07244" lon="6.84977">
        <ele>593</ele>
        <time>2020-10-24T09:43:44Z</time>
      </trkpt>
      <trkpt lat="48.07244" lon="6.84979">
        <ele>593</ele>
        <time>2020-10-24T09:43:45Z</time>
      </trkpt>
      <trkpt lat="48.07244" lon="6.84981">
        <ele>592.8</ele>
        <time>2020-10-24T09:43:46Z</time>
      </trkpt>
      <trkpt lat="48.07244" lon="6.84984">
        <ele>592.8</ele>
        <time>2020-10-24T09:43:47Z</time>
      </trkpt>
      <trkpt lat="48.07243" lon="6.84986">
        <ele>593</ele>
        <time>2020-10-24T09:43:48Z</time>
      </trkpt>
      <trkpt lat="48.07243" lon="6.84988">
        <ele>593</ele>
        <time>2020-10-24T09:43:49Z</time>
      </trkpt>
      <trkpt lat="48.07244" lon="6.8499">
        <ele>593</ele>
        <time>2020-10-24T09:43:50Z</time>
      </trkpt>
      <trkpt lat="48.07243" lon="6.84992">
        <ele>592.8</ele>
        <time>2020-10-24T09:43:51Z</time>
      </trkpt>
      <trkpt lat="48.07243" lon="6.84994">
        <ele>592.8</ele>
        <time>2020-10-24T09:43:52Z</time>
      </trkpt>
      <trkpt lat="48.07243" lon="6.84995">
        <ele>592.8</ele>
        <time>2020-10-24T09:43:53Z</time>
      </trkpt>
      <trkpt lat="48.07242" lon="6.84996">
        <ele>592.8</ele>
        <time>2020-10-24T09:43:54Z</time>
      </trkpt>
      <trkpt lat="48.07242" lon="6.84997">
        <ele>592.8</ele>
        <time>2020-10-24T09:43:55Z</time>
      </trkpt>
      <trkpt lat="48.07241" lon="6.85">
        <ele>593</ele>
        <time>2020-10-24T09:43:56Z</time>
      </trkpt>
      <trkpt lat="48.07242" lon="6.85001">
        <ele>593</ele>
        <time>2020-10-24T09:43:57Z</time>
      </trkpt>
      <trkpt lat="48.07242" lon="6.85003">
        <ele>593</ele>
        <time>2020-10-24T09:43:58Z</time>
      </trkpt>
      <trkpt lat="48.07242" lon="6.85004">
        <ele>593</ele>
        <time>2020-10-24T09:43:59Z</time>
      </trkpt>
      <trkpt lat="48.07242" lon="6.85005">
        <ele>593</ele>
        <time>2020-10-24T09:44:00Z</time>
      </trkpt>
      <trkpt lat="48.07242" lon="6.85007">
        <ele>593</ele>
        <time>2020-10-24T09:44:01Z</time>
      </trkpt>
      <trkpt lat="48.07241" lon="6.85009">
        <ele>593</ele>
        <time>2020-10-24T09:44:02Z</time>
      </trkpt>
      <trkpt lat="48.07241" lon="6.85011">
        <ele>593</ele>
        <time>2020-10-24T09:44:03Z</time>
      </trkpt>
      <trkpt lat="48.07241" lon="6.85013">
        <ele>593</ele>
        <time>2020-10-24T09:44:04Z</time>
      </trkpt>
      <trkpt lat="48.07241" lon="6.85015">
        <ele>593</ele>
        <time>2020-10-24T09:44:05Z</time>
      </trkpt>
      <trkpt lat="48.0724" lon="6.85017">
        <ele>593</ele>
        <time>2020-10-24T09:44:06Z</time>
      </trkpt>
      <trkpt lat="48.07241" lon="6.85018">
        <ele>593</ele>
        <time>2020-10-24T09:44:07Z</time>
      </trkpt>
      <trkpt lat="48.0724" lon="6.8502">
        <ele>592.8</ele>
        <time>2020-10-24T09:44:08Z</time>
      </trkpt>
      <trkpt lat="48.0724" lon="6.85022">
        <ele>592.8</ele>
        <time>2020-10-24T09:44:09Z</time>
      </trkpt>
      <trkpt lat="48.0724" lon="6.85023">
        <ele>592.8</ele>
        <time>2020-10-24T09:44:10Z</time>
      </trkpt>
      <trkpt lat="48.0724" lon="6.85025">
        <ele>592.8</ele>
        <time>2020-10-24T09:44:11Z</time>
      </trkpt>
      <trkpt lat="48.0724" lon="6.85026">
        <ele>592.8</ele>
        <time>2020-10-24T09:44:12Z</time>
      </trkpt>
      <trkpt lat="48.0724" lon="6.85028">
        <ele>592.8</ele>
        <time>2020-10-24T09:44:13Z</time>
      </trkpt>
      <trkpt lat="48.0724" lon="6.85029">
        <ele>593</ele>
        <time>2020-10-24T09:44:14Z</time>
      </trkpt>
      <trkpt lat="48.07239" lon="6.85031">
        <ele>593</ele>
        <time>2020-10-24T09:44:15Z</time>
      </trkpt>
      <trkpt lat="48.07239" lon="6.85043">
        <ele>592.8</ele>
        <time>2020-10-24T09:44:22Z</time>
      </trkpt>
      <trkpt lat="48.07239" lon="6.85045">
        <ele>592.8</ele>
        <time>2020-10-24T09:44:23Z</time>
      </trkpt>
      <trkpt lat="48.07238" lon="6.85047">
        <ele>593</ele>
        <time>2020-10-24T09:44:24Z</time>
      </trkpt>
      <trkpt lat="48.07238" lon="6.8505">
        <ele>593</ele>
        <time>2020-10-24T09:44:25Z</time>
      </trkpt>
      <trkpt lat="48.07238" lon="6.85051">
        <ele>593</ele>
        <time>2020-10-24T09:44:26Z</time>
      </trkpt>
      <trkpt lat="48.07238" lon="6.85053">
        <ele>593</ele>
        <time>2020-10-24T09:44:27Z</time>
      </trkpt>
      <trkpt lat="48.07238" lon="6.85054">
        <ele>593</ele>
        <time>2020-10-24T09:44:28Z</time>
      </trkpt>
      <trkpt lat="48.07237" lon="6.85056">
        <ele>593</ele>
        <time>2020-10-24T09:44:29Z</time>
      </trkpt>
      <trkpt lat="48.07237" lon="6.85057">
        <ele>593</ele>
        <time>2020-10-24T09:44:30Z</time>
      </trkpt>
      <trkpt lat="48.07237" lon="6.85059">
        <ele>593.2</ele>
        <time>2020-10-24T09:44:31Z</time>
      </trkpt>
      <trkpt lat="48.07237" lon="6.85061">
        <ele>593.2</ele>
        <time>2020-10-24T09:44:32Z</time>
      </trkpt>
      <trkpt lat="48.07236" lon="6.85061">
        <ele>593.2</ele>
        <time>2020-10-24T09:44:33Z</time>
      </trkpt>
      <trkpt lat="48.07236" lon="6.85063">
        <ele>593.2</ele>
        <time>2020-10-24T09:44:34Z</time>
      </trkpt>
      <trkpt lat="48.07236" lon="6.85066">
        <ele>593.2</ele>
        <time>2020-10-24T09:44:35Z</time>
      </trkpt>
      <trkpt lat="48.07236" lon="6.85067">
        <ele>593.2</ele>
        <time>2020-10-24T09:44:36Z</time>
      </trkpt>
      <trkpt lat="48.07236" lon="6.85069">
        <ele>593.2</ele>
        <time>2020-10-24T09:44:37Z</time>
      </trkpt>
      <trkpt lat="48.07236" lon="6.8507">
        <ele>593</ele>
        <time>2020-10-24T09:44:38Z</time>
      </trkpt>
      <trkpt lat="48.07236" lon="6.85071">
        <ele>593.2</ele>
        <time>2020-10-24T09:44:39Z</time>
      </trkpt>
      <trkpt lat="48.07236" lon="6.85073">
        <ele>593.2</ele>
        <time>2020-10-24T09:44:40Z</time>
      </trkpt>
      <trkpt lat="48.07236" lon="6.85073">
        <ele>593.2</ele>
        <time>2020-10-24T09:44:41Z</time>
      </trkpt>
      <trkpt lat="48.07235" lon="6.85095">
        <ele>593.2</ele>
        <time>2020-10-24T09:44:54Z</time>
      </trkpt>
      <trkpt lat="48.07235" lon="6.85097">
        <ele>593.4</ele>
        <time>2020-10-24T09:44:55Z</time>
      </trkpt>
      <trkpt lat="48.07235" lon="6.85099">
        <ele>593.2</ele>
        <time>2020-10-24T09:44:56Z</time>
      </trkpt>
      <trkpt lat="48.07235" lon="6.85102">
        <ele>593.2</ele>
        <time>2020-10-24T09:44:57Z</time>
      </trkpt>
      <trkpt lat="48.07235" lon="6.85104">
        <ele>593.2</ele>
        <time>2020-10-24T09:44:58Z</time>
      </trkpt>
      <trkpt lat="48.07235" lon="6.85106">
        <ele>593.2</ele>
        <time>2020-10-24T09:44:59Z</time>
      </trkpt>
      <trkpt lat="48.07235" lon="6.85108">
        <ele>593.2</ele>
        <time>2020-10-24T09:45:00Z</time>
      </trkpt>
      <trkpt lat="48.07234" lon="6.8511">
        <ele>593.4</ele>
        <time>2020-10-24T09:45:01Z</time>
      </trkpt>
      <trkpt lat="48.07234" lon="6.85112">
        <ele>593.6</ele>
        <time>2020-10-24T09:45:02Z</time>
      </trkpt>
      <trkpt lat="48.07234" lon="6.85114">
        <ele>593.6</ele>
        <time>2020-10-24T09:45:03Z</time>
      </trkpt>
      <trkpt lat="48.07233" lon="6.85117">
        <ele>593.4</ele>
        <time>2020-10-24T09:45:04Z</time>
      </trkpt>
      <trkpt lat="48.07233" lon="6.85118">
        <ele>593.4</ele>
        <time>2020-10-24T09:45:05Z</time>
      </trkpt>
      <trkpt lat="48.07233" lon="6.8512">
        <ele>593.4</ele>
        <time>2020-10-24T09:45:06Z</time>
      </trkpt>
      <trkpt lat="48.07233" lon="6.85122">
        <ele>593.6</ele>
        <time>2020-10-24T09:45:07Z</time>
      </trkpt>
      <trkpt lat="48.07233" lon="6.85124">
        <ele>593.8</ele>
        <time>2020-10-24T09:45:08Z</time>
      </trkpt>
      <trkpt lat="48.07233" lon="6.85125">
        <ele>593.6</ele>
        <time>2020-10-24T09:45:09Z</time>
      </trkpt>
      <trkpt lat="48.07233" lon="6.85128">
        <ele>593.6</ele>
        <time>2020-10-24T09:45:10Z</time>
      </trkpt>
      <trkpt lat="48.07232" lon="6.8513">
        <ele>593.6</ele>
        <time>2020-10-24T09:45:11Z</time>
      </trkpt>
      <trkpt lat="48.07232" lon="6.85132">
        <ele>593.4</ele>
        <time>2020-10-24T09:45:12Z</time>
      </trkpt>
      <trkpt lat="48.07232" lon="6.85133">
        <ele>593.4</ele>
        <time>2020-10-24T09:45:13Z</time>
      </trkpt>
      <trkpt lat="48.07232" lon="6.85135">
        <ele>593.6</ele>
        <time>2020-10-24T09:45:14Z</time>
      </trkpt>
      <trkpt lat="48.07232" lon="6.85137">
        <ele>593.6</ele>
        <time>2020-10-24T09:45:15Z</time>
      </trkpt>
      <trkpt lat="48.07232" lon="6.85139">
        <ele>593.6</ele>
        <time>2020-10-24T09:45:16Z</time>
      </trkpt>
      <trkpt lat="48.07232" lon="6.85141">
        <ele>593.6</ele>
        <time>2020-10-24T09:45:17Z</time>
      </trkpt>
      <trkpt lat="48.07231" lon="6.85143">
        <ele>593.6</ele>
        <time>2020-10-24T09:45:18Z</time>
      </trkpt>
      <trkpt lat="48.07231" lon="6.85145">
        <ele>593.4</ele>
        <time>2020-10-24T09:45:19Z</time>
      </trkpt>
      <trkpt lat="48.0723" lon="6.85146">
        <ele>593.4</ele>
        <time>2020-10-24T09:45:20Z</time>
      </trkpt>
      <trkpt lat="48.0723" lon="6.85147">
        <ele>593.6</ele>
        <time>2020-10-24T09:45:21Z</time>
      </trkpt>
      <trkpt lat="48.0723" lon="6.85147">
        <ele>593.6</ele>
        <time>2020-10-24T09:45:22Z</time>
      </trkpt>
      <trkpt lat="48.0723" lon="6.85148">
        <ele>593.6</ele>
        <time>2020-10-24T09:45:23Z</time>
      </trkpt>
      <trkpt lat="48.07231" lon="6.85148">
        <ele>593.4</ele>
        <time>2020-10-24T09:45:24Z</time>
      </trkpt>
      <trkpt lat="48.07231" lon="6.85148">
        <ele>593.6</ele>
        <time>2020-10-24T09:45:25Z</time>
      </trkpt>
      <trkpt lat="48.07229" lon="6.85168">
        <ele>594</ele>
        <time>2020-10-24T09:45:45Z</time>
      </trkpt>
      <trkpt lat="48.07229" lon="6.85169">
        <ele>593.8</ele>
        <time>2020-10-24T09:45:46Z</time>
      </trkpt>
      <trkpt lat="48.07229" lon="6.85171">
        <ele>593.8</ele>
        <time>2020-10-24T09:45:47Z</time>
      </trkpt>
      <trkpt lat="48.07229" lon="6.85173">
        <ele>593.8</ele>
        <time>2020-10-24T09:45:48Z</time>
      </trkpt>
      <trkpt lat="48.07229" lon="6.85175">
        <ele>594</ele>
        <time>2020-10-24T09:45:49Z</time>
      </trkpt>
      <trkpt lat="48.07229" lon="6.85176">
        <ele>594</ele>
        <time>2020-10-24T09:45:50Z</time>
      </trkpt>
      <trkpt lat="48.07229" lon="6.85178">
        <ele>593.8</ele>
        <time>2020-10-24T09:45:51Z</time>
      </trkpt>
      <trkpt lat="48.07229" lon="6.85179">
        <ele>593.8</ele>
        <time>2020-10-24T09:45:52Z</time>
      </trkpt>
      <trkpt lat="48.07229" lon="6.85181">
        <ele>594</ele>
        <time>2020-10-24T09:45:53Z</time>
      </trkpt>
      <trkpt lat="48.07229" lon="6.85182">
        <ele>594</ele>
        <time>2020-10-24T09:45:54Z</time>
      </trkpt>
      <trkpt lat="48.07229" lon="6.85184">
        <ele>593.8</ele>
        <time>2020-10-24T09:45:55Z</time>
      </trkpt>
      <trkpt lat="48.07229" lon="6.85186">
        <ele>594</ele>
        <time>2020-10-24T09:45:56Z</time>
      </trkpt>
      <trkpt lat="48.07229" lon="6.85186">
        <ele>594</ele>
        <time>2020-10-24T09:45:57Z</time>
      </trkpt>
      <trkpt lat="48.0723" lon="6.85186">
        <ele>594</ele>
        <time>2020-10-24T09:45:58Z</time>
      </trkpt>
      <trkpt lat="48.0723" lon="6.85188">
        <ele>593.8</ele>
        <time>2020-10-24T09:45:59Z</time>
      </trkpt>
      <trkpt lat="48.0723" lon="6.85189">
        <ele>593.8</ele>
        <time>2020-10-24T09:46:00Z</time>
      </trkpt>
      <trkpt lat="48.0723" lon="6.8519">
        <ele>593.8</ele>
        <time>2020-10-24T09:46:01Z</time>
      </trkpt>
      <trkpt lat="48.0723" lon="6.85202">
        <ele>593.6</ele>
        <time>2020-10-24T09:46:08Z</time>
      </trkpt>
      <trkpt lat="48.0723" lon="6.85204">
        <ele>593.6</ele>
        <time>2020-10-24T09:46:09Z</time>
      </trkpt>
      <trkpt lat="48.0723" lon="6.85205">
        <ele>593.8</ele>
        <time>2020-10-24T09:46:10Z</time>
      </trkpt>
      <trkpt lat="48.0723" lon="6.85206">
        <ele>593.8</ele>
        <time>2020-10-24T09:46:11Z</time>
      </trkpt>
      <trkpt lat="48.0723" lon="6.85208">
        <ele>594</ele>
        <time>2020-10-24T09:46:12Z</time>
      </trkpt>
      <trkpt lat="48.0723" lon="6.85209">
        <ele>594</ele>
        <time>2020-10-24T09:46:13Z</time>
      </trkpt>
      <trkpt lat="48.07229" lon="6.8521">
        <ele>594</ele>
        <time>2020-10-24T09:46:14Z</time>
      </trkpt>
      <trkpt lat="48.07229" lon="6.85211">
        <ele>593.8</ele>
        <time>2020-10-24T09:46:15Z</time>
      </trkpt>
      <trkpt lat="48.07229" lon="6.85212">
        <ele>594</ele>
        <time>2020-10-24T09:46:16Z</time>
      </trkpt>
      <trkpt lat="48.0723" lon="6.85212">
        <ele>594</ele>
        <time>2020-10-24T09:46:17Z</time>
      </trkpt>
      <trkpt lat="48.07229" lon="6.85214">
        <ele>593.8</ele>
        <time>2020-10-24T09:46:18Z</time>
      </trkpt>
      <trkpt lat="48.07229" lon="6.85216">
        <ele>593.8</ele>
        <time>2020-10-24T09:46:19Z</time>
      </trkpt>
      <trkpt lat="48.07229" lon="6.85227">
        <ele>593.8</ele>
        <time>2020-10-24T09:46:25Z</time>
      </trkpt>
      <trkpt lat="48.07228" lon="6.85229">
        <ele>594</ele>
        <time>2020-10-24T09:46:26Z</time>
      </trkpt>
      <trkpt lat="48.07228" lon="6.8523">
        <ele>594.2</ele>
        <time>2020-10-24T09:46:27Z</time>
      </trkpt>
      <trkpt lat="48.07228" lon="6.85232">
        <ele>594.2</ele>
        <time>2020-10-24T09:46:28Z</time>
      </trkpt>
      <trkpt lat="48.07228" lon="6.85234">
        <ele>594</ele>
        <time>2020-10-24T09:46:29Z</time>
      </trkpt>
      <trkpt lat="48.07228" lon="6.85235">
        <ele>594</ele>
        <time>2020-10-24T09:46:30Z</time>
      </trkpt>
      <trkpt lat="48.07228" lon="6.85238">
        <ele>594</ele>
        <time>2020-10-24T09:46:31Z</time>
      </trkpt>
      <trkpt lat="48.07228" lon="6.8524">
        <ele>594</ele>
        <time>2020-10-24T09:46:32Z</time>
      </trkpt>
      <trkpt lat="48.07228" lon="6.85242">
        <ele>594</ele>
        <time>2020-10-24T09:46:33Z</time>
      </trkpt>
      <trkpt lat="48.07228" lon="6.85243">
        <ele>594</ele>
        <time>2020-10-24T09:46:34Z</time>
      </trkpt>
      <trkpt lat="48.07228" lon="6.85245">
        <ele>594</ele>
        <time>2020-10-24T09:46:35Z</time>
      </trkpt>
      <trkpt lat="48.07227" lon="6.85247">
        <ele>593.8</ele>
        <time>2020-10-24T09:46:36Z</time>
      </trkpt>
      <trkpt lat="48.07228" lon="6.85249">
        <ele>593.8</ele>
        <time>2020-10-24T09:46:37Z</time>
      </trkpt>
      <trkpt lat="48.07228" lon="6.85251">
        <ele>593.6</ele>
        <time>2020-10-24T09:46:38Z</time>
      </trkpt>
      <trkpt lat="48.07228" lon="6.85253">
        <ele>593.8</ele>
        <time>2020-10-24T09:46:39Z</time>
      </trkpt>
      <trkpt lat="48.07228" lon="6.85254">
        <ele>593.8</ele>
        <time>2020-10-24T09:46:40Z</time>
      </trkpt>
      <trkpt lat="48.07228" lon="6.85256">
        <ele>593.8</ele>
        <time>2020-10-24T09:46:41Z</time>
      </trkpt>
      <trkpt lat="48.07228" lon="6.85257">
        <ele>593.6</ele>
        <time>2020-10-24T09:46:42Z</time>
      </trkpt>
      <trkpt lat="48.07228" lon="6.85258">
        <ele>593.6</ele>
        <time>2020-10-24T09:46:43Z</time>
      </trkpt>
      <trkpt lat="48.07228" lon="6.85259">
        <ele>593.6</ele>
        <time>2020-10-24T09:46:44Z</time>
      </trkpt>
      <trkpt lat="48.07228" lon="6.8526">
        <ele>593.8</ele>
        <time>2020-10-24T09:46:45Z</time>
      </trkpt>
      <trkpt lat="48.07228" lon="6.85262">
        <ele>593.8</ele>
        <time>2020-10-24T09:46:46Z</time>
      </trkpt>
      <trkpt lat="48.07227" lon="6.85264">
        <ele>593.6</ele>
        <time>2020-10-24T09:46:47Z</time>
      </trkpt>
      <trkpt lat="48.07227" lon="6.85265">
        <ele>593.8</ele>
        <time>2020-10-24T09:46:48Z</time>
      </trkpt>
      <trkpt lat="48.07227" lon="6.85267">
        <ele>594</ele>
        <time>2020-10-24T09:46:49Z</time>
      </trkpt>
      <trkpt lat="48.07227" lon="6.85268">
        <ele>594</ele>
        <time>2020-10-24T09:46:50Z</time>
      </trkpt>
      <trkpt lat="48.07227" lon="6.8527">
        <ele>593.6</ele>
        <time>2020-10-24T09:46:51Z</time>
      </trkpt>
      <trkpt lat="48.07228" lon="6.85271">
        <ele>593.6</ele>
        <time>2020-10-24T09:46:52Z</time>
      </trkpt>
      <trkpt lat="48.07228" lon="6.85273">
        <ele>593.6</ele>
        <time>2020-10-24T09:46:53Z</time>
      </trkpt>
      <trkpt lat="48.07228" lon="6.85274">
        <ele>593.8</ele>
        <time>2020-10-24T09:46:54Z</time>
      </trkpt>
      <trkpt lat="48.07228" lon="6.85276">
        <ele>593.8</ele>
        <time>2020-10-24T09:46:55Z</time>
      </trkpt>
      <trkpt lat="48.07228" lon="6.85277">
        <ele>593.6</ele>
        <time>2020-10-24T09:46:56Z</time>
      </trkpt>
      <trkpt lat="48.07228" lon="6.85278">
        <ele>593.6</ele>
        <time>2020-10-24T09:46:57Z</time>
      </trkpt>
      <trkpt lat="48.07227" lon="6.8528">
        <ele>593.6</ele>
        <time>2020-10-24T09:46:58Z</time>
      </trkpt>
      <trkpt lat="48.07227" lon="6.85282">
        <ele>593.6</ele>
        <time>2020-10-24T09:46:59Z</time>
      </trkpt>
      <trkpt lat="48.07227" lon="6.85283">
        <ele>593.6</ele>
        <time>2020-10-24T09:47:00Z</time>
      </trkpt>
      <trkpt lat="48.07227" lon="6.85284">
        <ele>593.6</ele>
        <time>2020-10-24T09:47:01Z</time>
      </trkpt>
      <trkpt lat="48.07227" lon="6.85286">
        <ele>593.6</ele>
        <time>2020-10-24T09:47:02Z</time>
      </trkpt>
      <trkpt lat="48.07228" lon="6.85287">
        <ele>593.8</ele>
        <time>2020-10-24T09:47:03Z</time>
      </trkpt>
      <trkpt lat="48.07228" lon="6.85289">
        <ele>593.8</ele>
        <time>2020-10-24T09:47:04Z</time>
      </trkpt>
      <trkpt lat="48.07228" lon="6.8529">
        <ele>594</ele>
        <time>2020-10-24T09:47:05Z</time>
      </trkpt>
      <trkpt lat="48.07229" lon="6.85292">
        <ele>594</ele>
        <time>2020-10-24T09:47:06Z</time>
      </trkpt>
      <trkpt lat="48.07228" lon="6.85294">
        <ele>594</ele>
        <time>2020-10-24T09:47:07Z</time>
      </trkpt>
      <trkpt lat="48.07228" lon="6.85295">
        <ele>593.6</ele>
        <time>2020-10-24T09:47:08Z</time>
      </trkpt>
      <trkpt lat="48.07228" lon="6.85295">
        <ele>593.4</ele>
        <time>2020-10-24T09:47:09Z</time>
      </trkpt>
      <trkpt lat="48.07228" lon="6.85297">
        <ele>593.4</ele>
        <time>2020-10-24T09:47:10Z</time>
      </trkpt>
      <trkpt lat="48.07229" lon="6.85299">
        <ele>593.8</ele>
        <time>2020-10-24T09:47:11Z</time>
      </trkpt>
      <trkpt lat="48.07229" lon="6.853">
        <ele>594</ele>
        <time>2020-10-24T09:47:12Z</time>
      </trkpt>
      <trkpt lat="48.07229" lon="6.85301">
        <ele>593.8</ele>
        <time>2020-10-24T09:47:13Z</time>
      </trkpt>
      <trkpt lat="48.07229" lon="6.85303">
        <ele>593.6</ele>
        <time>2020-10-24T09:47:14Z</time>
      </trkpt>
      <trkpt lat="48.07229" lon="6.85304">
        <ele>593.4</ele>
        <time>2020-10-24T09:47:15Z</time>
      </trkpt>
      <trkpt lat="48.07229" lon="6.85305">
        <ele>593.2</ele>
        <time>2020-10-24T09:47:16Z</time>
      </trkpt>
      <trkpt lat="48.07229" lon="6.85307">
        <ele>593.2</ele>
        <time>2020-10-24T09:47:17Z</time>
      </trkpt>
      <trkpt lat="48.07229" lon="6.85307">
        <ele>593</ele>
        <time>2020-10-24T09:47:18Z</time>
      </trkpt>
      <trkpt lat="48.07229" lon="6.85309">
        <ele>595.4</ele>
        <time>2020-10-24T09:47:19Z</time>
      </trkpt>
      <trkpt lat="48.07228" lon="6.85311">
        <ele>597.2</ele>
        <time>2020-10-24T09:47:20Z</time>
      </trkpt>
      <trkpt lat="48.07228" lon="6.85313">
        <ele>596</ele>
        <time>2020-10-24T09:47:21Z</time>
      </trkpt>
      <trkpt lat="48.07228" lon="6.85314">
        <ele>594.4</ele>
        <time>2020-10-24T09:47:22Z</time>
      </trkpt>
      <trkpt lat="48.07228" lon="6.85316">
        <ele>593.8</ele>
        <time>2020-10-24T09:47:23Z</time>
      </trkpt>
      <trkpt lat="48.07228" lon="6.85317">
        <ele>593.8</ele>
        <time>2020-10-24T09:47:24Z</time>
      </trkpt>
      <trkpt lat="48.07228" lon="6.85319">
        <ele>594</ele>
        <time>2020-10-24T09:47:25Z</time>
      </trkpt>
      <trkpt lat="48.07228" lon="6.8532">
        <ele>594.4</ele>
        <time>2020-10-24T09:47:26Z</time>
      </trkpt>
      <trkpt lat="48.07228" lon="6.85322">
        <ele>594.4</ele>
        <time>2020-10-24T09:47:27Z</time>
      </trkpt>
      <trkpt lat="48.07228" lon="6.85323">
        <ele>594.2</ele>
        <time>2020-10-24T09:47:28Z</time>
      </trkpt>
      <trkpt lat="48.07228" lon="6.85325">
        <ele>594</ele>
        <time>2020-10-24T09:47:29Z</time>
      </trkpt>
      <trkpt lat="48.07228" lon="6.85327">
        <ele>593.8</ele>
        <time>2020-10-24T09:47:30Z</time>
      </trkpt>
      <trkpt lat="48.07228" lon="6.85328">
        <ele>593.8</ele>
        <time>2020-10-24T09:47:31Z</time>
      </trkpt>
      <trkpt lat="48.07227" lon="6.85329">
        <ele>594</ele>
        <time>2020-10-24T09:47:32Z</time>
      </trkpt>
      <trkpt lat="48.07227" lon="6.85331">
        <ele>594.4</ele>
        <time>2020-10-24T09:47:33Z</time>
      </trkpt>
      <trkpt lat="48.07227" lon="6.85332">
        <ele>594.8</ele>
        <time>2020-10-24T09:47:34Z</time>
      </trkpt>
      <trkpt lat="48.07227" lon="6.85334">
        <ele>594.6</ele>
        <time>2020-10-24T09:47:35Z</time>
      </trkpt>
      <trkpt lat="48.07227" lon="6.85335">
        <ele>594.2</ele>
        <time>2020-10-24T09:47:36Z</time>
      </trkpt>
      <trkpt lat="48.07227" lon="6.85337">
        <ele>594</ele>
        <time>2020-10-24T09:47:37Z</time>
      </trkpt>
      <trkpt lat="48.07227" lon="6.85338">
        <ele>593.8</ele>
        <time>2020-10-24T09:47:38Z</time>
      </trkpt>
      <trkpt lat="48.07227" lon="6.8534">
        <ele>593.8</ele>
        <time>2020-10-24T09:47:39Z</time>
      </trkpt>
      <trkpt lat="48.07227" lon="6.85341">
        <ele>594</ele>
        <time>2020-10-24T09:47:40Z</time>
      </trkpt>
      <trkpt lat="48.07227" lon="6.85342">
        <ele>594</ele>
        <time>2020-10-24T09:47:41Z</time>
      </trkpt>
      <trkpt lat="48.07227" lon="6.85344">
        <ele>594</ele>
        <time>2020-10-24T09:47:42Z</time>
      </trkpt>
      <trkpt lat="48.07227" lon="6.85345">
        <ele>594.2</ele>
        <time>2020-10-24T09:47:43Z</time>
      </trkpt>
      <trkpt lat="48.07226" lon="6.85347">
        <ele>594.2</ele>
        <time>2020-10-24T09:47:44Z</time>
      </trkpt>
      <trkpt lat="48.07226" lon="6.85348">
        <ele>594</ele>
        <time>2020-10-24T09:47:45Z</time>
      </trkpt>
      <trkpt lat="48.07226" lon="6.8535">
        <ele>594</ele>
        <time>2020-10-24T09:47:46Z</time>
      </trkpt>
      <trkpt lat="48.07227" lon="6.85351">
        <ele>594</ele>
        <time>2020-10-24T09:47:47Z</time>
      </trkpt>
      <trkpt lat="48.07227" lon="6.85353">
        <ele>594.2</ele>
        <time>2020-10-24T09:47:48Z</time>
      </trkpt>
      <trkpt lat="48.07227" lon="6.85354">
        <ele>594.2</ele>
        <time>2020-10-24T09:47:49Z</time>
      </trkpt>
      <trkpt lat="48.07227" lon="6.85355">
        <ele>594.2</ele>
        <time>2020-10-24T09:47:50Z</time>
      </trkpt>
      <trkpt lat="48.07227" lon="6.85356">
        <ele>594.2</ele>
        <time>2020-10-24T09:47:51Z</time>
      </trkpt>
      <trkpt lat="48.07227" lon="6.85358">
        <ele>594</ele>
        <time>2020-10-24T09:47:52Z</time>
      </trkpt>
      <trkpt lat="48.07227" lon="6.85359">
        <ele>593.8</ele>
        <time>2020-10-24T09:47:53Z</time>
      </trkpt>
      <trkpt lat="48.07227" lon="6.8536">
        <ele>593.6</ele>
        <time>2020-10-24T09:47:54Z</time>
      </trkpt>
      <trkpt lat="48.07227" lon="6.85362">
        <ele>593.8</ele>
        <time>2020-10-24T09:47:55Z</time>
      </trkpt>
      <trkpt lat="48.07227" lon="6.85363">
        <ele>594.4</ele>
        <time>2020-10-24T09:47:56Z</time>
      </trkpt>
      <trkpt lat="48.07227" lon="6.85365">
        <ele>594.4</ele>
        <time>2020-10-24T09:47:57Z</time>
      </trkpt>
      <trkpt lat="48.07227" lon="6.85366">
        <ele>594.2</ele>
        <time>2020-10-24T09:47:58Z</time>
      </trkpt>
      <trkpt lat="48.07227" lon="6.85368">
        <ele>594.4</ele>
        <time>2020-10-24T09:47:59Z</time>
      </trkpt>
      <trkpt lat="48.07227" lon="6.85369">
        <ele>594.6</ele>
        <time>2020-10-24T09:48:00Z</time>
      </trkpt>
      <trkpt lat="48.07227" lon="6.8537">
        <ele>594.2</ele>
        <time>2020-10-24T09:48:01Z</time>
      </trkpt>
      <trkpt lat="48.07227" lon="6.85371">
        <ele>594</ele>
        <time>2020-10-24T09:48:02Z</time>
      </trkpt>
      <trkpt lat="48.07227" lon="6.85372">
        <ele>593.8</ele>
        <time>2020-10-24T09:48:03Z</time>
      </trkpt>
      <trkpt lat="48.07227" lon="6.85374">
        <ele>593.8</ele>
        <time>2020-10-24T09:48:04Z</time>
      </trkpt>
      <trkpt lat="48.07227" lon="6.85375">
        <ele>593.8</ele>
        <time>2020-10-24T09:48:05Z</time>
      </trkpt>
      <trkpt lat="48.07227" lon="6.85377">
        <ele>593.4</ele>
        <time>2020-10-24T09:48:06Z</time>
      </trkpt>
      <trkpt lat="48.07227" lon="6.85378">
        <ele>593.4</ele>
        <time>2020-10-24T09:48:07Z</time>
      </trkpt>
      <trkpt lat="48.07227" lon="6.85379">
        <ele>593.4</ele>
        <time>2020-10-24T09:48:08Z</time>
      </trkpt>
      <trkpt lat="48.07227" lon="6.8538">
        <ele>593.6</ele>
        <time>2020-10-24T09:48:09Z</time>
      </trkpt>
      <trkpt lat="48.07227" lon="6.85382">
        <ele>594</ele>
        <time>2020-10-24T09:48:10Z</time>
      </trkpt>
      <trkpt lat="48.07227" lon="6.85383">
        <ele>594.2</ele>
        <time>2020-10-24T09:48:11Z</time>
      </trkpt>
      <trkpt lat="48.07227" lon="6.85385">
        <ele>593.8</ele>
        <time>2020-10-24T09:48:12Z</time>
      </trkpt>
      <trkpt lat="48.07227" lon="6.85386">
        <ele>593.8</ele>
        <time>2020-10-24T09:48:13Z</time>
      </trkpt>
      <trkpt lat="48.07227" lon="6.85387">
        <ele>594</ele>
        <time>2020-10-24T09:48:14Z</time>
      </trkpt>
      <trkpt lat="48.07227" lon="6.85389">
        <ele>594</ele>
        <time>2020-10-24T09:48:15Z</time>
      </trkpt>
      <trkpt lat="48.07227" lon="6.8539">
        <ele>594</ele>
        <time>2020-10-24T09:48:16Z</time>
      </trkpt>
      <trkpt lat="48.07227" lon="6.85392">
        <ele>593.8</ele>
        <time>2020-10-24T09:48:17Z</time>
      </trkpt>
      <trkpt lat="48.07227" lon="6.85393">
        <ele>593.8</ele>
        <time>2020-10-24T09:48:18Z</time>
      </trkpt>
      <trkpt lat="48.07227" lon="6.85394">
        <ele>594</ele>
        <time>2020-10-24T09:48:19Z</time>
      </trkpt>
      <trkpt lat="48.07227" lon="6.85396">
        <ele>594.2</ele>
        <time>2020-10-24T09:48:20Z</time>
      </trkpt>
      <trkpt lat="48.07227" lon="6.85397">
        <ele>594.2</ele>
        <time>2020-10-24T09:48:21Z</time>
      </trkpt>
      <trkpt lat="48.07227" lon="6.85398">
        <ele>594.2</ele>
        <time>2020-10-24T09:48:22Z</time>
      </trkpt>
      <trkpt lat="48.07227" lon="6.854">
        <ele>594.2</ele>
        <time>2020-10-24T09:48:23Z</time>
      </trkpt>
      <trkpt lat="48.07227" lon="6.85401">
        <ele>594</ele>
        <time>2020-10-24T09:48:24Z</time>
      </trkpt>
      <trkpt lat="48.07227" lon="6.85403">
        <ele>594</ele>
        <time>2020-10-24T09:48:25Z</time>
      </trkpt>
      <trkpt lat="48.07227" lon="6.85404">
        <ele>594.2</ele>
        <time>2020-10-24T09:48:26Z</time>
      </trkpt>
      <trkpt lat="48.07227" lon="6.85405">
        <ele>594.2</ele>
        <time>2020-10-24T09:48:27Z</time>
      </trkpt>
      <trkpt lat="48.07228" lon="6.85418">
        <ele>594.4</ele>
        <time>2020-10-24T09:48:34Z</time>
      </trkpt>
      <trkpt lat="48.07227" lon="6.85418">
        <ele>594.4</ele>
        <time>2020-10-24T09:48:35Z</time>
      </trkpt>
      <trkpt lat="48.07227" lon="6.85419">
        <ele>594.4</ele>
        <time>2020-10-24T09:48:36Z</time>
      </trkpt>
      <trkpt lat="48.07227" lon="6.8542">
        <ele>594.6</ele>
        <time>2020-10-24T09:48:37Z</time>
      </trkpt>
      <trkpt lat="48.07227" lon="6.85421">
        <ele>594.6</ele>
        <time>2020-10-24T09:48:38Z</time>
      </trkpt>
      <trkpt lat="48.07227" lon="6.85422">
        <ele>594.6</ele>
        <time>2020-10-24T09:48:39Z</time>
      </trkpt>
      <trkpt lat="48.07227" lon="6.85423">
        <ele>594.6</ele>
        <time>2020-10-24T09:48:40Z</time>
      </trkpt>
      <trkpt lat="48.07227" lon="6.85425">
        <ele>594.6</ele>
        <time>2020-10-24T09:48:41Z</time>
      </trkpt>
      <trkpt lat="48.07227" lon="6.85426">
        <ele>594.6</ele>
        <time>2020-10-24T09:48:42Z</time>
      </trkpt>
      <trkpt lat="48.07227" lon="6.85433">
        <ele>594.8</ele>
        <time>2020-10-24T09:48:47Z</time>
      </trkpt>
      <trkpt lat="48.07227" lon="6.85435">
        <ele>594.6</ele>
        <time>2020-10-24T09:48:48Z</time>
      </trkpt>
      <trkpt lat="48.07228" lon="6.85436">
        <ele>594.6</ele>
        <time>2020-10-24T09:48:49Z</time>
      </trkpt>
      <trkpt lat="48.07227" lon="6.85437">
        <ele>594.8</ele>
        <time>2020-10-24T09:48:50Z</time>
      </trkpt>
      <trkpt lat="48.07227" lon="6.85439">
        <ele>595</ele>
        <time>2020-10-24T09:48:51Z</time>
      </trkpt>
      <trkpt lat="48.07227" lon="6.85441">
        <ele>594.8</ele>
        <time>2020-10-24T09:48:52Z</time>
      </trkpt>
      <trkpt lat="48.07227" lon="6.85442">
        <ele>594.4</ele>
        <time>2020-10-24T09:48:53Z</time>
      </trkpt>
      <trkpt lat="48.07227" lon="6.85445">
        <ele>594.4</ele>
        <time>2020-10-24T09:48:54Z</time>
      </trkpt>
      <trkpt lat="48.07227" lon="6.85446">
        <ele>594.4</ele>
        <time>2020-10-24T09:48:55Z</time>
      </trkpt>
      <trkpt lat="48.07228" lon="6.85448">
        <ele>594.6</ele>
        <time>2020-10-24T09:48:56Z</time>
      </trkpt>
      <trkpt lat="48.07228" lon="6.8545">
        <ele>594.6</ele>
        <time>2020-10-24T09:48:57Z</time>
      </trkpt>
      <trkpt lat="48.07228" lon="6.85452">
        <ele>594.8</ele>
        <time>2020-10-24T09:48:58Z</time>
      </trkpt>
      <trkpt lat="48.07228" lon="6.85453">
        <ele>594.8</ele>
        <time>2020-10-24T09:48:59Z</time>
      </trkpt>
      <trkpt lat="48.07228" lon="6.85455">
        <ele>594.6</ele>
        <time>2020-10-24T09:49:00Z</time>
      </trkpt>
      <trkpt lat="48.07228" lon="6.85456">
        <ele>594.6</ele>
        <time>2020-10-24T09:49:01Z</time>
      </trkpt>
      <trkpt lat="48.07228" lon="6.85458">
        <ele>594.6</ele>
        <time>2020-10-24T09:49:02Z</time>
      </trkpt>
      <trkpt lat="48.07228" lon="6.85459">
        <ele>594.6</ele>
        <time>2020-10-24T09:49:03Z</time>
      </trkpt>
      <trkpt lat="48.07228" lon="6.8546">
        <ele>594.6</ele>
        <time>2020-10-24T09:49:04Z</time>
      </trkpt>
      <trkpt lat="48.07229" lon="6.85462">
        <ele>594.6</ele>
        <time>2020-10-24T09:49:05Z</time>
      </trkpt>
      <trkpt lat="48.07229" lon="6.85464">
        <ele>594.8</ele>
        <time>2020-10-24T09:49:06Z</time>
      </trkpt>
      <trkpt lat="48.07229" lon="6.85465">
        <ele>594.8</ele>
        <time>2020-10-24T09:49:07Z</time>
      </trkpt>
      <trkpt lat="48.07229" lon="6.85466">
        <ele>594.8</ele>
        <time>2020-10-24T09:49:08Z</time>
      </trkpt>
      <trkpt lat="48.07229" lon="6.85468">
        <ele>594.8</ele>
        <time>2020-10-24T09:49:09Z</time>
      </trkpt>
      <trkpt lat="48.07229" lon="6.85469">
        <ele>594.8</ele>
        <time>2020-10-24T09:49:10Z</time>
      </trkpt>
      <trkpt lat="48.07229" lon="6.85471">
        <ele>595</ele>
        <time>2020-10-24T09:49:11Z</time>
      </trkpt>
      <trkpt lat="48.07229" lon="6.85472">
        <ele>595</ele>
        <time>2020-10-24T09:49:12Z</time>
      </trkpt>
      <trkpt lat="48.07229" lon="6.85473">
        <ele>595</ele>
        <time>2020-10-24T09:49:13Z</time>
      </trkpt>
      <trkpt lat="48.07229" lon="6.85474">
        <ele>594.8</ele>
        <time>2020-10-24T09:49:14Z</time>
      </trkpt>
      <trkpt lat="48.07229" lon="6.85476">
        <ele>594.8</ele>
        <time>2020-10-24T09:49:15Z</time>
      </trkpt>
      <trkpt lat="48.07229" lon="6.85477">
        <ele>594.8</ele>
        <time>2020-10-24T09:49:16Z</time>
      </trkpt>
      <trkpt lat="48.07229" lon="6.85478">
        <ele>594.8</ele>
        <time>2020-10-24T09:49:17Z</time>
      </trkpt>
      <trkpt lat="48.07229" lon="6.85479">
        <ele>594.8</ele>
        <time>2020-10-24T09:49:18Z</time>
      </trkpt>
      <trkpt lat="48.07229" lon="6.8548">
        <ele>594.8</ele>
        <time>2020-10-24T09:49:19Z</time>
      </trkpt>
      <trkpt lat="48.07229" lon="6.85482">
        <ele>595</ele>
        <time>2020-10-24T09:49:20Z</time>
      </trkpt>
      <trkpt lat="48.07229" lon="6.85483">
        <ele>595</ele>
        <time>2020-10-24T09:49:21Z</time>
      </trkpt>
      <trkpt lat="48.07229" lon="6.85485">
        <ele>595</ele>
        <time>2020-10-24T09:49:22Z</time>
      </trkpt>
      <trkpt lat="48.07229" lon="6.85486">
        <ele>595.2</ele>
        <time>2020-10-24T09:49:23Z</time>
      </trkpt>
      <trkpt lat="48.07229" lon="6.85487">
        <ele>595.2</ele>
        <time>2020-10-24T09:49:24Z</time>
      </trkpt>
      <trkpt lat="48.07229" lon="6.85489">
        <ele>595</ele>
        <time>2020-10-24T09:49:25Z</time>
      </trkpt>
      <trkpt lat="48.0723" lon="6.85491">
        <ele>595</ele>
        <time>2020-10-24T09:49:26Z</time>
      </trkpt>
      <trkpt lat="48.0723" lon="6.85492">
        <ele>594.8</ele>
        <time>2020-10-24T09:49:27Z</time>
      </trkpt>
      <trkpt lat="48.0723" lon="6.85494">
        <ele>595</ele>
        <time>2020-10-24T09:49:28Z</time>
      </trkpt>
      <trkpt lat="48.0723" lon="6.85495">
        <ele>595</ele>
        <time>2020-10-24T09:49:29Z</time>
      </trkpt>
      <trkpt lat="48.0723" lon="6.85496">
        <ele>595</ele>
        <time>2020-10-24T09:49:30Z</time>
      </trkpt>
      <trkpt lat="48.07229" lon="6.85504">
        <ele>595</ele>
        <time>2020-10-24T09:49:35Z</time>
      </trkpt>
      <trkpt lat="48.07229" lon="6.85505">
        <ele>595</ele>
        <time>2020-10-24T09:49:36Z</time>
      </trkpt>
      <trkpt lat="48.07229" lon="6.85506">
        <ele>595.2</ele>
        <time>2020-10-24T09:49:37Z</time>
      </trkpt>
      <trkpt lat="48.0723" lon="6.85507">
        <ele>595.4</ele>
        <time>2020-10-24T09:49:38Z</time>
      </trkpt>
      <trkpt lat="48.0723" lon="6.85509">
        <ele>595.4</ele>
        <time>2020-10-24T09:49:39Z</time>
      </trkpt>
      <trkpt lat="48.0723" lon="6.85511">
        <ele>595.4</ele>
        <time>2020-10-24T09:49:40Z</time>
      </trkpt>
      <trkpt lat="48.0723" lon="6.85512">
        <ele>595.2</ele>
        <time>2020-10-24T09:49:41Z</time>
      </trkpt>
      <trkpt lat="48.0723" lon="6.85513">
        <ele>595</ele>
        <time>2020-10-24T09:49:42Z</time>
      </trkpt>
      <trkpt lat="48.0723" lon="6.85514">
        <ele>594.8</ele>
        <time>2020-10-24T09:49:43Z</time>
      </trkpt>
      <trkpt lat="48.0723" lon="6.85516">
        <ele>595</ele>
        <time>2020-10-24T09:49:44Z</time>
      </trkpt>
      <trkpt lat="48.0723" lon="6.85517">
        <ele>595</ele>
        <time>2020-10-24T09:49:45Z</time>
      </trkpt>
      <trkpt lat="48.07231" lon="6.85518">
        <ele>595.2</ele>
        <time>2020-10-24T09:49:46Z</time>
      </trkpt>
      <trkpt lat="48.07231" lon="6.85519">
        <ele>595.2</ele>
        <time>2020-10-24T09:49:47Z</time>
      </trkpt>
      <trkpt lat="48.07231" lon="6.85521">
        <ele>595.2</ele>
        <time>2020-10-24T09:49:48Z</time>
      </trkpt>
      <trkpt lat="48.07232" lon="6.85523">
        <ele>595</ele>
        <time>2020-10-24T09:49:49Z</time>
      </trkpt>
      <trkpt lat="48.07232" lon="6.85524">
        <ele>594.8</ele>
        <time>2020-10-24T09:49:50Z</time>
      </trkpt>
      <trkpt lat="48.07232" lon="6.85526">
        <ele>595</ele>
        <time>2020-10-24T09:49:51Z</time>
      </trkpt>
      <trkpt lat="48.07232" lon="6.85527">
        <ele>595</ele>
        <time>2020-10-24T09:49:52Z</time>
      </trkpt>
      <trkpt lat="48.07233" lon="6.85529">
        <ele>595</ele>
        <time>2020-10-24T09:49:53Z</time>
      </trkpt>
      <trkpt lat="48.07233" lon="6.8553">
        <ele>595.2</ele>
        <time>2020-10-24T09:49:54Z</time>
      </trkpt>
      <trkpt lat="48.07233" lon="6.85531">
        <ele>595.4</ele>
        <time>2020-10-24T09:49:55Z</time>
      </trkpt>
      <trkpt lat="48.07233" lon="6.85533">
        <ele>595.4</ele>
        <time>2020-10-24T09:49:56Z</time>
      </trkpt>
      <trkpt lat="48.07233" lon="6.85534">
        <ele>595.4</ele>
        <time>2020-10-24T09:49:57Z</time>
      </trkpt>
      <trkpt lat="48.07233" lon="6.85535">
        <ele>595.4</ele>
        <time>2020-10-24T09:49:58Z</time>
      </trkpt>
      <trkpt lat="48.07233" lon="6.85536">
        <ele>595.4</ele>
        <time>2020-10-24T09:49:59Z</time>
      </trkpt>
      <trkpt lat="48.07233" lon="6.85538">
        <ele>595.2</ele>
        <time>2020-10-24T09:50:00Z</time>
      </trkpt>
      <trkpt lat="48.07234" lon="6.85539">
        <ele>595.2</ele>
        <time>2020-10-24T09:50:01Z</time>
      </trkpt>
      <trkpt lat="48.07234" lon="6.8554">
        <ele>595.4</ele>
        <time>2020-10-24T09:50:02Z</time>
      </trkpt>
      <trkpt lat="48.07233" lon="6.85541">
        <ele>595.6</ele>
        <time>2020-10-24T09:50:03Z</time>
      </trkpt>
      <trkpt lat="48.07233" lon="6.85542">
        <ele>595.4</ele>
        <time>2020-10-24T09:50:04Z</time>
      </trkpt>
      <trkpt lat="48.07234" lon="6.85543">
        <ele>595.4</ele>
        <time>2020-10-24T09:50:05Z</time>
      </trkpt>
      <trkpt lat="48.07234" lon="6.85545">
        <ele>595.6</ele>
        <time>2020-10-24T09:50:06Z</time>
      </trkpt>
      <trkpt lat="48.07234" lon="6.85546">
        <ele>595.6</ele>
        <time>2020-10-24T09:50:07Z</time>
      </trkpt>
      <trkpt lat="48.07235" lon="6.85547">
        <ele>595.6</ele>
        <time>2020-10-24T09:50:08Z</time>
      </trkpt>
      <trkpt lat="48.07235" lon="6.85548">
        <ele>595.4</ele>
        <time>2020-10-24T09:50:09Z</time>
      </trkpt>
      <trkpt lat="48.07235" lon="6.8555">
        <ele>595.4</ele>
        <time>2020-10-24T09:50:10Z</time>
      </trkpt>
      <trkpt lat="48.07235" lon="6.85551">
        <ele>595.2</ele>
        <time>2020-10-24T09:50:11Z</time>
      </trkpt>
      <trkpt lat="48.07235" lon="6.85552">
        <ele>595.2</ele>
        <time>2020-10-24T09:50:12Z</time>
      </trkpt>
      <trkpt lat="48.07235" lon="6.85554">
        <ele>595.4</ele>
        <time>2020-10-24T09:50:13Z</time>
      </trkpt>
      <trkpt lat="48.07235" lon="6.85555">
        <ele>595.6</ele>
        <time>2020-10-24T09:50:14Z</time>
      </trkpt>
      <trkpt lat="48.07235" lon="6.85556">
        <ele>595.4</ele>
        <time>2020-10-24T09:50:15Z</time>
      </trkpt>
      <trkpt lat="48.07236" lon="6.85556">
        <ele>595.4</ele>
        <time>2020-10-24T09:50:16Z</time>
      </trkpt>
      <trkpt lat="48.07236" lon="6.85557">
        <ele>595.6</ele>
        <time>2020-10-24T09:50:17Z</time>
      </trkpt>
      <trkpt lat="48.07236" lon="6.85559">
        <ele>595.6</ele>
        <time>2020-10-24T09:50:18Z</time>
      </trkpt>
      <trkpt lat="48.07236" lon="6.85574">
        <ele>595.6</ele>
        <time>2020-10-24T09:50:29Z</time>
      </trkpt>
      <trkpt lat="48.07236" lon="6.85576">
        <ele>595.8</ele>
        <time>2020-10-24T09:50:30Z</time>
      </trkpt>
      <trkpt lat="48.07237" lon="6.85578">
        <ele>595.8</ele>
        <time>2020-10-24T09:50:31Z</time>
      </trkpt>
      <trkpt lat="48.07238" lon="6.8558">
        <ele>595.8</ele>
        <time>2020-10-24T09:50:32Z</time>
      </trkpt>
      <trkpt lat="48.07238" lon="6.85581">
        <ele>595.6</ele>
        <time>2020-10-24T09:50:33Z</time>
      </trkpt>
      <trkpt lat="48.07238" lon="6.85582">
        <ele>595.6</ele>
        <time>2020-10-24T09:50:34Z</time>
      </trkpt>
      <trkpt lat="48.07238" lon="6.85584">
        <ele>595.6</ele>
        <time>2020-10-24T09:50:35Z</time>
      </trkpt>
      <trkpt lat="48.07238" lon="6.85585">
        <ele>595.8</ele>
        <time>2020-10-24T09:50:36Z</time>
      </trkpt>
      <trkpt lat="48.07239" lon="6.85587">
        <ele>595.8</ele>
        <time>2020-10-24T09:50:37Z</time>
      </trkpt>
      <trkpt lat="48.07239" lon="6.85595">
        <ele>595.8</ele>
        <time>2020-10-24T09:50:42Z</time>
      </trkpt>
      <trkpt lat="48.0724" lon="6.85596">
        <ele>595.6</ele>
        <time>2020-10-24T09:50:43Z</time>
      </trkpt>
      <trkpt lat="48.0724" lon="6.85598">
        <ele>595.4</ele>
        <time>2020-10-24T09:50:44Z</time>
      </trkpt>
      <trkpt lat="48.0724" lon="6.856">
        <ele>595.6</ele>
        <time>2020-10-24T09:50:45Z</time>
      </trkpt>
      <trkpt lat="48.0724" lon="6.85602">
        <ele>595.8</ele>
        <time>2020-10-24T09:50:46Z</time>
      </trkpt>
      <trkpt lat="48.07241" lon="6.85603">
        <ele>595.8</ele>
        <time>2020-10-24T09:50:47Z</time>
      </trkpt>
      <trkpt lat="48.07241" lon="6.85604">
        <ele>595.8</ele>
        <time>2020-10-24T09:50:48Z</time>
      </trkpt>
      <trkpt lat="48.07241" lon="6.85605">
        <ele>596</ele>
        <time>2020-10-24T09:50:49Z</time>
      </trkpt>
      <trkpt lat="48.07242" lon="6.85607">
        <ele>596</ele>
        <time>2020-10-24T09:50:50Z</time>
      </trkpt>
      <trkpt lat="48.07242" lon="6.85608">
        <ele>595.8</ele>
        <time>2020-10-24T09:50:51Z</time>
      </trkpt>
      <trkpt lat="48.07242" lon="6.85609">
        <ele>595.6</ele>
        <time>2020-10-24T09:50:52Z</time>
      </trkpt>
      <trkpt lat="48.07244" lon="6.85617">
        <ele>595.8</ele>
        <time>2020-10-24T09:50:57Z</time>
      </trkpt>
      <trkpt lat="48.07244" lon="6.85617">
        <ele>595.8</ele>
        <time>2020-10-24T09:50:58Z</time>
      </trkpt>
      <trkpt lat="48.07244" lon="6.85619">
        <ele>595.8</ele>
        <time>2020-10-24T09:50:59Z</time>
      </trkpt>
      <trkpt lat="48.07244" lon="6.8562">
        <ele>596</ele>
        <time>2020-10-24T09:51:00Z</time>
      </trkpt>
      <trkpt lat="48.07244" lon="6.85622">
        <ele>596</ele>
        <time>2020-10-24T09:51:01Z</time>
      </trkpt>
      <trkpt lat="48.07243" lon="6.85623">
        <ele>595.8</ele>
        <time>2020-10-24T09:51:02Z</time>
      </trkpt>
      <trkpt lat="48.07244" lon="6.85625">
        <ele>595.8</ele>
        <time>2020-10-24T09:51:03Z</time>
      </trkpt>
      <trkpt lat="48.07244" lon="6.85627">
        <ele>595.8</ele>
        <time>2020-10-24T09:51:04Z</time>
      </trkpt>
      <trkpt lat="48.07244" lon="6.85628">
        <ele>596</ele>
        <time>2020-10-24T09:51:05Z</time>
      </trkpt>
      <trkpt lat="48.07245" lon="6.8563">
        <ele>596</ele>
        <time>2020-10-24T09:51:06Z</time>
      </trkpt>
      <trkpt lat="48.07244" lon="6.85632">
        <ele>596</ele>
        <time>2020-10-24T09:51:07Z</time>
      </trkpt>
      <trkpt lat="48.07245" lon="6.85633">
        <ele>596</ele>
        <time>2020-10-24T09:51:08Z</time>
      </trkpt>
      <trkpt lat="48.07245" lon="6.85635">
        <ele>596</ele>
        <time>2020-10-24T09:51:09Z</time>
      </trkpt>
      <trkpt lat="48.07245" lon="6.85637">
        <ele>595.8</ele>
        <time>2020-10-24T09:51:10Z</time>
      </trkpt>
      <trkpt lat="48.07245" lon="6.85638">
        <ele>595.8</ele>
        <time>2020-10-24T09:51:11Z</time>
      </trkpt>
      <trkpt lat="48.07246" lon="6.8564">
        <ele>595.6</ele>
        <time>2020-10-24T09:51:12Z</time>
      </trkpt>
      <trkpt lat="48.07246" lon="6.85641">
        <ele>595.4</ele>
        <time>2020-10-24T09:51:13Z</time>
      </trkpt>
      <trkpt lat="48.07246" lon="6.85643">
        <ele>595.4</ele>
        <time>2020-10-24T09:51:14Z</time>
      </trkpt>
      <trkpt lat="48.07246" lon="6.85644">
        <ele>595.6</ele>
        <time>2020-10-24T09:51:15Z</time>
      </trkpt>
      <trkpt lat="48.07246" lon="6.85645">
        <ele>595.6</ele>
        <time>2020-10-24T09:51:16Z</time>
      </trkpt>
      <trkpt lat="48.07246" lon="6.85646">
        <ele>595.8</ele>
        <time>2020-10-24T09:51:17Z</time>
      </trkpt>
      <trkpt lat="48.07246" lon="6.85648">
        <ele>595.8</ele>
        <time>2020-10-24T09:51:18Z</time>
      </trkpt>
      <trkpt lat="48.07246" lon="6.85649">
        <ele>595.8</ele>
        <time>2020-10-24T09:51:19Z</time>
      </trkpt>
      <trkpt lat="48.07246" lon="6.85651">
        <ele>595.8</ele>
        <time>2020-10-24T09:51:20Z</time>
      </trkpt>
      <trkpt lat="48.07246" lon="6.85652">
        <ele>595.8</ele>
        <time>2020-10-24T09:51:21Z</time>
      </trkpt>
      <trkpt lat="48.07247" lon="6.85653">
        <ele>595.8</ele>
        <time>2020-10-24T09:51:22Z</time>
      </trkpt>
      <trkpt lat="48.07247" lon="6.85655">
        <ele>596</ele>
        <time>2020-10-24T09:51:23Z</time>
      </trkpt>
      <trkpt lat="48.07247" lon="6.85656">
        <ele>595.8</ele>
        <time>2020-10-24T09:51:24Z</time>
      </trkpt>
      <trkpt lat="48.07248" lon="6.85657">
        <ele>595.8</ele>
        <time>2020-10-24T09:51:25Z</time>
      </trkpt>
      <trkpt lat="48.07248" lon="6.85659">
        <ele>595.8</ele>
        <time>2020-10-24T09:51:26Z</time>
      </trkpt>
      <trkpt lat="48.07249" lon="6.85661">
        <ele>595.8</ele>
        <time>2020-10-24T09:51:27Z</time>
      </trkpt>
      <trkpt lat="48.07249" lon="6.85662">
        <ele>595.8</ele>
        <time>2020-10-24T09:51:28Z</time>
      </trkpt>
      <trkpt lat="48.07249" lon="6.85664">
        <ele>595.8</ele>
        <time>2020-10-24T09:51:29Z</time>
      </trkpt>
      <trkpt lat="48.07249" lon="6.85665">
        <ele>595.8</ele>
        <time>2020-10-24T09:51:30Z</time>
      </trkpt>
      <trkpt lat="48.07249" lon="6.85666">
        <ele>595.8</ele>
        <time>2020-10-24T09:51:31Z</time>
      </trkpt>
      <trkpt lat="48.07249" lon="6.85667">
        <ele>596</ele>
        <time>2020-10-24T09:51:32Z</time>
      </trkpt>
      <trkpt lat="48.07249" lon="6.85669">
        <ele>596</ele>
        <time>2020-10-24T09:51:33Z</time>
      </trkpt>
      <trkpt lat="48.07249" lon="6.8567">
        <ele>596</ele>
        <time>2020-10-24T09:51:34Z</time>
      </trkpt>
      <trkpt lat="48.07249" lon="6.85671">
        <ele>595.8</ele>
        <time>2020-10-24T09:51:35Z</time>
      </trkpt>
      <trkpt lat="48.07249" lon="6.85672">
        <ele>595.8</ele>
        <time>2020-10-24T09:51:36Z</time>
      </trkpt>
      <trkpt lat="48.07249" lon="6.85673">
        <ele>595.8</ele>
        <time>2020-10-24T09:51:37Z</time>
      </trkpt>
      <trkpt lat="48.07249" lon="6.85675">
        <ele>595.8</ele>
        <time>2020-10-24T09:51:38Z</time>
      </trkpt>
      <trkpt lat="48.07249" lon="6.85677">
        <ele>596</ele>
        <time>2020-10-24T09:51:39Z</time>
      </trkpt>
      <trkpt lat="48.07249" lon="6.85678">
        <ele>596</ele>
        <time>2020-10-24T09:51:40Z</time>
      </trkpt>
      <trkpt lat="48.07249" lon="6.85679">
        <ele>595.8</ele>
        <time>2020-10-24T09:51:41Z</time>
      </trkpt>
      <trkpt lat="48.07249" lon="6.85681">
        <ele>595.8</ele>
        <time>2020-10-24T09:51:42Z</time>
      </trkpt>
      <trkpt lat="48.0725" lon="6.85682">
        <ele>595.8</ele>
        <time>2020-10-24T09:51:43Z</time>
      </trkpt>
      <trkpt lat="48.0725" lon="6.85684">
        <ele>595.6</ele>
        <time>2020-10-24T09:51:44Z</time>
      </trkpt>
      <trkpt lat="48.0725" lon="6.85685">
        <ele>595.6</ele>
        <time>2020-10-24T09:51:45Z</time>
      </trkpt>
      <trkpt lat="48.0725" lon="6.85686">
        <ele>595.6</ele>
        <time>2020-10-24T09:51:46Z</time>
      </trkpt>
      <trkpt lat="48.0725" lon="6.85687">
        <ele>595.6</ele>
        <time>2020-10-24T09:51:47Z</time>
      </trkpt>
      <trkpt lat="48.0725" lon="6.85688">
        <ele>595.6</ele>
        <time>2020-10-24T09:51:48Z</time>
      </trkpt>
      <trkpt lat="48.0725" lon="6.8569">
        <ele>595.6</ele>
        <time>2020-10-24T09:51:49Z</time>
      </trkpt>
      <trkpt lat="48.0725" lon="6.85692">
        <ele>595.6</ele>
        <time>2020-10-24T09:51:50Z</time>
      </trkpt>
      <trkpt lat="48.07251" lon="6.85693">
        <ele>595.6</ele>
        <time>2020-10-24T09:51:51Z</time>
      </trkpt>
      <trkpt lat="48.07251" lon="6.85695">
        <ele>595.6</ele>
        <time>2020-10-24T09:51:52Z</time>
      </trkpt>
      <trkpt lat="48.07251" lon="6.85696">
        <ele>595.8</ele>
        <time>2020-10-24T09:51:53Z</time>
      </trkpt>
      <trkpt lat="48.07251" lon="6.85698">
        <ele>595.8</ele>
        <time>2020-10-24T09:51:54Z</time>
      </trkpt>
      <trkpt lat="48.07251" lon="6.85699">
        <ele>595.6</ele>
        <time>2020-10-24T09:51:55Z</time>
      </trkpt>
      <trkpt lat="48.07251" lon="6.857">
        <ele>595.6</ele>
        <time>2020-10-24T09:51:56Z</time>
      </trkpt>
      <trkpt lat="48.07251" lon="6.85702">
        <ele>595.6</ele>
        <time>2020-10-24T09:51:57Z</time>
      </trkpt>
      <trkpt lat="48.07251" lon="6.85703">
        <ele>595.6</ele>
        <time>2020-10-24T09:51:58Z</time>
      </trkpt>
      <trkpt lat="48.07251" lon="6.85704">
        <ele>595.8</ele>
        <time>2020-10-24T09:51:59Z</time>
      </trkpt>
      <trkpt lat="48.07252" lon="6.85706">
        <ele>595.8</ele>
        <time>2020-10-24T09:52:00Z</time>
      </trkpt>
      <trkpt lat="48.07252" lon="6.85708">
        <ele>595.6</ele>
        <time>2020-10-24T09:52:01Z</time>
      </trkpt>
      <trkpt lat="48.07252" lon="6.85709">
        <ele>595.8</ele>
        <time>2020-10-24T09:52:02Z</time>
      </trkpt>
      <trkpt lat="48.07253" lon="6.85711">
        <ele>595.8</ele>
        <time>2020-10-24T09:52:03Z</time>
      </trkpt>
      <trkpt lat="48.07252" lon="6.85712">
        <ele>595.8</ele>
        <time>2020-10-24T09:52:04Z</time>
      </trkpt>
      <trkpt lat="48.07252" lon="6.85714">
        <ele>595.8</ele>
        <time>2020-10-24T09:52:05Z</time>
      </trkpt>
      <trkpt lat="48.07252" lon="6.85715">
        <ele>595.8</ele>
        <time>2020-10-24T09:52:06Z</time>
      </trkpt>
      <trkpt lat="48.07253" lon="6.85716">
        <ele>595.6</ele>
        <time>2020-10-24T09:52:07Z</time>
      </trkpt>
      <trkpt lat="48.07253" lon="6.85718">
        <ele>595.8</ele>
        <time>2020-10-24T09:52:08Z</time>
      </trkpt>
      <trkpt lat="48.07253" lon="6.85719">
        <ele>595.8</ele>
        <time>2020-10-24T09:52:09Z</time>
      </trkpt>
      <trkpt lat="48.07253" lon="6.8572">
        <ele>595.8</ele>
        <time>2020-10-24T09:52:10Z</time>
      </trkpt>
      <trkpt lat="48.07253" lon="6.85722">
        <ele>595.8</ele>
        <time>2020-10-24T09:52:11Z</time>
      </trkpt>
      <trkpt lat="48.07253" lon="6.85723">
        <ele>595.8</ele>
        <time>2020-10-24T09:52:12Z</time>
      </trkpt>
      <trkpt lat="48.07253" lon="6.85725">
        <ele>595.6</ele>
        <time>2020-10-24T09:52:13Z</time>
      </trkpt>
      <trkpt lat="48.07253" lon="6.85727">
        <ele>595.8</ele>
        <time>2020-10-24T09:52:14Z</time>
      </trkpt>
      <trkpt lat="48.07253" lon="6.85728">
        <ele>595.8</ele>
        <time>2020-10-24T09:52:15Z</time>
      </trkpt>
      <trkpt lat="48.07253" lon="6.85729">
        <ele>596</ele>
        <time>2020-10-24T09:52:16Z</time>
      </trkpt>
      <trkpt lat="48.07253" lon="6.85731">
        <ele>595.8</ele>
        <time>2020-10-24T09:52:17Z</time>
      </trkpt>
      <trkpt lat="48.07254" lon="6.85732">
        <ele>595.8</ele>
        <time>2020-10-24T09:52:18Z</time>
      </trkpt>
      <trkpt lat="48.07254" lon="6.85733">
        <ele>595.8</ele>
        <time>2020-10-24T09:52:19Z</time>
      </trkpt>
      <trkpt lat="48.07254" lon="6.85735">
        <ele>596</ele>
        <time>2020-10-24T09:52:20Z</time>
      </trkpt>
      <trkpt lat="48.07254" lon="6.85737">
        <ele>596.2</ele>
        <time>2020-10-24T09:52:21Z</time>
      </trkpt>
      <trkpt lat="48.07254" lon="6.85738">
        <ele>596</ele>
        <time>2020-10-24T09:52:22Z</time>
      </trkpt>
      <trkpt lat="48.07254" lon="6.85739">
        <ele>596</ele>
        <time>2020-10-24T09:52:23Z</time>
      </trkpt>
      <trkpt lat="48.07254" lon="6.85741">
        <ele>595.8</ele>
        <time>2020-10-24T09:52:24Z</time>
      </trkpt>
      <trkpt lat="48.07254" lon="6.85742">
        <ele>595.8</ele>
        <time>2020-10-24T09:52:25Z</time>
      </trkpt>
      <trkpt lat="48.07254" lon="6.85744">
        <ele>595.6</ele>
        <time>2020-10-24T09:52:26Z</time>
      </trkpt>
      <trkpt lat="48.07254" lon="6.85745">
        <ele>595.6</ele>
        <time>2020-10-24T09:52:27Z</time>
      </trkpt>
      <trkpt lat="48.07255" lon="6.85754">
        <ele>595.6</ele>
        <time>2020-10-24T09:52:34Z</time>
      </trkpt>
      <trkpt lat="48.07255" lon="6.85755">
        <ele>595.8</ele>
        <time>2020-10-24T09:52:35Z</time>
      </trkpt>
      <trkpt lat="48.07255" lon="6.85756">
        <ele>595.8</ele>
        <time>2020-10-24T09:52:36Z</time>
      </trkpt>
      <trkpt lat="48.07255" lon="6.85758">
        <ele>595.8</ele>
        <time>2020-10-24T09:52:37Z</time>
      </trkpt>
      <trkpt lat="48.07255" lon="6.85759">
        <ele>595.8</ele>
        <time>2020-10-24T09:52:38Z</time>
      </trkpt>
      <trkpt lat="48.07255" lon="6.85761">
        <ele>596</ele>
        <time>2020-10-24T09:52:39Z</time>
      </trkpt>
      <trkpt lat="48.07255" lon="6.85762">
        <ele>596</ele>
        <time>2020-10-24T09:52:40Z</time>
      </trkpt>
      <trkpt lat="48.07255" lon="6.85764">
        <ele>596</ele>
        <time>2020-10-24T09:52:41Z</time>
      </trkpt>
      <trkpt lat="48.07255" lon="6.85765">
        <ele>595.8</ele>
        <time>2020-10-24T09:52:42Z</time>
      </trkpt>
      <trkpt lat="48.07256" lon="6.85767">
        <ele>596</ele>
        <time>2020-10-24T09:52:43Z</time>
      </trkpt>
      <trkpt lat="48.07256" lon="6.85768">
        <ele>596</ele>
        <time>2020-10-24T09:52:44Z</time>
      </trkpt>
      <trkpt lat="48.07256" lon="6.8577">
        <ele>596</ele>
        <time>2020-10-24T09:52:45Z</time>
      </trkpt>
      <trkpt lat="48.07256" lon="6.85771">
        <ele>596</ele>
        <time>2020-10-24T09:52:46Z</time>
      </trkpt>
      <trkpt lat="48.07256" lon="6.85772">
        <ele>596</ele>
        <time>2020-10-24T09:52:47Z</time>
      </trkpt>
      <trkpt lat="48.07256" lon="6.85773">
        <ele>595.8</ele>
        <time>2020-10-24T09:52:48Z</time>
      </trkpt>
      <trkpt lat="48.07256" lon="6.85774">
        <ele>595.8</ele>
        <time>2020-10-24T09:52:49Z</time>
      </trkpt>
      <trkpt lat="48.07256" lon="6.85775">
        <ele>595.6</ele>
        <time>2020-10-24T09:52:50Z</time>
      </trkpt>
      <trkpt lat="48.07256" lon="6.85777">
        <ele>595.6</ele>
        <time>2020-10-24T09:52:51Z</time>
      </trkpt>
      <trkpt lat="48.07256" lon="6.85778">
        <ele>595.8</ele>
        <time>2020-10-24T09:52:52Z</time>
      </trkpt>
      <trkpt lat="48.0726" lon="6.85846">
        <ele>596</ele>
        <time>2020-10-24T09:53:48Z</time>
      </trkpt>
      <trkpt lat="48.0726" lon="6.85847">
        <ele>595.8</ele>
        <time>2020-10-24T09:53:49Z</time>
      </trkpt>
      <trkpt lat="48.0726" lon="6.85849">
        <ele>595.8</ele>
        <time>2020-10-24T09:53:50Z</time>
      </trkpt>
      <trkpt lat="48.07261" lon="6.8585">
        <ele>595.8</ele>
        <time>2020-10-24T09:53:51Z</time>
      </trkpt>
      <trkpt lat="48.07261" lon="6.85852">
        <ele>596</ele>
        <time>2020-10-24T09:53:52Z</time>
      </trkpt>
      <trkpt lat="48.07261" lon="6.85853">
        <ele>596</ele>
        <time>2020-10-24T09:53:53Z</time>
      </trkpt>
      <trkpt lat="48.07261" lon="6.85855">
        <ele>596</ele>
        <time>2020-10-24T09:53:54Z</time>
      </trkpt>
      <trkpt lat="48.07261" lon="6.85857">
        <ele>596</ele>
        <time>2020-10-24T09:53:55Z</time>
      </trkpt>
      <trkpt lat="48.07261" lon="6.85859">
        <ele>596</ele>
        <time>2020-10-24T09:53:56Z</time>
      </trkpt>
      <trkpt lat="48.07261" lon="6.85861">
        <ele>596.2</ele>
        <time>2020-10-24T09:53:57Z</time>
      </trkpt>
      <trkpt lat="48.07262" lon="6.85862">
        <ele>596.2</ele>
        <time>2020-10-24T09:53:58Z</time>
      </trkpt>
      <trkpt lat="48.07262" lon="6.85864">
        <ele>596</ele>
        <time>2020-10-24T09:53:59Z</time>
      </trkpt>
      <trkpt lat="48.07262" lon="6.85865">
        <ele>595.8</ele>
        <time>2020-10-24T09:54:00Z</time>
      </trkpt>
      <trkpt lat="48.07262" lon="6.85866">
        <ele>595.8</ele>
        <time>2020-10-24T09:54:01Z</time>
      </trkpt>
      <trkpt lat="48.07262" lon="6.85867">
        <ele>595.8</ele>
        <time>2020-10-24T09:54:02Z</time>
      </trkpt>
      <trkpt lat="48.07262" lon="6.85869">
        <ele>595.8</ele>
        <time>2020-10-24T09:54:03Z</time>
      </trkpt>
      <trkpt lat="48.07262" lon="6.8587">
        <ele>596</ele>
        <time>2020-10-24T09:54:04Z</time>
      </trkpt>
      <trkpt lat="48.07262" lon="6.85871">
        <ele>596</ele>
        <time>2020-10-24T09:54:05Z</time>
      </trkpt>
      <trkpt lat="48.07262" lon="6.85872">
        <ele>596.2</ele>
        <time>2020-10-24T09:54:06Z</time>
      </trkpt>
      <trkpt lat="48.07262" lon="6.85874">
        <ele>596.2</ele>
        <time>2020-10-24T09:54:07Z</time>
      </trkpt>
      <trkpt lat="48.07262" lon="6.85875">
        <ele>596.2</ele>
        <time>2020-10-24T09:54:08Z</time>
      </trkpt>
      <trkpt lat="48.07262" lon="6.85876">
        <ele>596.2</ele>
        <time>2020-10-24T09:54:09Z</time>
      </trkpt>
      <trkpt lat="48.07262" lon="6.85877">
        <ele>596.2</ele>
        <time>2020-10-24T09:54:10Z</time>
      </trkpt>
      <trkpt lat="48.07263" lon="6.85885">
        <ele>596</ele>
        <time>2020-10-24T09:54:16Z</time>
      </trkpt>
      <trkpt lat="48.07263" lon="6.85887">
        <ele>596</ele>
        <time>2020-10-24T09:54:17Z</time>
      </trkpt>
      <trkpt lat="48.07262" lon="6.85888">
        <ele>596.2</ele>
        <time>2020-10-24T09:54:18Z</time>
      </trkpt>
      <trkpt lat="48.07263" lon="6.85889">
        <ele>596.2</ele>
        <time>2020-10-24T09:54:19Z</time>
      </trkpt>
      <trkpt lat="48.07263" lon="6.8589">
        <ele>596</ele>
        <time>2020-10-24T09:54:20Z</time>
      </trkpt>
      <trkpt lat="48.07264" lon="6.85891">
        <ele>595.8</ele>
        <time>2020-10-24T09:54:21Z</time>
      </trkpt>
      <trkpt lat="48.07264" lon="6.85891">
        <ele>595.8</ele>
        <time>2020-10-24T09:54:22Z</time>
      </trkpt>
      <trkpt lat="48.07265" lon="6.85891">
        <ele>595.8</ele>
        <time>2020-10-24T09:54:23Z</time>
      </trkpt>
      <trkpt lat="48.07265" lon="6.85892">
        <ele>595.8</ele>
        <time>2020-10-24T09:54:24Z</time>
      </trkpt>
      <trkpt lat="48.07265" lon="6.85903">
        <ele>596.2</ele>
        <time>2020-10-24T09:54:29Z</time>
      </trkpt>
      <trkpt lat="48.07265" lon="6.85904">
        <ele>596.2</ele>
        <time>2020-10-24T09:54:30Z</time>
      </trkpt>
      <trkpt lat="48.07265" lon="6.85906">
        <ele>596.4</ele>
        <time>2020-10-24T09:54:31Z</time>
      </trkpt>
      <trkpt lat="48.07266" lon="6.85907">
        <ele>596.4</ele>
        <time>2020-10-24T09:54:32Z</time>
      </trkpt>
      <trkpt lat="48.07265" lon="6.85908">
        <ele>596.2</ele>
        <time>2020-10-24T09:54:33Z</time>
      </trkpt>
      <trkpt lat="48.07265" lon="6.8591">
        <ele>596</ele>
        <time>2020-10-24T09:54:34Z</time>
      </trkpt>
      <trkpt lat="48.07265" lon="6.85912">
        <ele>595.8</ele>
        <time>2020-10-24T09:54:35Z</time>
      </trkpt>
      <trkpt lat="48.07265" lon="6.85914">
        <ele>595.8</ele>
        <time>2020-10-24T09:54:36Z</time>
      </trkpt>
      <trkpt lat="48.07265" lon="6.85915">
        <ele>595.8</ele>
        <time>2020-10-24T09:54:37Z</time>
      </trkpt>
      <trkpt lat="48.07265" lon="6.85918">
        <ele>595.8</ele>
        <time>2020-10-24T09:54:38Z</time>
      </trkpt>
      <trkpt lat="48.07265" lon="6.8592">
        <ele>596</ele>
        <time>2020-10-24T09:54:39Z</time>
      </trkpt>
      <trkpt lat="48.07265" lon="6.85922">
        <ele>596.4</ele>
        <time>2020-10-24T09:54:40Z</time>
      </trkpt>
      <trkpt lat="48.07265" lon="6.85924">
        <ele>596.4</ele>
        <time>2020-10-24T09:54:41Z</time>
      </trkpt>
      <trkpt lat="48.07265" lon="6.85926">
        <ele>596.4</ele>
        <time>2020-10-24T09:54:42Z</time>
      </trkpt>
      <trkpt lat="48.07265" lon="6.85927">
        <ele>596.4</ele>
        <time>2020-10-24T09:54:43Z</time>
      </trkpt>
      <trkpt lat="48.07265" lon="6.85928">
        <ele>596.2</ele>
        <time>2020-10-24T09:54:44Z</time>
      </trkpt>
      <trkpt lat="48.07265" lon="6.8593">
        <ele>596</ele>
        <time>2020-10-24T09:54:45Z</time>
      </trkpt>
      <trkpt lat="48.07265" lon="6.85932">
        <ele>596</ele>
        <time>2020-10-24T09:54:46Z</time>
      </trkpt>
      <trkpt lat="48.07264" lon="6.85933">
        <ele>596.2</ele>
        <time>2020-10-24T09:54:47Z</time>
      </trkpt>
      <trkpt lat="48.07265" lon="6.85935">
        <ele>596.4</ele>
        <time>2020-10-24T09:54:48Z</time>
      </trkpt>
      <trkpt lat="48.07265" lon="6.85936">
        <ele>596.4</ele>
        <time>2020-10-24T09:54:49Z</time>
      </trkpt>
      <trkpt lat="48.07265" lon="6.85937">
        <ele>596.4</ele>
        <time>2020-10-24T09:54:50Z</time>
      </trkpt>
      <trkpt lat="48.07265" lon="6.85939">
        <ele>596.2</ele>
        <time>2020-10-24T09:54:51Z</time>
      </trkpt>
      <trkpt lat="48.07265" lon="6.85943">
        <ele>596.2</ele>
        <time>2020-10-24T09:54:52Z</time>
      </trkpt>
      <trkpt lat="48.07265" lon="6.85943">
        <ele>596.2</ele>
        <time>2020-10-24T09:54:53Z</time>
      </trkpt>
      <trkpt lat="48.07266" lon="6.85947">
        <ele>596.4</ele>
        <time>2020-10-24T09:54:54Z</time>
      </trkpt>
      <trkpt lat="48.07266" lon="6.85947">
        <ele>596.2</ele>
        <time>2020-10-24T09:54:55Z</time>
      </trkpt>
      <trkpt lat="48.07266" lon="6.85951">
        <ele>596</ele>
        <time>2020-10-24T09:54:56Z</time>
      </trkpt>
      <trkpt lat="48.07266" lon="6.85951">
        <ele>596.2</ele>
        <time>2020-10-24T09:54:57Z</time>
      </trkpt>
      <trkpt lat="48.07266" lon="6.85954">
        <ele>596.2</ele>
        <time>2020-10-24T09:54:58Z</time>
      </trkpt>
      <trkpt lat="48.07266" lon="6.85954">
        <ele>596.4</ele>
        <time>2020-10-24T09:54:59Z</time>
      </trkpt>
      <trkpt lat="48.07266" lon="6.85957">
        <ele>596.4</ele>
        <time>2020-10-24T09:55:00Z</time>
      </trkpt>
      <trkpt lat="48.07266" lon="6.85957">
        <ele>596.4</ele>
        <time>2020-10-24T09:55:01Z</time>
      </trkpt>
      <trkpt lat="48.07266" lon="6.85959">
        <ele>596.4</ele>
        <time>2020-10-24T09:55:02Z</time>
      </trkpt>
      <trkpt lat="48.07266" lon="6.85961">
        <ele>596.6</ele>
        <time>2020-10-24T09:55:03Z</time>
      </trkpt>
      <trkpt lat="48.07266" lon="6.85962">
        <ele>596.6</ele>
        <time>2020-10-24T09:55:04Z</time>
      </trkpt>
      <trkpt lat="48.07266" lon="6.85964">
        <ele>596.6</ele>
        <time>2020-10-24T09:55:05Z</time>
      </trkpt>
      <trkpt lat="48.07266" lon="6.85966">
        <ele>596.4</ele>
        <time>2020-10-24T09:55:06Z</time>
      </trkpt>
      <trkpt lat="48.07266" lon="6.85967">
        <ele>596.4</ele>
        <time>2020-10-24T09:55:07Z</time>
      </trkpt>
      <trkpt lat="48.07266" lon="6.85969">
        <ele>596.6</ele>
        <time>2020-10-24T09:55:08Z</time>
      </trkpt>
      <trkpt lat="48.07266" lon="6.8597">
        <ele>596.6</ele>
        <time>2020-10-24T09:55:09Z</time>
      </trkpt>
      <trkpt lat="48.07266" lon="6.85971">
        <ele>596.6</ele>
        <time>2020-10-24T09:55:10Z</time>
      </trkpt>
      <trkpt lat="48.07266" lon="6.85972">
        <ele>596.4</ele>
        <time>2020-10-24T09:55:11Z</time>
      </trkpt>
      <trkpt lat="48.07266" lon="6.85973">
        <ele>596.4</ele>
        <time>2020-10-24T09:55:12Z</time>
      </trkpt>
      <trkpt lat="48.07267" lon="6.85974">
        <ele>596.4</ele>
        <time>2020-10-24T09:55:13Z</time>
      </trkpt>
      <trkpt lat="48.07267" lon="6.85976">
        <ele>596.6</ele>
        <time>2020-10-24T09:55:14Z</time>
      </trkpt>
      <trkpt lat="48.07267" lon="6.85977">
        <ele>596.8</ele>
        <time>2020-10-24T09:55:15Z</time>
      </trkpt>
      <trkpt lat="48.07267" lon="6.85979">
        <ele>596.8</ele>
        <time>2020-10-24T09:55:16Z</time>
      </trkpt>
      <trkpt lat="48.07267" lon="6.8598">
        <ele>596.6</ele>
        <time>2020-10-24T09:55:17Z</time>
      </trkpt>
      <trkpt lat="48.07267" lon="6.85982">
        <ele>596.6</ele>
        <time>2020-10-24T09:55:18Z</time>
      </trkpt>
      <trkpt lat="48.07267" lon="6.85983">
        <ele>596.4</ele>
        <time>2020-10-24T09:55:19Z</time>
      </trkpt>
      <trkpt lat="48.07267" lon="6.85985">
        <ele>596.4</ele>
        <time>2020-10-24T09:55:20Z</time>
      </trkpt>
      <trkpt lat="48.07267" lon="6.85986">
        <ele>596.6</ele>
        <time>2020-10-24T09:55:21Z</time>
      </trkpt>
      <trkpt lat="48.07267" lon="6.85987">
        <ele>596.6</ele>
        <time>2020-10-24T09:55:22Z</time>
      </trkpt>
      <trkpt lat="48.07267" lon="6.85988">
        <ele>596.6</ele>
        <time>2020-10-24T09:55:23Z</time>
      </trkpt>
      <trkpt lat="48.07268" lon="6.8599">
        <ele>596.6</ele>
        <time>2020-10-24T09:55:24Z</time>
      </trkpt>
      <trkpt lat="48.07268" lon="6.8599">
        <ele>596.6</ele>
        <time>2020-10-24T09:55:25Z</time>
      </trkpt>
      <trkpt lat="48.07268" lon="6.86008">
        <ele>596.6</ele>
        <time>2020-10-24T09:55:37Z</time>
      </trkpt>
      <trkpt lat="48.07268" lon="6.86009">
        <ele>596.4</ele>
        <time>2020-10-24T09:55:38Z</time>
      </trkpt>
      <trkpt lat="48.07268" lon="6.86011">
        <ele>596.4</ele>
        <time>2020-10-24T09:55:39Z</time>
      </trkpt>
      <trkpt lat="48.07268" lon="6.86012">
        <ele>596.4</ele>
        <time>2020-10-24T09:55:40Z</time>
      </trkpt>
      <trkpt lat="48.07268" lon="6.86013">
        <ele>596.4</ele>
        <time>2020-10-24T09:55:41Z</time>
      </trkpt>
      <trkpt lat="48.07268" lon="6.86014">
        <ele>596.6</ele>
        <time>2020-10-24T09:55:42Z</time>
      </trkpt>
      <trkpt lat="48.07268" lon="6.86015">
        <ele>596.6</ele>
        <time>2020-10-24T09:55:43Z</time>
      </trkpt>
      <trkpt lat="48.07268" lon="6.86017">
        <ele>596.6</ele>
        <time>2020-10-24T09:55:44Z</time>
      </trkpt>
      <trkpt lat="48.07268" lon="6.86018">
        <ele>596.4</ele>
        <time>2020-10-24T09:55:45Z</time>
      </trkpt>
      <trkpt lat="48.07268" lon="6.86019">
        <ele>596.4</ele>
        <time>2020-10-24T09:55:46Z</time>
      </trkpt>
      <trkpt lat="48.07268" lon="6.86021">
        <ele>596.6</ele>
        <time>2020-10-24T09:55:47Z</time>
      </trkpt>
      <trkpt lat="48.07268" lon="6.86023">
        <ele>596.6</ele>
        <time>2020-10-24T09:55:48Z</time>
      </trkpt>
      <trkpt lat="48.07268" lon="6.86024">
        <ele>596.6</ele>
        <time>2020-10-24T09:55:49Z</time>
      </trkpt>
      <trkpt lat="48.07267" lon="6.86026">
        <ele>596.6</ele>
        <time>2020-10-24T09:55:50Z</time>
      </trkpt>
      <trkpt lat="48.07268" lon="6.86027">
        <ele>596.6</ele>
        <time>2020-10-24T09:55:51Z</time>
      </trkpt>
      <trkpt lat="48.07268" lon="6.86028">
        <ele>596.6</ele>
        <time>2020-10-24T09:55:52Z</time>
      </trkpt>
      <trkpt lat="48.07268" lon="6.8603">
        <ele>596.4</ele>
        <time>2020-10-24T09:55:53Z</time>
      </trkpt>
      <trkpt lat="48.07268" lon="6.86031">
        <ele>596.4</ele>
        <time>2020-10-24T09:55:54Z</time>
      </trkpt>
      <trkpt lat="48.07268" lon="6.86033">
        <ele>596.2</ele>
        <time>2020-10-24T09:55:55Z</time>
      </trkpt>
      <trkpt lat="48.07268" lon="6.86034">
        <ele>596.2</ele>
        <time>2020-10-24T09:55:56Z</time>
      </trkpt>
      <trkpt lat="48.07268" lon="6.86036">
        <ele>596.2</ele>
        <time>2020-10-24T09:55:57Z</time>
      </trkpt>
      <trkpt lat="48.07267" lon="6.86037">
        <ele>596.2</ele>
        <time>2020-10-24T09:55:58Z</time>
      </trkpt>
      <trkpt lat="48.07267" lon="6.86046">
        <ele>596.4</ele>
        <time>2020-10-24T09:56:04Z</time>
      </trkpt>
      <trkpt lat="48.07267" lon="6.86046">
        <ele>596.4</ele>
        <time>2020-10-24T09:56:05Z</time>
      </trkpt>
      <trkpt lat="48.07267" lon="6.86048">
        <ele>596.4</ele>
        <time>2020-10-24T09:56:06Z</time>
      </trkpt>
      <trkpt lat="48.07267" lon="6.86049">
        <ele>596.6</ele>
        <time>2020-10-24T09:56:07Z</time>
      </trkpt>
      <trkpt lat="48.07267" lon="6.8605">
        <ele>596.6</ele>
        <time>2020-10-24T09:56:08Z</time>
      </trkpt>
      <trkpt lat="48.07266" lon="6.86052">
        <ele>596.4</ele>
        <time>2020-10-24T09:56:09Z</time>
      </trkpt>
      <trkpt lat="48.07266" lon="6.86053">
        <ele>596.4</ele>
        <time>2020-10-24T09:56:10Z</time>
      </trkpt>
      <trkpt lat="48.07266" lon="6.86055">
        <ele>596.4</ele>
        <time>2020-10-24T09:56:11Z</time>
      </trkpt>
      <trkpt lat="48.07266" lon="6.86056">
        <ele>596.6</ele>
        <time>2020-10-24T09:56:12Z</time>
      </trkpt>
      <trkpt lat="48.07266" lon="6.86058">
        <ele>596.6</ele>
        <time>2020-10-24T09:56:13Z</time>
      </trkpt>
      <trkpt lat="48.07265" lon="6.8606">
        <ele>596.6</ele>
        <time>2020-10-24T09:56:14Z</time>
      </trkpt>
      <trkpt lat="48.07265" lon="6.86061">
        <ele>596.6</ele>
        <time>2020-10-24T09:56:15Z</time>
      </trkpt>
      <trkpt lat="48.07265" lon="6.86062">
        <ele>596.6</ele>
        <time>2020-10-24T09:56:16Z</time>
      </trkpt>
      <trkpt lat="48.07264" lon="6.86064">
        <ele>596.8</ele>
        <time>2020-10-24T09:56:17Z</time>
      </trkpt>
      <trkpt lat="48.07264" lon="6.86065">
        <ele>596.8</ele>
        <time>2020-10-24T09:56:18Z</time>
      </trkpt>
      <trkpt lat="48.07263" lon="6.86066">
        <ele>596.8</ele>
        <time>2020-10-24T09:56:19Z</time>
      </trkpt>
      <trkpt lat="48.07263" lon="6.86068">
        <ele>596.6</ele>
        <time>2020-10-24T09:56:20Z</time>
      </trkpt>
      <trkpt lat="48.07263" lon="6.86069">
        <ele>596.4</ele>
        <time>2020-10-24T09:56:21Z</time>
      </trkpt>
      <trkpt lat="48.07262" lon="6.8607">
        <ele>596.4</ele>
        <time>2020-10-24T09:56:22Z</time>
      </trkpt>
      <trkpt lat="48.07262" lon="6.86071">
        <ele>596.4</ele>
        <time>2020-10-24T09:56:23Z</time>
      </trkpt>
      <trkpt lat="48.07262" lon="6.86073">
        <ele>596.6</ele>
        <time>2020-10-24T09:56:24Z</time>
      </trkpt>
      <trkpt lat="48.07262" lon="6.86074">
        <ele>596.6</ele>
        <time>2020-10-24T09:56:25Z</time>
      </trkpt>
      <trkpt lat="48.07261" lon="6.86075">
        <ele>596.4</ele>
        <time>2020-10-24T09:56:26Z</time>
      </trkpt>
      <trkpt lat="48.07261" lon="6.86077">
        <ele>596.4</ele>
        <time>2020-10-24T09:56:27Z</time>
      </trkpt>
      <trkpt lat="48.07261" lon="6.86078">
        <ele>596.4</ele>
        <time>2020-10-24T09:56:28Z</time>
      </trkpt>
      <trkpt lat="48.07261" lon="6.86079">
        <ele>596.4</ele>
        <time>2020-10-24T09:56:29Z</time>
      </trkpt>
      <trkpt lat="48.07261" lon="6.86081">
        <ele>596.4</ele>
        <time>2020-10-24T09:56:30Z</time>
      </trkpt>
      <trkpt lat="48.07261" lon="6.86082">
        <ele>596.6</ele>
        <time>2020-10-24T09:56:31Z</time>
      </trkpt>
      <trkpt lat="48.07259" lon="6.86097">
        <ele>596.2</ele>
        <time>2020-10-24T09:56:43Z</time>
      </trkpt>
      <trkpt lat="48.07259" lon="6.86098">
        <ele>596</ele>
        <time>2020-10-24T09:56:44Z</time>
      </trkpt>
      <trkpt lat="48.07259" lon="6.861">
        <ele>596.2</ele>
        <time>2020-10-24T09:56:45Z</time>
      </trkpt>
      <trkpt lat="48.07259" lon="6.86101">
        <ele>596.8</ele>
        <time>2020-10-24T09:56:46Z</time>
      </trkpt>
      <trkpt lat="48.07259" lon="6.86102">
        <ele>597</ele>
        <time>2020-10-24T09:56:47Z</time>
      </trkpt>
      <trkpt lat="48.07258" lon="6.86103">
        <ele>596.6</ele>
        <time>2020-10-24T09:56:48Z</time>
      </trkpt>
      <trkpt lat="48.07258" lon="6.86105">
        <ele>596.2</ele>
        <time>2020-10-24T09:56:49Z</time>
      </trkpt>
      <trkpt lat="48.07257" lon="6.86106">
        <ele>596</ele>
        <time>2020-10-24T09:56:50Z</time>
      </trkpt>
      <trkpt lat="48.07257" lon="6.86108">
        <ele>596</ele>
        <time>2020-10-24T09:56:51Z</time>
      </trkpt>
      <trkpt lat="48.07257" lon="6.86109">
        <ele>596.2</ele>
        <time>2020-10-24T09:56:52Z</time>
      </trkpt>
      <trkpt lat="48.07256" lon="6.8611">
        <ele>596.4</ele>
        <time>2020-10-24T09:56:53Z</time>
      </trkpt>
      <trkpt lat="48.07256" lon="6.86112">
        <ele>596.4</ele>
        <time>2020-10-24T09:56:54Z</time>
      </trkpt>
      <trkpt lat="48.07256" lon="6.86113">
        <ele>596.2</ele>
        <time>2020-10-24T09:56:55Z</time>
      </trkpt>
      <trkpt lat="48.07256" lon="6.86114">
        <ele>596</ele>
        <time>2020-10-24T09:56:56Z</time>
      </trkpt>
      <trkpt lat="48.07196" lon="6.86358">
        <ele>596.6</ele>
        <time>2020-10-24T10:00:20Z</time>
      </trkpt>
      <trkpt lat="48.07196" lon="6.86359">
        <ele>596.6</ele>
        <time>2020-10-24T10:00:21Z</time>
      </trkpt>
      <trkpt lat="48.07195" lon="6.8636">
        <ele>596.6</ele>
        <time>2020-10-24T10:00:22Z</time>
      </trkpt>
      <trkpt lat="48.07195" lon="6.86361">
        <ele>596.8</ele>
        <time>2020-10-24T10:00:23Z</time>
      </trkpt>
      <trkpt lat="48.07195" lon="6.86362">
        <ele>596.8</ele>
        <time>2020-10-24T10:00:24Z</time>
      </trkpt>
      <trkpt lat="48.07195" lon="6.86363">
        <ele>596.8</ele>
        <time>2020-10-24T10:00:25Z</time>
      </trkpt>
      <trkpt lat="48.07195" lon="6.86365">
        <ele>596.6</ele>
        <time>2020-10-24T10:00:26Z</time>
      </trkpt>
      <trkpt lat="48.07187" lon="6.86419">
        <ele>597.8</ele>
        <time>2020-10-24T10:01:09Z</time>
      </trkpt>
      <trkpt lat="48.07187" lon="6.86421">
        <ele>597.6</ele>
        <time>2020-10-24T10:01:10Z</time>
      </trkpt>
      <trkpt lat="48.07186" lon="6.86423">
        <ele>597.4</ele>
        <time>2020-10-24T10:01:11Z</time>
      </trkpt>
      <trkpt lat="48.07186" lon="6.86424">
        <ele>597.6</ele>
        <time>2020-10-24T10:01:12Z</time>
      </trkpt>
      <trkpt lat="48.07186" lon="6.86426">
        <ele>597.4</ele>
        <time>2020-10-24T10:01:13Z</time>
      </trkpt>
      <trkpt lat="48.07186" lon="6.86427">
        <ele>597.2</ele>
        <time>2020-10-24T10:01:14Z</time>
      </trkpt>
      <trkpt lat="48.07186" lon="6.86429">
        <ele>597.4</ele>
        <time>2020-10-24T10:01:15Z</time>
      </trkpt>
      <trkpt lat="48.07186" lon="6.8643">
        <ele>597.6</ele>
        <time>2020-10-24T10:01:16Z</time>
      </trkpt>
      <trkpt lat="48.07186" lon="6.86432">
        <ele>597.6</ele>
        <time>2020-10-24T10:01:17Z</time>
      </trkpt>
      <trkpt lat="48.07186" lon="6.86433">
        <ele>597.8</ele>
        <time>2020-10-24T10:01:18Z</time>
      </trkpt>
      <trkpt lat="48.07186" lon="6.86435">
        <ele>597.6</ele>
        <time>2020-10-24T10:01:19Z</time>
      </trkpt>
      <trkpt lat="48.07186" lon="6.86436">
        <ele>597.4</ele>
        <time>2020-10-24T10:01:20Z</time>
      </trkpt>
      <trkpt lat="48.07185" lon="6.86438">
        <ele>597.4</ele>
        <time>2020-10-24T10:01:21Z</time>
      </trkpt>
      <trkpt lat="48.07185" lon="6.86439">
        <ele>597.6</ele>
        <time>2020-10-24T10:01:22Z</time>
      </trkpt>
      <trkpt lat="48.07185" lon="6.8644">
        <ele>597.6</ele>
        <time>2020-10-24T10:01:23Z</time>
      </trkpt>
      <trkpt lat="48.07185" lon="6.86442">
        <ele>597.6</ele>
        <time>2020-10-24T10:01:24Z</time>
      </trkpt>
      <trkpt lat="48.07185" lon="6.86443">
        <ele>597.6</ele>
        <time>2020-10-24T10:01:25Z</time>
      </trkpt>
      <trkpt lat="48.07185" lon="6.86445">
        <ele>597.6</ele>
        <time>2020-10-24T10:01:26Z</time>
      </trkpt>
      <trkpt lat="48.07185" lon="6.86446">
        <ele>597.6</ele>
        <time>2020-10-24T10:01:27Z</time>
      </trkpt>
      <trkpt lat="48.07184" lon="6.86447">
        <ele>597.6</ele>
        <time>2020-10-24T10:01:28Z</time>
      </trkpt>
      <trkpt lat="48.07184" lon="6.86449">
        <ele>597.8</ele>
        <time>2020-10-24T10:01:29Z</time>
      </trkpt>
      <trkpt lat="48.07184" lon="6.86449">
        <ele>598</ele>
        <time>2020-10-24T10:01:30Z</time>
      </trkpt>
      <trkpt lat="48.07185" lon="6.86451">
        <ele>598</ele>
        <time>2020-10-24T10:01:31Z</time>
      </trkpt>
      <trkpt lat="48.07182" lon="6.86483">
        <ele>597.6</ele>
        <time>2020-10-24T10:01:56Z</time>
      </trkpt>
      <trkpt lat="48.07182" lon="6.86484">
        <ele>597.8</ele>
        <time>2020-10-24T10:01:57Z</time>
      </trkpt>
      <trkpt lat="48.07181" lon="6.86485">
        <ele>598</ele>
        <time>2020-10-24T10:01:58Z</time>
      </trkpt>
      <trkpt lat="48.0718" lon="6.86485">
        <ele>598</ele>
        <time>2020-10-24T10:01:59Z</time>
      </trkpt>
      <trkpt lat="48.07179" lon="6.86485">
        <ele>598</ele>
        <time>2020-10-24T10:02:00Z</time>
      </trkpt>
      <trkpt lat="48.07179" lon="6.86485">
        <ele>597.8</ele>
        <time>2020-10-24T10:02:01Z</time>
      </trkpt>
      <trkpt lat="48.07178" lon="6.86486">
        <ele>597.4</ele>
        <time>2020-10-24T10:02:02Z</time>
      </trkpt>
      <trkpt lat="48.07178" lon="6.86487">
        <ele>597.2</ele>
        <time>2020-10-24T10:02:03Z</time>
      </trkpt>
      <trkpt lat="48.07175" lon="6.86502">
        <ele>596.6</ele>
        <time>2020-10-24T10:02:13Z</time>
      </trkpt>
      <trkpt lat="48.07175" lon="6.86504">
        <ele>596.6</ele>
        <time>2020-10-24T10:02:14Z</time>
      </trkpt>
      <trkpt lat="48.07175" lon="6.86506">
        <ele>596.6</ele>
        <time>2020-10-24T10:02:15Z</time>
      </trkpt>
      <trkpt lat="48.07174" lon="6.86508">
        <ele>596.4</ele>
        <time>2020-10-24T10:02:16Z</time>
      </trkpt>
      <trkpt lat="48.07174" lon="6.8651">
        <ele>596.2</ele>
        <time>2020-10-24T10:02:17Z</time>
      </trkpt>
      <trkpt lat="48.07173" lon="6.86512">
        <ele>596.4</ele>
        <time>2020-10-24T10:02:18Z</time>
      </trkpt>
      <trkpt lat="48.07173" lon="6.86513">
        <ele>596.6</ele>
        <time>2020-10-24T10:02:19Z</time>
      </trkpt>
      <trkpt lat="48.07173" lon="6.86515">
        <ele>596.8</ele>
        <time>2020-10-24T10:02:20Z</time>
      </trkpt>
      <trkpt lat="48.07172" lon="6.86517">
        <ele>596.8</ele>
        <time>2020-10-24T10:02:21Z</time>
      </trkpt>
      <trkpt lat="48.07172" lon="6.86518">
        <ele>596.6</ele>
        <time>2020-10-24T10:02:22Z</time>
      </trkpt>
      <trkpt lat="48.07172" lon="6.8652">
        <ele>596.6</ele>
        <time>2020-10-24T10:02:23Z</time>
      </trkpt>
      <trkpt lat="48.07171" lon="6.86522">
        <ele>596.8</ele>
        <time>2020-10-24T10:02:24Z</time>
      </trkpt>
      <trkpt lat="48.07171" lon="6.86523">
        <ele>596.6</ele>
        <time>2020-10-24T10:02:25Z</time>
      </trkpt>
      <trkpt lat="48.07171" lon="6.86525">
        <ele>596.6</ele>
        <time>2020-10-24T10:02:26Z</time>
      </trkpt>
      <trkpt lat="48.07171" lon="6.86526">
        <ele>596.6</ele>
        <time>2020-10-24T10:02:27Z</time>
      </trkpt>
      <trkpt lat="48.07171" lon="6.86528">
        <ele>596.6</ele>
        <time>2020-10-24T10:02:28Z</time>
      </trkpt>
      <trkpt lat="48.07171" lon="6.8653">
        <ele>596.4</ele>
        <time>2020-10-24T10:02:29Z</time>
      </trkpt>
      <trkpt lat="48.07171" lon="6.86532">
        <ele>596.4</ele>
        <time>2020-10-24T10:02:30Z</time>
      </trkpt>
      <trkpt lat="48.07171" lon="6.86534">
        <ele>596.4</ele>
        <time>2020-10-24T10:02:31Z</time>
      </trkpt>
      <trkpt lat="48.0717" lon="6.86536">
        <ele>596.4</ele>
        <time>2020-10-24T10:02:32Z</time>
      </trkpt>
      <trkpt lat="48.07171" lon="6.86538">
        <ele>596.4</ele>
        <time>2020-10-24T10:02:33Z</time>
      </trkpt>
      <trkpt lat="48.0717" lon="6.8654">
        <ele>596.6</ele>
        <time>2020-10-24T10:02:34Z</time>
      </trkpt>
      <trkpt lat="48.07169" lon="6.86542">
        <ele>596.6</ele>
        <time>2020-10-24T10:02:35Z</time>
      </trkpt>
      <trkpt lat="48.07169" lon="6.86543">
        <ele>596.6</ele>
        <time>2020-10-24T10:02:36Z</time>
      </trkpt>
      <trkpt lat="48.07169" lon="6.86545">
        <ele>596.4</ele>
        <time>2020-10-24T10:02:37Z</time>
      </trkpt>
      <trkpt lat="48.07169" lon="6.86546">
        <ele>596.4</ele>
        <time>2020-10-24T10:02:38Z</time>
      </trkpt>
      <trkpt lat="48.07169" lon="6.86548">
        <ele>596.4</ele>
        <time>2020-10-24T10:02:39Z</time>
      </trkpt>
      <trkpt lat="48.07168" lon="6.8655">
        <ele>596.6</ele>
        <time>2020-10-24T10:02:40Z</time>
      </trkpt>
      <trkpt lat="48.07168" lon="6.86552">
        <ele>596.6</ele>
        <time>2020-10-24T10:02:41Z</time>
      </trkpt>
      <trkpt lat="48.07167" lon="6.86553">
        <ele>596.6</ele>
        <time>2020-10-24T10:02:42Z</time>
      </trkpt>
      <trkpt lat="48.07167" lon="6.86555">
        <ele>596.6</ele>
        <time>2020-10-24T10:02:43Z</time>
      </trkpt>
      <trkpt lat="48.07166" lon="6.86556">
        <ele>596.6</ele>
        <time>2020-10-24T10:02:44Z</time>
      </trkpt>
      <trkpt lat="48.07166" lon="6.86558">
        <ele>596.4</ele>
        <time>2020-10-24T10:02:45Z</time>
      </trkpt>
      <trkpt lat="48.07166" lon="6.8656">
        <ele>596.2</ele>
        <time>2020-10-24T10:02:46Z</time>
      </trkpt>
      <trkpt lat="48.07166" lon="6.86562">
        <ele>596.2</ele>
        <time>2020-10-24T10:02:47Z</time>
      </trkpt>
      <trkpt lat="48.07165" lon="6.86563">
        <ele>596.2</ele>
        <time>2020-10-24T10:02:48Z</time>
      </trkpt>
      <trkpt lat="48.07164" lon="6.86565">
        <ele>596</ele>
        <time>2020-10-24T10:02:49Z</time>
      </trkpt>
      <trkpt lat="48.07164" lon="6.86566">
        <ele>596</ele>
        <time>2020-10-24T10:02:50Z</time>
      </trkpt>
      <trkpt lat="48.07163" lon="6.86568">
        <ele>596.4</ele>
        <time>2020-10-24T10:02:51Z</time>
      </trkpt>
      <trkpt lat="48.07163" lon="6.8657">
        <ele>596.4</ele>
        <time>2020-10-24T10:02:52Z</time>
      </trkpt>
      <trkpt lat="48.07163" lon="6.86571">
        <ele>596.4</ele>
        <time>2020-10-24T10:02:53Z</time>
      </trkpt>
      <trkpt lat="48.07163" lon="6.86573">
        <ele>596.4</ele>
        <time>2020-10-24T10:02:54Z</time>
      </trkpt>
      <trkpt lat="48.07163" lon="6.86575">
        <ele>596.4</ele>
        <time>2020-10-24T10:02:55Z</time>
      </trkpt>
      <trkpt lat="48.07162" lon="6.86576">
        <ele>596.4</ele>
        <time>2020-10-24T10:02:56Z</time>
      </trkpt>
      <trkpt lat="48.07162" lon="6.86578">
        <ele>596.2</ele>
        <time>2020-10-24T10:02:57Z</time>
      </trkpt>
      <trkpt lat="48.07161" lon="6.86579">
        <ele>596.2</ele>
        <time>2020-10-24T10:02:58Z</time>
      </trkpt>
      <trkpt lat="48.07161" lon="6.86581">
        <ele>596.2</ele>
        <time>2020-10-24T10:02:59Z</time>
      </trkpt>
      <trkpt lat="48.07161" lon="6.86583">
        <ele>596.2</ele>
        <time>2020-10-24T10:03:00Z</time>
      </trkpt>
      <trkpt lat="48.07161" lon="6.86585">
        <ele>596.4</ele>
        <time>2020-10-24T10:03:01Z</time>
      </trkpt>
      <trkpt lat="48.0716" lon="6.86586">
        <ele>596.2</ele>
        <time>2020-10-24T10:03:02Z</time>
      </trkpt>
      <trkpt lat="48.0716" lon="6.86588">
        <ele>596</ele>
        <time>2020-10-24T10:03:03Z</time>
      </trkpt>
      <trkpt lat="48.0716" lon="6.8659">
        <ele>596</ele>
        <time>2020-10-24T10:03:04Z</time>
      </trkpt>
      <trkpt lat="48.0716" lon="6.86592">
        <ele>596.2</ele>
        <time>2020-10-24T10:03:05Z</time>
      </trkpt>
      <trkpt lat="48.07159" lon="6.86593">
        <ele>596.4</ele>
        <time>2020-10-24T10:03:06Z</time>
      </trkpt>
      <trkpt lat="48.07159" lon="6.86595">
        <ele>596.2</ele>
        <time>2020-10-24T10:03:07Z</time>
      </trkpt>
      <trkpt lat="48.07159" lon="6.86596">
        <ele>596.2</ele>
        <time>2020-10-24T10:03:08Z</time>
      </trkpt>
      <trkpt lat="48.07159" lon="6.86598">
        <ele>596.2</ele>
        <time>2020-10-24T10:03:09Z</time>
      </trkpt>
      <trkpt lat="48.07159" lon="6.866">
        <ele>596.2</ele>
        <time>2020-10-24T10:03:10Z</time>
      </trkpt>
      <trkpt lat="48.07159" lon="6.86601">
        <ele>596.4</ele>
        <time>2020-10-24T10:03:11Z</time>
      </trkpt>
      <trkpt lat="48.07158" lon="6.86603">
        <ele>596.6</ele>
        <time>2020-10-24T10:03:12Z</time>
      </trkpt>
      <trkpt lat="48.07158" lon="6.86604">
        <ele>596.6</ele>
        <time>2020-10-24T10:03:13Z</time>
      </trkpt>
      <trkpt lat="48.07158" lon="6.86606">
        <ele>596.6</ele>
        <time>2020-10-24T10:03:14Z</time>
      </trkpt>
      <trkpt lat="48.07158" lon="6.86607">
        <ele>596.6</ele>
        <time>2020-10-24T10:03:15Z</time>
      </trkpt>
      <trkpt lat="48.07157" lon="6.86609">
        <ele>596.4</ele>
        <time>2020-10-24T10:03:16Z</time>
      </trkpt>
      <trkpt lat="48.07157" lon="6.86611">
        <ele>596.4</ele>
        <time>2020-10-24T10:03:17Z</time>
      </trkpt>
      <trkpt lat="48.07157" lon="6.86612">
        <ele>596.4</ele>
        <time>2020-10-24T10:03:18Z</time>
      </trkpt>
      <trkpt lat="48.07157" lon="6.86614">
        <ele>596.6</ele>
        <time>2020-10-24T10:03:19Z</time>
      </trkpt>
      <trkpt lat="48.07156" lon="6.86615">
        <ele>596.6</ele>
        <time>2020-10-24T10:03:20Z</time>
      </trkpt>
      <trkpt lat="48.07156" lon="6.86616">
        <ele>596.2</ele>
        <time>2020-10-24T10:03:21Z</time>
      </trkpt>
      <trkpt lat="48.07156" lon="6.86618">
        <ele>596</ele>
        <time>2020-10-24T10:03:22Z</time>
      </trkpt>
      <trkpt lat="48.07155" lon="6.8662">
        <ele>596.2</ele>
        <time>2020-10-24T10:03:23Z</time>
      </trkpt>
      <trkpt lat="48.07154" lon="6.86621">
        <ele>596.2</ele>
        <time>2020-10-24T10:03:24Z</time>
      </trkpt>
      <trkpt lat="48.07153" lon="6.86621">
        <ele>596.2</ele>
        <time>2020-10-24T10:03:25Z</time>
      </trkpt>
      <trkpt lat="48.07152" lon="6.86621">
        <ele>596.4</ele>
        <time>2020-10-24T10:03:26Z</time>
      </trkpt>
      <trkpt lat="48.07151" lon="6.86621">
        <ele>596.4</ele>
        <time>2020-10-24T10:03:27Z</time>
      </trkpt>
      <trkpt lat="48.0715" lon="6.86622">
        <ele>596.4</ele>
        <time>2020-10-24T10:03:28Z</time>
      </trkpt>
      <trkpt lat="48.07149" lon="6.86623">
        <ele>596.4</ele>
        <time>2020-10-24T10:03:29Z</time>
      </trkpt>
      <trkpt lat="48.07148" lon="6.86624">
        <ele>596.4</ele>
        <time>2020-10-24T10:03:30Z</time>
      </trkpt>
      <trkpt lat="48.07147" lon="6.86624">
        <ele>596.4</ele>
        <time>2020-10-24T10:03:31Z</time>
      </trkpt>
      <trkpt lat="48.07146" lon="6.86625">
        <ele>596.4</ele>
        <time>2020-10-24T10:03:32Z</time>
      </trkpt>
      <trkpt lat="48.07145" lon="6.86626">
        <ele>596.6</ele>
        <time>2020-10-24T10:03:33Z</time>
      </trkpt>
      <trkpt lat="48.07144" lon="6.86627">
        <ele>596.6</ele>
        <time>2020-10-24T10:03:34Z</time>
      </trkpt>
      <trkpt lat="48.07144" lon="6.86628">
        <ele>596.4</ele>
        <time>2020-10-24T10:03:35Z</time>
      </trkpt>
      <trkpt lat="48.07143" lon="6.86629">
        <ele>596.2</ele>
        <time>2020-10-24T10:03:36Z</time>
      </trkpt>
      <trkpt lat="48.07142" lon="6.8663">
        <ele>596.4</ele>
        <time>2020-10-24T10:03:37Z</time>
      </trkpt>
      <trkpt lat="48.07141" lon="6.86631">
        <ele>596.4</ele>
        <time>2020-10-24T10:03:38Z</time>
      </trkpt>
      <trkpt lat="48.0714" lon="6.86632">
        <ele>596.4</ele>
        <time>2020-10-24T10:03:39Z</time>
      </trkpt>
      <trkpt lat="48.0714" lon="6.86633">
        <ele>596.2</ele>
        <time>2020-10-24T10:03:40Z</time>
      </trkpt>
      <trkpt lat="48.07139" lon="6.86634">
        <ele>596.4</ele>
        <time>2020-10-24T10:03:41Z</time>
      </trkpt>
      <trkpt lat="48.07138" lon="6.86635">
        <ele>596.4</ele>
        <time>2020-10-24T10:03:42Z</time>
      </trkpt>
      <trkpt lat="48.07138" lon="6.86636">
        <ele>596.4</ele>
        <time>2020-10-24T10:03:43Z</time>
      </trkpt>
      <trkpt lat="48.07137" lon="6.86637">
        <ele>596.2</ele>
        <time>2020-10-24T10:03:44Z</time>
      </trkpt>
      <trkpt lat="48.07136" lon="6.86638">
        <ele>596.2</ele>
        <time>2020-10-24T10:03:45Z</time>
      </trkpt>
      <trkpt lat="48.07136" lon="6.86639">
        <ele>596.2</ele>
        <time>2020-10-24T10:03:46Z</time>
      </trkpt>
      <trkpt lat="48.07135" lon="6.8664">
        <ele>596</ele>
        <time>2020-10-24T10:03:47Z</time>
      </trkpt>
      <trkpt lat="48.07135" lon="6.8664">
        <ele>596</ele>
        <time>2020-10-24T10:03:48Z</time>
      </trkpt>
      <trkpt lat="48.07134" lon="6.86641">
        <ele>596.2</ele>
        <time>2020-10-24T10:03:49Z</time>
      </trkpt>
      <trkpt lat="48.07133" lon="6.86642">
        <ele>596.4</ele>
        <time>2020-10-24T10:03:50Z</time>
      </trkpt>
      <trkpt lat="48.07132" lon="6.86643">
        <ele>596.6</ele>
        <time>2020-10-24T10:03:51Z</time>
      </trkpt>
      <trkpt lat="48.07131" lon="6.86643">
        <ele>596.4</ele>
        <time>2020-10-24T10:03:52Z</time>
      </trkpt>
      <trkpt lat="48.07131" lon="6.86643">
        <ele>596.4</ele>
        <time>2020-10-24T10:03:53Z</time>
      </trkpt>
      <trkpt lat="48.07129" lon="6.86643">
        <ele>596.4</ele>
        <time>2020-10-24T10:03:54Z</time>
      </trkpt>
      <trkpt lat="48.07128" lon="6.86644">
        <ele>596.4</ele>
        <time>2020-10-24T10:03:55Z</time>
      </trkpt>
      <trkpt lat="48.07128" lon="6.86645">
        <ele>596.6</ele>
        <time>2020-10-24T10:03:56Z</time>
      </trkpt>
      <trkpt lat="48.07127" lon="6.86646">
        <ele>596.6</ele>
        <time>2020-10-24T10:03:57Z</time>
      </trkpt>
      <trkpt lat="48.07126" lon="6.86647">
        <ele>596.4</ele>
        <time>2020-10-24T10:03:58Z</time>
      </trkpt>
      <trkpt lat="48.07125" lon="6.86647">
        <ele>596.2</ele>
        <time>2020-10-24T10:03:59Z</time>
      </trkpt>
      <trkpt lat="48.07123" lon="6.86648">
        <ele>596.2</ele>
        <time>2020-10-24T10:04:00Z</time>
      </trkpt>
      <trkpt lat="48.07123" lon="6.86648">
        <ele>596.2</ele>
        <time>2020-10-24T10:04:01Z</time>
      </trkpt>
      <trkpt lat="48.07122" lon="6.86649">
        <ele>596.2</ele>
        <time>2020-10-24T10:04:02Z</time>
      </trkpt>
      <trkpt lat="48.07121" lon="6.8665">
        <ele>596.2</ele>
        <time>2020-10-24T10:04:03Z</time>
      </trkpt>
      <trkpt lat="48.0712" lon="6.86651">
        <ele>596.6</ele>
        <time>2020-10-24T10:04:04Z</time>
      </trkpt>
      <trkpt lat="48.07119" lon="6.86652">
        <ele>596.8</ele>
        <time>2020-10-24T10:04:05Z</time>
      </trkpt>
      <trkpt lat="48.07118" lon="6.86653">
        <ele>596.6</ele>
        <time>2020-10-24T10:04:06Z</time>
      </trkpt>
      <trkpt lat="48.07117" lon="6.86653">
        <ele>596.4</ele>
        <time>2020-10-24T10:04:07Z</time>
      </trkpt>
      <trkpt lat="48.07116" lon="6.86654">
        <ele>596.4</ele>
        <time>2020-10-24T10:04:08Z</time>
      </trkpt>
      <trkpt lat="48.07115" lon="6.86655">
        <ele>596.4</ele>
        <time>2020-10-24T10:04:09Z</time>
      </trkpt>
      <trkpt lat="48.07114" lon="6.86656">
        <ele>596.4</ele>
        <time>2020-10-24T10:04:10Z</time>
      </trkpt>
      <trkpt lat="48.07113" lon="6.86657">
        <ele>596.4</ele>
        <time>2020-10-24T10:04:11Z</time>
      </trkpt>
      <trkpt lat="48.07112" lon="6.86658">
        <ele>596.2</ele>
        <time>2020-10-24T10:04:12Z</time>
      </trkpt>
      <trkpt lat="48.07111" lon="6.8666">
        <ele>596.2</ele>
        <time>2020-10-24T10:04:13Z</time>
      </trkpt>
      <trkpt lat="48.0711" lon="6.86661">
        <ele>596.2</ele>
        <time>2020-10-24T10:04:14Z</time>
      </trkpt>
      <trkpt lat="48.0711" lon="6.86662">
        <ele>596.4</ele>
        <time>2020-10-24T10:04:15Z</time>
      </trkpt>
      <trkpt lat="48.07109" lon="6.86663">
        <ele>596.6</ele>
        <time>2020-10-24T10:04:16Z</time>
      </trkpt>
      <trkpt lat="48.07108" lon="6.86665">
        <ele>596.6</ele>
        <time>2020-10-24T10:04:17Z</time>
      </trkpt>
      <trkpt lat="48.07107" lon="6.86666">
        <ele>596.4</ele>
        <time>2020-10-24T10:04:18Z</time>
      </trkpt>
      <trkpt lat="48.07106" lon="6.86667">
        <ele>596.4</ele>
        <time>2020-10-24T10:04:19Z</time>
      </trkpt>
      <trkpt lat="48.07106" lon="6.86668">
        <ele>596.4</ele>
        <time>2020-10-24T10:04:20Z</time>
      </trkpt>
      <trkpt lat="48.07105" lon="6.86669">
        <ele>596.4</ele>
        <time>2020-10-24T10:04:21Z</time>
      </trkpt>
      <trkpt lat="48.07104" lon="6.8667">
        <ele>596.4</ele>
        <time>2020-10-24T10:04:22Z</time>
      </trkpt>
      <trkpt lat="48.07103" lon="6.86672">
        <ele>596.4</ele>
        <time>2020-10-24T10:04:23Z</time>
      </trkpt>
      <trkpt lat="48.07103" lon="6.86673">
        <ele>596.2</ele>
        <time>2020-10-24T10:04:24Z</time>
      </trkpt>
      <trkpt lat="48.07102" lon="6.86673">
        <ele>596.2</ele>
        <time>2020-10-24T10:04:25Z</time>
      </trkpt>
      <trkpt lat="48.07101" lon="6.86674">
        <ele>596.2</ele>
        <time>2020-10-24T10:04:26Z</time>
      </trkpt>
      <trkpt lat="48.07101" lon="6.86675">
        <ele>596.2</ele>
        <time>2020-10-24T10:04:27Z</time>
      </trkpt>
      <trkpt lat="48.071" lon="6.86677">
        <ele>596.4</ele>
        <time>2020-10-24T10:04:28Z</time>
      </trkpt>
      <trkpt lat="48.071" lon="6.86678">
        <ele>596.4</ele>
        <time>2020-10-24T10:04:29Z</time>
      </trkpt>
      <trkpt lat="48.07099" lon="6.86679">
        <ele>596.4</ele>
        <time>2020-10-24T10:04:30Z</time>
      </trkpt>
      <trkpt lat="48.07098" lon="6.8668">
        <ele>596.4</ele>
        <time>2020-10-24T10:04:31Z</time>
      </trkpt>
      <trkpt lat="48.07098" lon="6.86681">
        <ele>596.6</ele>
        <time>2020-10-24T10:04:32Z</time>
      </trkpt>
      <trkpt lat="48.07097" lon="6.86682">
        <ele>596.4</ele>
        <time>2020-10-24T10:04:33Z</time>
      </trkpt>
      <trkpt lat="48.07097" lon="6.86684">
        <ele>596.4</ele>
        <time>2020-10-24T10:04:34Z</time>
      </trkpt>
      <trkpt lat="48.07096" lon="6.86686">
        <ele>596.4</ele>
        <time>2020-10-24T10:04:35Z</time>
      </trkpt>
      <trkpt lat="48.07095" lon="6.86686">
        <ele>596.4</ele>
        <time>2020-10-24T10:04:36Z</time>
      </trkpt>
      <trkpt lat="48.07094" lon="6.86687">
        <ele>596.4</ele>
        <time>2020-10-24T10:04:37Z</time>
      </trkpt>
      <trkpt lat="48.07093" lon="6.86688">
        <ele>596.2</ele>
        <time>2020-10-24T10:04:38Z</time>
      </trkpt>
      <trkpt lat="48.07092" lon="6.86689">
        <ele>596.2</ele>
        <time>2020-10-24T10:04:39Z</time>
      </trkpt>
      <trkpt lat="48.07091" lon="6.86689">
        <ele>596.8</ele>
        <time>2020-10-24T10:04:40Z</time>
      </trkpt>
      <trkpt lat="48.0709" lon="6.8669">
        <ele>597.4</ele>
        <time>2020-10-24T10:04:41Z</time>
      </trkpt>
      <trkpt lat="48.07088" lon="6.86691">
        <ele>597.2</ele>
        <time>2020-10-24T10:04:42Z</time>
      </trkpt>
      <trkpt lat="48.07087" lon="6.86691">
        <ele>596.6</ele>
        <time>2020-10-24T10:04:43Z</time>
      </trkpt>
      <trkpt lat="48.07086" lon="6.8669">
        <ele>596.4</ele>
        <time>2020-10-24T10:04:44Z</time>
      </trkpt>
      <trkpt lat="48.07084" lon="6.86689">
        <ele>596.4</ele>
        <time>2020-10-24T10:04:45Z</time>
      </trkpt>
      <trkpt lat="48.07083" lon="6.86688">
        <ele>596.2</ele>
        <time>2020-10-24T10:04:46Z</time>
      </trkpt>
      <trkpt lat="48.07082" lon="6.86687">
        <ele>595.8</ele>
        <time>2020-10-24T10:04:47Z</time>
      </trkpt>
      <trkpt lat="48.07081" lon="6.86687">
        <ele>595.6</ele>
        <time>2020-10-24T10:04:48Z</time>
      </trkpt>
      <trkpt lat="48.0708" lon="6.86687">
        <ele>595.6</ele>
        <time>2020-10-24T10:04:49Z</time>
      </trkpt>
      <trkpt lat="48.07078" lon="6.86688">
        <ele>595.6</ele>
        <time>2020-10-24T10:04:50Z</time>
      </trkpt>
      <trkpt lat="48.07077" lon="6.86688">
        <ele>595.4</ele>
        <time>2020-10-24T10:04:51Z</time>
      </trkpt>
      <trkpt lat="48.07076" lon="6.86688">
        <ele>595.4</ele>
        <time>2020-10-24T10:04:52Z</time>
      </trkpt>
      <trkpt lat="48.07076" lon="6.86688">
        <ele>595.4</ele>
        <time>2020-10-24T10:04:53Z</time>
      </trkpt>
      <trkpt lat="48.07074" lon="6.86689">
        <ele>595.4</ele>
        <time>2020-10-24T10:04:54Z</time>
      </trkpt>
      <trkpt lat="48.07073" lon="6.86689">
        <ele>595.4</ele>
        <time>2020-10-24T10:04:55Z</time>
      </trkpt>
      <trkpt lat="48.07072" lon="6.86689">
        <ele>595.2</ele>
        <time>2020-10-24T10:04:56Z</time>
      </trkpt>
      <trkpt lat="48.0707" lon="6.86688">
        <ele>595.2</ele>
        <time>2020-10-24T10:04:57Z</time>
      </trkpt>
      <trkpt lat="48.0707" lon="6.86688">
        <ele>595.2</ele>
        <time>2020-10-24T10:04:58Z</time>
      </trkpt>
      <trkpt lat="48.07069" lon="6.86687">
        <ele>595.2</ele>
        <time>2020-10-24T10:04:59Z</time>
      </trkpt>
      <trkpt lat="48.07068" lon="6.86687">
        <ele>595.2</ele>
        <time>2020-10-24T10:05:00Z</time>
      </trkpt>
      <trkpt lat="48.07067" lon="6.86687">
        <ele>595.2</ele>
        <time>2020-10-24T10:05:01Z</time>
      </trkpt>
      <trkpt lat="48.07067" lon="6.86687">
        <ele>595.4</ele>
        <time>2020-10-24T10:05:02Z</time>
      </trkpt>
      <trkpt lat="48.07066" lon="6.86686">
        <ele>595.6</ele>
        <time>2020-10-24T10:05:03Z</time>
      </trkpt>
      <trkpt lat="48.07065" lon="6.86686">
        <ele>595.6</ele>
        <time>2020-10-24T10:05:04Z</time>
      </trkpt>
      <trkpt lat="48.07064" lon="6.86685">
        <ele>595.2</ele>
        <time>2020-10-24T10:05:05Z</time>
      </trkpt>
      <trkpt lat="48.07062" lon="6.86685">
        <ele>595.2</ele>
        <time>2020-10-24T10:05:06Z</time>
      </trkpt>
      <trkpt lat="48.07061" lon="6.86685">
        <ele>595.4</ele>
        <time>2020-10-24T10:05:07Z</time>
      </trkpt>
      <trkpt lat="48.07059" lon="6.86685">
        <ele>595.4</ele>
        <time>2020-10-24T10:05:08Z</time>
      </trkpt>
      <trkpt lat="48.07058" lon="6.86685">
        <ele>595.6</ele>
        <time>2020-10-24T10:05:09Z</time>
      </trkpt>
      <trkpt lat="48.07057" lon="6.86685">
        <ele>595.4</ele>
        <time>2020-10-24T10:05:10Z</time>
      </trkpt>
      <trkpt lat="48.07055" lon="6.86685">
        <ele>595</ele>
        <time>2020-10-24T10:05:11Z</time>
      </trkpt>
      <trkpt lat="48.07055" lon="6.86684">
        <ele>595</ele>
        <time>2020-10-24T10:05:12Z</time>
      </trkpt>
      <trkpt lat="48.07054" lon="6.86683">
        <ele>595</ele>
        <time>2020-10-24T10:05:13Z</time>
      </trkpt>
      <trkpt lat="48.07053" lon="6.86682">
        <ele>595</ele>
        <time>2020-10-24T10:05:14Z</time>
      </trkpt>
      <trkpt lat="48.07051" lon="6.86681">
        <ele>595</ele>
        <time>2020-10-24T10:05:15Z</time>
      </trkpt>
      <trkpt lat="48.0705" lon="6.86681">
        <ele>595</ele>
        <time>2020-10-24T10:05:16Z</time>
      </trkpt>
      <trkpt lat="48.0705" lon="6.86681">
        <ele>595</ele>
        <time>2020-10-24T10:05:17Z</time>
      </trkpt>
      <trkpt lat="48.07048" lon="6.86681">
        <ele>595.2</ele>
        <time>2020-10-24T10:05:18Z</time>
      </trkpt>
      <trkpt lat="48.07047" lon="6.86679">
        <ele>595.4</ele>
        <time>2020-10-24T10:05:19Z</time>
      </trkpt>
      <trkpt lat="48.07045" lon="6.86679">
        <ele>595.4</ele>
        <time>2020-10-24T10:05:20Z</time>
      </trkpt>
      <trkpt lat="48.07044" lon="6.86678">
        <ele>595.2</ele>
        <time>2020-10-24T10:05:21Z</time>
      </trkpt>
      <trkpt lat="48.07044" lon="6.86678">
        <ele>595</ele>
        <time>2020-10-24T10:05:22Z</time>
      </trkpt>
      <trkpt lat="48.07043" lon="6.86678">
        <ele>595</ele>
        <time>2020-10-24T10:05:23Z</time>
      </trkpt>
      <trkpt lat="48.07041" lon="6.86677">
        <ele>595</ele>
        <time>2020-10-24T10:05:24Z</time>
      </trkpt>
      <trkpt lat="48.07041" lon="6.86677">
        <ele>595</ele>
        <time>2020-10-24T10:05:25Z</time>
      </trkpt>
      <trkpt lat="48.0704" lon="6.86676">
        <ele>595</ele>
        <time>2020-10-24T10:05:26Z</time>
      </trkpt>
      <trkpt lat="48.07038" lon="6.86675">
        <ele>595</ele>
        <time>2020-10-24T10:05:27Z</time>
      </trkpt>
      <trkpt lat="48.07037" lon="6.86675">
        <ele>595</ele>
        <time>2020-10-24T10:05:28Z</time>
      </trkpt>
      <trkpt lat="48.07036" lon="6.86675">
        <ele>595</ele>
        <time>2020-10-24T10:05:29Z</time>
      </trkpt>
      <trkpt lat="48.07035" lon="6.86676">
        <ele>595</ele>
        <time>2020-10-24T10:05:30Z</time>
      </trkpt>
      <trkpt lat="48.07033" lon="6.86676">
        <ele>595</ele>
        <time>2020-10-24T10:05:31Z</time>
      </trkpt>
      <trkpt lat="48.07031" lon="6.86676">
        <ele>595.2</ele>
        <time>2020-10-24T10:05:32Z</time>
      </trkpt>
      <trkpt lat="48.07029" lon="6.86675">
        <ele>595.2</ele>
        <time>2020-10-24T10:05:33Z</time>
      </trkpt>
      <trkpt lat="48.07028" lon="6.86675">
        <ele>595.2</ele>
        <time>2020-10-24T10:05:34Z</time>
      </trkpt>
      <trkpt lat="48.07026" lon="6.86674">
        <ele>595.2</ele>
        <time>2020-10-24T10:05:35Z</time>
      </trkpt>
      <trkpt lat="48.07025" lon="6.86675">
        <ele>595.2</ele>
        <time>2020-10-24T10:05:36Z</time>
      </trkpt>
      <trkpt lat="48.07024" lon="6.86675">
        <ele>595.2</ele>
        <time>2020-10-24T10:05:37Z</time>
      </trkpt>
      <trkpt lat="48.07023" lon="6.86674">
        <ele>595.2</ele>
        <time>2020-10-24T10:05:38Z</time>
      </trkpt>
      <trkpt lat="48.07022" lon="6.86674">
        <ele>595.2</ele>
        <time>2020-10-24T10:05:39Z</time>
      </trkpt>
      <trkpt lat="48.07021" lon="6.86673">
        <ele>595.2</ele>
        <time>2020-10-24T10:05:40Z</time>
      </trkpt>
      <trkpt lat="48.0702" lon="6.86673">
        <ele>595.4</ele>
        <time>2020-10-24T10:05:41Z</time>
      </trkpt>
      <trkpt lat="48.07019" lon="6.86673">
        <ele>595.4</ele>
        <time>2020-10-24T10:05:42Z</time>
      </trkpt>
      <trkpt lat="48.07017" lon="6.86672">
        <ele>595.2</ele>
        <time>2020-10-24T10:05:43Z</time>
      </trkpt>
      <trkpt lat="48.07016" lon="6.86672">
        <ele>595</ele>
        <time>2020-10-24T10:05:44Z</time>
      </trkpt>
      <trkpt lat="48.07014" lon="6.86671">
        <ele>595</ele>
        <time>2020-10-24T10:05:45Z</time>
      </trkpt>
      <trkpt lat="48.07013" lon="6.86672">
        <ele>595.2</ele>
        <time>2020-10-24T10:05:46Z</time>
      </trkpt>
      <trkpt lat="48.07012" lon="6.86671">
        <ele>595.2</ele>
        <time>2020-10-24T10:05:47Z</time>
      </trkpt>
      <trkpt lat="48.0701" lon="6.86671">
        <ele>595</ele>
        <time>2020-10-24T10:05:48Z</time>
      </trkpt>
      <trkpt lat="48.07009" lon="6.86669">
        <ele>595</ele>
        <time>2020-10-24T10:05:49Z</time>
      </trkpt>
      <trkpt lat="48.07007" lon="6.86669">
        <ele>595.2</ele>
        <time>2020-10-24T10:05:50Z</time>
      </trkpt>
      <trkpt lat="48.07006" lon="6.86668">
        <ele>595.2</ele>
        <time>2020-10-24T10:05:51Z</time>
      </trkpt>
      <trkpt lat="48.07005" lon="6.86668">
        <ele>595.2</ele>
        <time>2020-10-24T10:05:52Z</time>
      </trkpt>
      <trkpt lat="48.07004" lon="6.86668">
        <ele>595.2</ele>
        <time>2020-10-24T10:05:53Z</time>
      </trkpt>
      <trkpt lat="48.07003" lon="6.86668">
        <ele>595.2</ele>
        <time>2020-10-24T10:05:54Z</time>
      </trkpt>
      <trkpt lat="48.07002" lon="6.86667">
        <ele>595.2</ele>
        <time>2020-10-24T10:05:55Z</time>
      </trkpt>
      <trkpt lat="48.07" lon="6.86667">
        <ele>595.4</ele>
        <time>2020-10-24T10:05:56Z</time>
      </trkpt>
      <trkpt lat="48.06999" lon="6.86667">
        <ele>595.4</ele>
        <time>2020-10-24T10:05:57Z</time>
      </trkpt>
      <trkpt lat="48.06997" lon="6.86667">
        <ele>595.2</ele>
        <time>2020-10-24T10:05:58Z</time>
      </trkpt>
      <trkpt lat="48.06996" lon="6.86667">
        <ele>595.2</ele>
        <time>2020-10-24T10:05:59Z</time>
      </trkpt>
      <trkpt lat="48.06995" lon="6.86667">
        <ele>595.2</ele>
        <time>2020-10-24T10:06:00Z</time>
      </trkpt>
      <trkpt lat="48.06993" lon="6.86667">
        <ele>595.2</ele>
        <time>2020-10-24T10:06:01Z</time>
      </trkpt>
      <trkpt lat="48.06991" lon="6.86665">
        <ele>595.2</ele>
        <time>2020-10-24T10:06:02Z</time>
      </trkpt>
      <trkpt lat="48.06989" lon="6.86665">
        <ele>595.2</ele>
        <time>2020-10-24T10:06:03Z</time>
      </trkpt>
      <trkpt lat="48.06988" lon="6.86665">
        <ele>595</ele>
        <time>2020-10-24T10:06:04Z</time>
      </trkpt>
      <trkpt lat="48.06986" lon="6.86665">
        <ele>595.2</ele>
        <time>2020-10-24T10:06:05Z</time>
      </trkpt>
      <trkpt lat="48.06985" lon="6.86665">
        <ele>595.4</ele>
        <time>2020-10-24T10:06:06Z</time>
      </trkpt>
      <trkpt lat="48.06984" lon="6.86665">
        <ele>595.6</ele>
        <time>2020-10-24T10:06:07Z</time>
      </trkpt>
      <trkpt lat="48.06983" lon="6.86665">
        <ele>595.6</ele>
        <time>2020-10-24T10:06:08Z</time>
      </trkpt>
      <trkpt lat="48.06982" lon="6.86664">
        <ele>595.4</ele>
        <time>2020-10-24T10:06:09Z</time>
      </trkpt>
      <trkpt lat="48.06981" lon="6.86664">
        <ele>595.4</ele>
        <time>2020-10-24T10:06:10Z</time>
      </trkpt>
      <trkpt lat="48.06979" lon="6.86664">
        <ele>595.2</ele>
        <time>2020-10-24T10:06:11Z</time>
      </trkpt>
      <trkpt lat="48.06978" lon="6.86664">
        <ele>595.4</ele>
        <time>2020-10-24T10:06:12Z</time>
      </trkpt>
      <trkpt lat="48.06975" lon="6.86663">
        <ele>595.4</ele>
        <time>2020-10-24T10:06:13Z</time>
      </trkpt>
      <trkpt lat="48.06974" lon="6.86663">
        <ele>595.4</ele>
        <time>2020-10-24T10:06:14Z</time>
      </trkpt>
      <trkpt lat="48.06972" lon="6.86662">
        <ele>595.4</ele>
        <time>2020-10-24T10:06:15Z</time>
      </trkpt>
      <trkpt lat="48.06971" lon="6.86661">
        <ele>595.4</ele>
        <time>2020-10-24T10:06:16Z</time>
      </trkpt>
      <trkpt lat="48.0697" lon="6.86661">
        <ele>595.6</ele>
        <time>2020-10-24T10:06:17Z</time>
      </trkpt>
      <trkpt lat="48.06969" lon="6.8666">
        <ele>595.4</ele>
        <time>2020-10-24T10:06:18Z</time>
      </trkpt>
      <trkpt lat="48.06968" lon="6.8666">
        <ele>595.2</ele>
        <time>2020-10-24T10:06:19Z</time>
      </trkpt>
      <trkpt lat="48.06966" lon="6.86659">
        <ele>595</ele>
        <time>2020-10-24T10:06:20Z</time>
      </trkpt>
      <trkpt lat="48.06965" lon="6.86659">
        <ele>595.2</ele>
        <time>2020-10-24T10:06:21Z</time>
      </trkpt>
      <trkpt lat="48.06964" lon="6.86658">
        <ele>595.2</ele>
        <time>2020-10-24T10:06:22Z</time>
      </trkpt>
      <trkpt lat="48.06963" lon="6.86658">
        <ele>595.2</ele>
        <time>2020-10-24T10:06:23Z</time>
      </trkpt>
      <trkpt lat="48.06961" lon="6.86659">
        <ele>595.2</ele>
        <time>2020-10-24T10:06:24Z</time>
      </trkpt>
      <trkpt lat="48.0696" lon="6.86659">
        <ele>595.2</ele>
        <time>2020-10-24T10:06:25Z</time>
      </trkpt>
      <trkpt lat="48.06958" lon="6.86659">
        <ele>595.2</ele>
        <time>2020-10-24T10:06:26Z</time>
      </trkpt>
      <trkpt lat="48.06957" lon="6.86659">
        <ele>595.4</ele>
        <time>2020-10-24T10:06:27Z</time>
      </trkpt>
      <trkpt lat="48.06956" lon="6.86659">
        <ele>595.2</ele>
        <time>2020-10-24T10:06:28Z</time>
      </trkpt>
      <trkpt lat="48.06955" lon="6.86658">
        <ele>595.2</ele>
        <time>2020-10-24T10:06:29Z</time>
      </trkpt>
      <trkpt lat="48.06954" lon="6.86658">
        <ele>595.2</ele>
        <time>2020-10-24T10:06:30Z</time>
      </trkpt>
      <trkpt lat="48.06953" lon="6.86658">
        <ele>595.2</ele>
        <time>2020-10-24T10:06:31Z</time>
      </trkpt>
      <trkpt lat="48.06951" lon="6.86657">
        <ele>595.2</ele>
        <time>2020-10-24T10:06:32Z</time>
      </trkpt>
      <trkpt lat="48.0695" lon="6.86656">
        <ele>595</ele>
        <time>2020-10-24T10:06:33Z</time>
      </trkpt>
      <trkpt lat="48.06949" lon="6.86656">
        <ele>595</ele>
        <time>2020-10-24T10:06:34Z</time>
      </trkpt>
      <trkpt lat="48.06948" lon="6.86656">
        <ele>595.2</ele>
        <time>2020-10-24T10:06:35Z</time>
      </trkpt>
      <trkpt lat="48.06946" lon="6.86656">
        <ele>595.2</ele>
        <time>2020-10-24T10:06:36Z</time>
      </trkpt>
      <trkpt lat="48.06945" lon="6.86656">
        <ele>595</ele>
        <time>2020-10-24T10:06:37Z</time>
      </trkpt>
      <trkpt lat="48.06944" lon="6.86655">
        <ele>595</ele>
        <time>2020-10-24T10:06:38Z</time>
      </trkpt>
      <trkpt lat="48.06943" lon="6.86655">
        <ele>595.2</ele>
        <time>2020-10-24T10:06:39Z</time>
      </trkpt>
      <trkpt lat="48.06942" lon="6.86655">
        <ele>595.2</ele>
        <time>2020-10-24T10:06:40Z</time>
      </trkpt>
      <trkpt lat="48.06942" lon="6.86655">
        <ele>595.4</ele>
        <time>2020-10-24T10:06:41Z</time>
      </trkpt>
      <trkpt lat="48.06942" lon="6.86655">
        <ele>595.2</ele>
        <time>2020-10-24T10:06:42Z</time>
      </trkpt>
      <trkpt lat="48.06942" lon="6.86654">
        <ele>595</ele>
        <time>2020-10-24T10:06:43Z</time>
      </trkpt>
      <trkpt lat="48.06934" lon="6.86655">
        <ele>595.4</ele>
        <time>2020-10-24T10:06:55Z</time>
      </trkpt>
      <trkpt lat="48.06933" lon="6.86655">
        <ele>595.2</ele>
        <time>2020-10-24T10:06:56Z</time>
      </trkpt>
      <trkpt lat="48.06931" lon="6.86655">
        <ele>595.2</ele>
        <time>2020-10-24T10:06:57Z</time>
      </trkpt>
      <trkpt lat="48.06929" lon="6.86655">
        <ele>595.2</ele>
        <time>2020-10-24T10:06:58Z</time>
      </trkpt>
      <trkpt lat="48.06928" lon="6.86655">
        <ele>595.4</ele>
        <time>2020-10-24T10:06:59Z</time>
      </trkpt>
      <trkpt lat="48.06926" lon="6.86655">
        <ele>595.4</ele>
        <time>2020-10-24T10:07:00Z</time>
      </trkpt>
      <trkpt lat="48.06925" lon="6.86654">
        <ele>595.4</ele>
        <time>2020-10-24T10:07:01Z</time>
      </trkpt>
      <trkpt lat="48.06923" lon="6.86654">
        <ele>595.4</ele>
        <time>2020-10-24T10:07:02Z</time>
      </trkpt>
      <trkpt lat="48.06922" lon="6.86654">
        <ele>595.4</ele>
        <time>2020-10-24T10:07:03Z</time>
      </trkpt>
      <trkpt lat="48.06921" lon="6.86654">
        <ele>595.2</ele>
        <time>2020-10-24T10:07:04Z</time>
      </trkpt>
      <trkpt lat="48.0692" lon="6.86655">
        <ele>595.2</ele>
        <time>2020-10-24T10:07:05Z</time>
      </trkpt>
      <trkpt lat="48.0692" lon="6.86657">
        <ele>595.4</ele>
        <time>2020-10-24T10:07:06Z</time>
      </trkpt>
      <trkpt lat="48.0692" lon="6.86659">
        <ele>595.4</ele>
        <time>2020-10-24T10:07:07Z</time>
      </trkpt>
      <trkpt lat="48.0692" lon="6.86661">
        <ele>595.4</ele>
        <time>2020-10-24T10:07:08Z</time>
      </trkpt>
      <trkpt lat="48.0692" lon="6.86662">
        <ele>595.4</ele>
        <time>2020-10-24T10:07:09Z</time>
      </trkpt>
      <trkpt lat="48.06919" lon="6.86663">
        <ele>595.6</ele>
        <time>2020-10-24T10:07:10Z</time>
      </trkpt>
      <trkpt lat="48.06919" lon="6.86665">
        <ele>595.8</ele>
        <time>2020-10-24T10:07:11Z</time>
      </trkpt>
    </trkseg>
  </trk>
</gpx>